[[{"header":{"parameterUnit":"m.s-1","parameterCategory":1,"la1":31.0,"la2":29.5877,"lo1":-88.7671,"lo2":-86.6584,"dy":0.0162,"dx":0.0185,"nx":115,"ny":88,"refTime":"2024-02-29T06:00:00:Z","depth":0,"parameterNumber":2,"parameterNumberName":"U-component_of_WINDS"},"data":[0.0,0.0,0.0,0.0,0.0,0.0,0.0,0.0,0.0,0.0,0.0,0.0,0.0,0.0,0.0,0.0,0.0,0.0,0.0,0.0,0.0,0.0,0.0,0.0,0.0,0.0,0.0,0.0,0.0,0.0,0.0,0.0,0.0,0.0,0.0,0.0,0.0,0.0,0.0,0.0,0.0,0.0,0.0,0.0,0.0,0.0,0.0,0.0,0.0,0.0,0.0,0.0,0.0,0.0,0.0,0.0,0.0,0.0,0.0,0.0,0.0,0.0,0.0,0.0,0.0,0.0,0.0,0.0,0.0,0.0,0.0,0.0,0.0,0.0,0.0,0.0,0.0,0.0,0.0,0.0,0.0,0.0,0.0,0.0,0.0,0.0,0.0,0.0,0.0,0.0,0.0,0.0,0.0,0.0,0.0,0.0,0.0,0.0,0.0,0.0,0.0,0.0,0.0,0.0,0.0,0.0,0.0,0.0,0.0,0.0,0.0,0.0,0.0,0.0,0.0,0.0,0.0,0.0,0.0,0.0,0.0,0.0,0.0,0.0,0.0,0.0,0.0,0.0,0.0,0.0,0.0,0.0,0.0,0.0,0.0,0.0,0.0,0.0,0.0,0.0,0.0,0.0,0.0,0.0,0.0,0.0,0.0,0.0,0.0,0.0,0.0,0.0,0.0,0.0,0.0,0.0,0.0,0.0,0.0,0.0,0.0,0.0,0.0,0.0,0.0,0.0,0.0,0.0,0.0,0.0,0.0,0.0,0.0,0.0,0.0,0.0,0.0,0.0,0.0,0.0,0.0,0.0,0.0,0.0,0.0,0.0,0.0,0.0,0.0,0.0,0.0,0.0,0.0,0.0,0.0,0.0,0.0,0.0,0.0,0.0,0.0,0.0,0.0,0.0,0.0,0.0,0.0,0.0,0.0,0.0,0.0,0.0,0.0,0.0,0.0,0.0,0.0,0.0,0.0,0.0,0.0,0.0,0.0,0.0,0.0,0.0,0.0,0.0,0.0,0.0,0.0,0.0,0.0,0.0,0.0,0.0,0.0,0.0,0.0,0.0,0.0,0.0,0.0,0.0,0.0,0.0,0.0,0.0,0.0,0.0,0.0,0.0,0.0,0.0,0.0,0.0,0.0,0.0,0.0,0.0,0.0,0.0,0.0,0.0,0.0,0.0,0.0,0.0,0.0,0.0,0.0,0.0,0.0,0.0,0.0,0.0,0.0,0.0,0.0,0.0,0.0,0.0,0.0,0.0,0.0,0.0,0.0,0.0,0.0,0.0,0.0,0.0,0.0,0.0,0.0,0.0,0.0,0.0,0.0,0.0,0.0,0.0,0.0,0.0,0.0,0.0,0.0,0.0,0.0,0.0,0.0,0.0,0.0,0.0,0.0,0.0,0.0,0.0,0.0,0.0,0.0,0.0,0.0,0.0,0.0,0.0,0.0,0.0,0.0,0.0,0.0,0.0,0.0,0.0,0.0,0.0,0.0,0.0,0.0,0.0,0.0,0.0,0.0,0.0,0.0,0.0,0.0,0.0,0.0,0.0,0.0,0.0,0.0,0.0,0.0,0.0,0.0,0.0,0.0,0.0,0.0,0.0,0.0,0.0,0.0,0.0,0.0,0.0,0.0,0.0,0.0,0.0,0.0,0.0,0.0,0.0,0.0,0.0,0.0,0.0,0.0,0.0,0.0,0.0,0.0,0.0,0.0,0.0,0.0,0.0,0.0,0.0,0.0,0.0,0.0,0.0,0.0,0.0,0.0,0.0,0.0,0.0,0.0,0.0,0.0,0.0,0.0,0.0,0.0,0.0,0.0,0.0,0.0,0.0,0.0,0.0,0.0,0.0,0.0,0.0,0.0,0.0,0.0,0.0,0.0,0.0,0.0,0.0,0.0,0.0,0.0,0.0,0.0,0.0,0.0,0.0,0.0,0.0,0.0,0.0,0.0,0.0,0.0,0.0,0.0,0.0,0.0,0.0,0.0,0.0,0.0,0.0,0.0,0.0,0.0,0.0,0.0,0.0,0.0,0.0,0.0,0.0,0.0,0.0,0.0,0.0,0.0,0.0,0.0,0.0,0.0,0.0,0.0,0.0,0.0,0.0,0.0,0.0,0.0,0.0,0.0,0.0,0.0,0.0,0.0,0.0,0.0,0.0,0.0,0.0,0.0,0.0,0.0,0.0,0.0,0.0,0.0,0.0,0.0,0.0,0.0,0.0,0.0,0.0,0.0,0.0,0.0,0.0,0.0,0.0,0.0,0.0,0.0,0.0,0.0,0.0,0.0,0.0,0.0,0.0,0.0,0.0,0.0,0.0,0.0,0.0,0.0,0.0,0.0,0.0,0.0,0.0,0.0,0.0,0.0,0.0,0.0,0.0,0.0,0.0,0.0,0.0,0.0,0.0,0.0,0.0,0.0,0.0,0.0,0.0,0.0,0.0,0.0,0.0,0.0,0.0,0.0,0.0,0.0,0.0,0.0,0.0,0.0,0.0,0.0,0.0,0.0,0.0,0.0,0.0,0.0,0.0,0.0,0.0,0.0,0.0,0.0,0.0,0.0,0.0,0.0,0.0,0.0,0.0,0.0,0.0,0.0,0.0,0.0,0.0,0.0,0.0,0.0,0.0,0.0,0.0,0.0,0.0,0.0,0.0,0.0,0.0,0.0,0.0,0.0,0.0,0.0,0.0,0.0,0.0,0.0,0.0,0.0,0.0,0.0,0.0,0.0,0.0,0.0,0.0,0.0,0.0,0.0,0.0,0.0,0.0,0.0,0.0,0.0,0.0,0.0,0.0,0.0,0.0,0.0,0.0,0.0,0.0,0.0,0.0,0.0,0.0,0.0,0.0,0.0,0.0,0.0,0.0,0.0,0.0,0.0,0.0,0.0,0.0,0.0,0.0,0.0,0.0,0.0,0.0,0.0,0.0,0.0,0.0,0.0,0.0,0.0,0.0,0.0,0.0,0.0,0.0,0.0,0.0,0.0,0.0,0.0,0.0,0.0,0.0,0.0,0.0,0.0,0.0,0.0,0.0,0.0,0.0,0.0,0.0,0.0,0.0,0.0,0.0,0.0,0.0,0.0,0.0,0.0,0.0,0.0,0.0,0.0,0.0,0.0,0.0,0.0,0.0,0.0,0.0,0.0,0.0,0.0,0.0,0.0,0.0,0.0,0.0,0.0,0.0,0.0,0.0,0.0,0.0,0.0,0.0,0.0,0.0,0.0,0.0,0.0,0.0,0.0,0.0,0.0,0.0,0.0,0.0,0.0,0.0,0.0,0.0,0.0,0.0,0.0,0.0,0.0,0.0,0.0,0.0,0.0,0.0,0.0,0.0,0.0,0.0,0.0,0.0,0.0,0.0,0.0,0.0,0.0,0.0,0.0,0.0,0.0,0.0,0.0,0.0,0.0,0.0,0.0,0.0,0.0,0.0,0.0,0.0,0.0,0.0,0.0,0.0,0.0,0.0,0.0,0.0,0.0,0.0,0.0,0.0,0.0,0.0,0.0,0.0,0.0,0.0,0.0,0.0,0.0,0.0,0.0,0.0,0.0,0.0,0.0,0.0,0.0,0.0,0.0,0.0,0.0,0.0,0.0,0.0,0.0,0.0,0.0,0.0,0.0,0.0,0.0,0.0,0.0,0.0,0.0,0.0,0.0,0.0,0.0,0.0,0.0,0.0,0.0,0.0,0.0,0.0,0.0,0.0,0.0,0.0,0.0,0.0,0.0,0.0,0.0,0.0,0.0,0.0,0.0,0.0,0.0,0.0,0.0,0.0,0.0,0.0,0.0,0.0,0.0,0.0,0.0,0.0,0.0,0.0,0.0,0.0,0.0,0.0,0.0,0.0,0.0,0.0,0.0,0.0,0.0,0.0,0.0,0.0,0.0,0.0,0.0,0.0,0.0,0.0,0.0,0.0,0.0,0.0,0.0,0.0,0.0,0.0,0.0,0.0,0.0,0.0,0.0,0.0,0.0,0.0,0.0,0.0,0.0,0.0,0.0,0.0,0.0,0.0,0.0,0.0,0.0,0.0,0.0,0.0,0.0,0.0,0.0,0.0,0.0,0.0,0.0,0.0,0.0,0.0,0.0,0.0,0.0,0.0,0.0,0.0,0.0,0.0,0.0,0.0,0.0,0.0,0.0,0.0,0.0,0.0,0.0,0.0,0.0,0.0,0.0,0.0,0.0,0.0,0.0,0.0,0.0,0.0,0.0,0.0,0.0,0.0,0.0,0.0,0.0,0.0,0.0,0.0,0.0,0.0,0.0,0.0,-3.3495,0.0,0.0,0.0,0.0,0.0,0.0,0.0,0.0,0.0,0.0,0.0,0.0,0.0,0.0,0.0,0.0,0.0,0.0,0.0,0.0,0.0,0.0,0.0,0.0,0.0,0.0,0.0,0.0,0.0,0.0,0.0,0.0,0.0,0.0,0.0,0.0,0.0,0.0,0.0,0.0,0.0,0.0,0.0,0.0,0.0,0.0,0.0,0.0,0.0,0.0,0.0,0.0,0.0,0.0,0.0,0.0,0.0,0.0,0.0,0.0,0.0,0.0,0.0,0.0,0.0,0.0,0.0,0.0,0.0,0.0,0.0,0.0,0.0,0.0,0.0,0.0,0.0,0.0,0.0,0.0,0.0,0.0,0.0,0.0,0.0,0.0,0.0,0.0,0.0,0.0,0.0,0.0,0.0,0.0,0.0,0.0,0.0,0.0,0.0,0.0,0.0,0.0,0.0,0.0,0.0,0.0,0.0,0.0,0.0,0.0,-3.6168,-3.5521,-3.4859,-3.4335,-3.3998,0.0,0.0,0.0,0.0,0.0,0.0,0.0,0.0,0.0,0.0,0.0,0.0,0.0,0.0,0.0,0.0,0.0,0.0,0.0,0.0,0.0,0.0,0.0,0.0,0.0,0.0,0.0,0.0,0.0,0.0,0.0,0.0,0.0,0.0,0.0,0.0,0.0,0.0,0.0,0.0,0.0,0.0,0.0,0.0,0.0,0.0,0.0,0.0,0.0,0.0,0.0,0.0,0.0,0.0,0.0,0.0,0.0,0.0,0.0,0.0,0.0,0.0,0.0,0.0,0.0,0.0,0.0,0.0,0.0,0.0,0.0,0.0,0.0,0.0,0.0,0.0,0.0,0.0,0.0,0.0,0.0,0.0,0.0,0.0,0.0,0.0,0.0,0.0,0.0,0.0,0.0,0.0,0.0,0.0,0.0,0.0,0.0,0.0,0.0,0.0,0.0,0.0,0.0,0.0,0.0,0.0,0.0,0.0,0.0,0.0,0.0,0.0,-3.4861,-3.4263,-3.3927,0.0,0.0,0.0,0.0,0.0,0.0,0.0,0.0,0.0,0.0,0.0,0.0,0.0,0.0,0.0,0.0,0.0,0.0,0.0,0.0,0.0,0.0,0.0,0.0,0.0,0.0,0.0,0.0,0.0,0.0,0.0,0.0,0.0,0.0,0.0,0.0,0.0,0.0,0.0,0.0,0.0,0.0,0.0,0.0,0.0,0.0,0.0,0.0,0.0,0.0,0.0,0.0,0.0,0.0,0.0,0.0,0.0,0.0,0.0,0.0,0.0,0.0,0.0,0.0,0.0,0.0,0.0,0.0,0.0,0.0,0.0,0.0,0.0,0.0,0.0,0.0,0.0,0.0,0.0,0.0,0.0,0.0,0.0,0.0,0.0,0.0,0.0,0.0,0.0,0.0,0.0,0.0,0.0,0.0,0.0,0.0,0.0,0.0,0.0,0.0,0.0,0.0,0.0,0.0,0.0,0.0,0.0,0.0,0.0,0.0,-3.6383,-3.6135,-3.4896,0.0,-3.2357,0.0,0.0,0.0,0.0,0.0,0.0,0.0,0.0,0.0,0.0,0.0,0.0,0.0,0.0,0.0,0.0,0.0,0.0,0.0,0.0,0.0,0.0,0.0,0.0,0.0,0.0,0.0,0.0,0.0,0.0,0.0,0.0,0.0,0.0,0.0,0.0,0.0,0.0,0.0,0.0,0.0,0.0,0.0,0.0,0.0,0.0,0.0,0.0,0.0,0.0,0.0,0.0,0.0,0.0,0.0,0.0,0.0,0.0,0.0,0.0,0.0,0.0,0.0,0.0,0.0,0.0,0.0,0.0,0.0,0.0,0.0,0.0,0.0,0.0,0.0,0.0,0.0,0.0,0.0,0.0,0.0,0.0,0.0,0.0,0.0,0.0,0.0,0.0,0.0,0.0,0.0,0.0,0.0,0.0,0.0,0.0,0.0,0.0,0.0,0.0,0.0,0.0,0.0,0.0,0.0,0.0,0.0,0.0,0.0,0.0,-3.6163,-3.61,-3.479,-3.3559,0.0,0.0,0.0,0.0,0.0,0.0,0.0,0.0,0.0,0.0,0.0,0.0,0.0,0.0,0.0,0.0,0.0,0.0,0.0,0.0,0.0,0.0,0.0,0.0,0.0,0.0,0.0,0.0,0.0,0.0,0.0,0.0,0.0,0.0,0.0,0.0,0.0,0.0,0.0,0.0,0.0,0.0,0.0,0.0,0.0,0.0,0.0,0.0,0.0,0.0,0.0,0.0,0.0,0.0,0.0,0.0,0.0,0.0,0.0,0.0,0.0,0.0,0.0,0.0,0.0,0.0,0.0,0.0,0.0,0.0,0.0,0.0,0.0,0.0,0.0,0.0,0.0,0.0,0.0,0.0,0.0,0.0,0.0,0.0,0.0,0.0,0.0,0.0,0.0,0.0,0.0,0.0,0.0,0.0,0.0,0.0,0.0,0.0,0.0,0.0,0.0,0.0,0.0,0.0,0.0,0.0,0.0,0.0,0.0,0.0,-3.602,-3.5897,-3.5575,-3.4439,-3.3397,-3.2527,0.0,0.0,0.0,0.0,0.0,0.0,0.0,0.0,0.0,0.0,0.0,0.0,0.0,0.0,0.0,0.0,0.0,0.0,0.0,0.0,0.0,0.0,0.0,0.0,0.0,0.0,0.0,0.0,0.0,0.0,0.0,0.0,0.0,0.0,0.0,0.0,0.0,0.0,0.0,0.0,0.0,0.0,0.0,0.0,0.0,0.0,0.0,0.0,0.0,0.0,0.0,0.0,0.0,0.0,0.0,0.0,0.0,0.0,0.0,0.0,0.0,0.0,0.0,0.0,0.0,0.0,0.0,0.0,0.0,0.0,0.0,0.0,0.0,0.0,0.0,0.0,0.0,0.0,0.0,0.0,0.0,0.0,0.0,0.0,0.0,0.0,0.0,0.0,0.0,0.0,0.0,0.0,0.0,0.0,0.0,0.0,0.0,0.0,0.0,0.0,0.0,0.0,0.0,0.0,0.0,0.0,0.0,0.0,-3.5988,-3.5988,-3.5543,-3.464,-3.378,-3.294,0.0,0.0,0.0,0.0,0.0,0.0,0.0,0.0,0.0,0.0,0.0,0.0,0.0,0.0,0.0,0.0,0.0,0.0,0.0,0.0,0.0,0.0,0.0,0.0,0.0,0.0,0.0,0.0,0.0,0.0,0.0,0.0,0.0,0.0,0.0,0.0,0.0,0.0,0.0,0.0,0.0,0.0,0.0,0.0,0.0,0.0,0.0,0.0,0.0,0.0,0.0,0.0,0.0,0.0,0.0,0.0,0.0,0.0,0.0,0.0,0.0,0.0,0.0,0.0,0.0,0.0,0.0,0.0,0.0,0.0,0.0,0.0,0.0,0.0,0.0,0.0,0.0,0.0,0.0,0.0,0.0,0.0,0.0,0.0,0.0,0.0,0.0,0.0,0.0,0.0,0.0,0.0,0.0,0.0,0.0,0.0,0.0,0.0,0.0,0.0,0.0,0.0,0.0,0.0,0.0,0.0,0.0,0.0,0.0,-3.5297,-3.5297,-3.5112,-3.4744,-3.409,-3.3391,0.0,0.0,0.0,0.0,0.0,0.0,0.0,0.0,0.0,0.0,0.0,0.0,0.0,0.0,0.0,0.0,0.0,0.0,0.0,0.0,0.0,0.0,0.0,0.0,0.0,0.0,0.0,0.0,0.0,0.0,0.0,0.0,0.0,0.0,0.0,0.0,0.0,0.0,0.0,0.0,0.0,0.0,0.0,0.0,0.0,0.0,0.0,0.0,0.0,0.0,0.0,0.0,0.0,0.0,0.0,0.0,0.0,0.0,0.0,0.0,0.0,0.0,0.0,0.0,0.0,0.0,0.0,0.0,0.0,0.0,0.0,0.0,0.0,0.0,0.0,0.0,0.0,0.0,0.0,0.0,0.0,0.0,0.0,0.0,0.0,0.0,0.0,0.0,0.0,0.0,0.0,0.0,0.0,0.0,0.0,0.0,0.0,0.0,0.0,0.0,0.0,0.0,0.0,0.0,0.0,0.0,0.0,0.0,0.0,-3.4735,0.0,-3.4702,-3.4639,-3.4054,-3.341,0.0,0.0,0.0,0.0,0.0,0.0,0.0,0.0,0.0,0.0,0.0,0.0,0.0,0.0,0.0,0.0,0.0,0.0,0.0,0.0,0.0,0.0,0.0,0.0,0.0,0.0,0.0,0.0,0.0,0.0,0.0,0.0,0.0,0.0,0.0,0.0,0.0,0.0,0.0,0.0,0.0,0.0,0.0,0.0,0.0,0.0,0.0,0.0,0.0,0.0,0.0,0.0,0.0,0.0,0.0,0.0,0.0,0.0,0.0,0.0,0.0,0.0,0.0,0.0,0.0,0.0,0.0,0.0,0.0,0.0,0.0,0.0,0.0,0.0,0.0,0.0,0.0,0.0,0.0,0.0,0.0,0.0,0.0,0.0,0.0,0.0,0.0,0.0,0.0,0.0,0.0,0.0,0.0,0.0,0.0,0.0,0.0,0.0,0.0,0.0,0.0,0.0,0.0,0.0,0.0,0.0,0.0,0.0,-3.4597,-3.4414,-3.438,-3.4264,-3.4079,-3.3537,-3.2852,0.0,0.0,0.0,0.0,0.0,0.0,0.0,0.0,0.0,0.0,0.0,0.0,0.0,0.0,0.0,0.0,0.0,0.0,0.0,0.0,0.0,0.0,0.0,0.0,0.0,0.0,0.0,0.0,0.0,0.0,0.0,0.0,0.0,0.0,0.0,0.0,0.0,0.0,0.0,0.0,0.0,0.0,0.0,0.0,0.0,0.0,0.0,0.0,0.0,0.0,0.0,0.0,0.0,0.0,0.0,0.0,0.0,0.0,0.0,0.0,0.0,0.0,0.0,0.0,0.0,0.0,0.0,0.0,0.0,0.0,0.0,0.0,0.0,0.0,0.0,0.0,0.0,0.0,0.0,0.0,0.0,0.0,0.0,0.0,0.0,0.0,0.0,0.0,0.0,0.0,0.0,0.0,0.0,0.0,0.0,0.0,0.0,0.0,0.0,0.0,0.0,0.0,0.0,0.0,0.0,0.0,0.0,0.0,0.0,-3.3862,-3.3701,-3.3632,-3.3563,-3.3364,-3.2948,0.0,0.0,0.0,0.0,0.0,0.0,0.0,0.0,0.0,0.0,0.0,0.0,0.0,0.0,0.0,0.0,0.0,0.0,0.0,0.0,0.0,0.0,0.0,0.0,0.0,0.0,0.0,0.0,0.0,0.0,0.0,0.0,0.0,0.0,0.0,0.0,0.0,0.0,0.0,0.0,0.0,0.0,0.0,0.0,0.0,0.0,0.0,0.0,0.0,0.0,0.0,0.0,0.0,0.0,0.0,0.0,0.0,0.0,0.0,0.0,0.0,0.0,0.0,0.0,0.0,0.0,0.0,0.0,0.0,0.0,0.0,0.0,0.0,0.0,0.0,0.0,0.0,0.0,0.0,0.0,0.0,0.0,0.0,0.0,0.0,0.0,0.0,0.0,0.0,0.0,0.0,0.0,0.0,0.0,0.0,0.0,0.0,0.0,0.0,0.0,0.0,0.0,0.0,0.0,0.0,0.0,0.0,0.0,0.0,-3.3726,-3.3662,-3.3537,-3.33,-3.3314,-3.2911,-3.2145,0.0,0.0,0.0,0.0,0.0,0.0,0.0,0.0,0.0,0.0,0.0,0.0,0.0,0.0,0.0,0.0,0.0,0.0,0.0,0.0,0.0,0.0,0.0,0.0,0.0,0.0,0.0,0.0,0.0,0.0,0.0,0.0,0.0,0.0,0.0,0.0,0.0,0.0,0.0,0.0,0.0,0.0,0.0,0.0,0.0,0.0,0.0,0.0,0.0,0.0,0.0,0.0,0.0,0.0,0.0,0.0,0.0,0.0,0.0,0.0,0.0,0.0,0.0,0.0,0.0,0.0,0.0,0.0,0.0,0.0,0.0,0.0,0.0,0.0,0.0,0.0,0.0,0.0,0.0,0.0,0.0,0.0,0.0,0.0,0.0,0.0,0.0,0.0,0.0,0.0,0.0,0.0,0.0,0.0,0.0,0.0,0.0,0.0,0.0,0.0,0.0,0.0,0.0,0.0,0.0,0.0,0.0,0.0,-3.3885,-3.4104,-3.3932,-3.3319,-3.325,-3.2814,0.0,0.0,0.0,0.0,0.0,0.0,0.0,0.0,0.0,0.0,0.0,0.0,0.0,0.0,0.0,0.0,0.0,0.0,0.0,0.0,0.0,0.0,0.0,0.0,0.0,0.0,0.0,0.0,0.0,0.0,0.0,0.0,0.0,0.0,0.0,0.0,0.0,0.0,0.0,0.0,0.0,0.0,0.0,0.0,0.0,0.0,0.0,0.0,0.0,0.0,0.0,0.0,0.0,0.0,0.0,0.0,0.0,0.0,0.0,0.0,0.0,0.0,0.0,0.0,0.0,0.0,0.0,0.0,0.0,0.0,0.0,0.0,0.0,0.0,0.0,0.0,0.0,0.0,0.0,0.0,0.0,0.0,0.0,0.0,0.0,0.0,0.0,0.0,0.0,0.0,0.0,0.0,0.0,0.0,0.0,0.0,0.0,0.0,0.0,0.0,0.0,0.0,0.0,0.0,0.0,0.0,0.0,0.0,0.0,-3.3887,-3.4406,-3.422,-3.3334,-3.2865,-3.2514,0.0,0.0,0.0,0.0,0.0,0.0,0.0,0.0,0.0,0.0,0.0,0.0,0.0,0.0,0.0,0.0,0.0,0.0,0.0,0.0,0.0,0.0,0.0,0.0,0.0,0.0,0.0,0.0,0.0,0.0,0.0,0.0,0.0,0.0,0.0,0.0,0.0,0.0,0.0,0.0,0.0,0.0,0.0,0.0,0.0,0.0,0.0,0.0,0.0,0.0,0.0,0.0,0.0,0.0,0.0,0.0,0.0,0.0,0.0,0.0,0.0,0.0,0.0,0.0,0.0,0.0,0.0,0.0,0.0,0.0,0.0,0.0,0.0,0.0,0.0,0.0,0.0,0.0,0.0,0.0,0.0,0.0,0.0,0.0,0.0,0.0,0.0,0.0,0.0,0.0,0.0,0.0,0.0,0.0,0.0,0.0,0.0,0.0,0.0,0.0,0.0,0.0,0.0,0.0,0.0,0.0,0.0,0.0,-3.3516,-3.4241,-3.4489,-3.4344,-3.3766,-3.3052,-3.256,0.0,0.0,0.0,0.0,0.0,0.0,0.0,0.0,0.0,0.0,0.0,0.0,0.0,0.0,0.0,0.0,0.0,0.0,0.0,0.0,0.0,0.0,0.0,0.0,0.0,0.0,0.0,0.0,0.0,0.0,0.0,0.0,0.0,0.0,0.0,0.0,0.0,0.0,0.0,0.0,0.0,0.0,0.0,0.0,0.0,0.0,0.0,0.0,0.0,0.0,0.0,0.0,0.0,0.0,0.0,0.0,0.0,0.0,0.0,0.0,0.0,0.0,0.0,0.0,0.0,0.0,0.0,0.0,0.0,0.0,0.0,0.0,0.0,0.0,0.0,0.0,0.0,0.0,0.0,0.0,0.0,0.0,0.0,0.0,0.0,0.0,0.0,0.0,0.0,0.0,0.0,0.0,0.0,0.0,0.0,0.0,0.0,0.0,0.0,0.0,0.0,0.0,0.0,0.0,0.0,0.0,0.0,0.0,-3.3634,-3.4729,-3.4535,-3.4397,-3.4371,-3.354,-3.2855,0.0,0.0,0.0,0.0,0.0,0.0,0.0,0.0,0.0,0.0,0.0,0.0,0.0,0.0,0.0,0.0,0.0,0.0,0.0,0.0,0.0,0.0,0.0,0.0,0.0,0.0,0.0,0.0,0.0,0.0,0.0,0.0,0.0,0.0,0.0,0.0,0.0,0.0,0.0,0.0,0.0,0.0,0.0,0.0,0.0,0.0,0.0,0.0,0.0,0.0,0.0,0.0,0.0,0.0,0.0,0.0,0.0,0.0,0.0,0.0,0.0,0.0,0.0,0.0,0.0,0.0,0.0,0.0,0.0,0.0,0.0,0.0,0.0,0.0,0.0,0.0,0.0,0.0,0.0,0.0,0.0,0.0,0.0,0.0,0.0,0.0,0.0,0.0,0.0,0.0,0.0,0.0,0.0,0.0,0.0,0.0,0.0,0.0,0.0,0.0,0.0,0.0,0.0,0.0,0.0,0.0,0.0,0.0,-3.3813,-3.4468,-3.4439,-3.4397,-3.4397,-3.3785,-3.3197,0.0,0.0,0.0,0.0,0.0,0.0,0.0,0.0,0.0,0.0,0.0,0.0,0.0,0.0,0.0,0.0,0.0,0.0,0.0,0.0,0.0,0.0,0.0,0.0,0.0,0.0,0.0,0.0,0.0,0.0,0.0,0.0,0.0,0.0,0.0,0.0,0.0,0.0,0.0,0.0,0.0,0.0,0.0,0.0,0.0,0.0,0.0,0.0,-3.3818,0.0,0.0,0.0,0.0,0.0,0.0,0.0,0.0,0.0,0.0,0.0,0.0,0.0,0.0,0.0,0.0,0.0,0.0,0.0,0.0,0.0,0.0,0.0,0.0,0.0,0.0,0.0,0.0,0.0,0.0,0.0,0.0,0.0,0.0,0.0,0.0,0.0,0.0,0.0,0.0,0.0,0.0,0.0,0.0,0.0,0.0,0.0,0.0,0.0,0.0,0.0,0.0,0.0,0.0,0.0,0.0,0.0,0.0,0.0,-3.3712,-3.4384,-3.4397,-3.4397,-3.4384,-3.4123,-3.3561,0.0,0.0,0.0,0.0,0.0,0.0,0.0,0.0,0.0,0.0,0.0,0.0,0.0,0.0,0.0,0.0,0.0,0.0,0.0,0.0,0.0,0.0,0.0,0.0,0.0,0.0,0.0,0.0,0.0,0.0,0.0,0.0,0.0,0.0,0.0,0.0,0.0,0.0,0.0,0.0,0.0,0.0,0.0,0.0,0.0,0.0,0.0,0.0,0.0,0.0,0.0,0.0,0.0,0.0,0.0,0.0,0.0,0.0,0.0,0.0,0.0,0.0,0.0,0.0,0.0,0.0,0.0,0.0,0.0,0.0,0.0,0.0,0.0,0.0,0.0,0.0,0.0,0.0,0.0,0.0,0.0,0.0,0.0,0.0,0.0,0.0,0.0,0.0,0.0,0.0,0.0,0.0,0.0,0.0,0.0,0.0,0.0,0.0,0.0,0.0,0.0,0.0,0.0,0.0,0.0,0.0,0.0,-3.2959,-3.3584,-3.4204,-3.4356,-3.4314,-3.4092,-3.423,-3.3684,-3.2486,0.0,0.0,0.0,0.0,0.0,0.0,0.0,0.0,0.0,0.0,0.0,0.0,0.0,0.0,0.0,0.0,0.0,0.0,0.0,0.0,0.0,0.0,0.0,0.0,0.0,0.0,0.0,0.0,0.0,0.0,0.0,0.0,0.0,0.0,0.0,0.0,0.0,0.0,-3.2173,-3.3231,0.0,0.0,0.0,0.0,0.0,0.0,0.0,0.0,-3.4107,0.0,0.0,0.0,0.0,0.0,0.0,0.0,0.0,0.0,0.0,0.0,0.0,0.0,0.0,0.0,0.0,0.0,0.0,0.0,0.0,0.0,0.0,0.0,0.0,0.0,0.0,0.0,0.0,0.0,0.0,0.0,0.0,0.0,0.0,0.0,0.0,0.0,0.0,0.0,0.0,0.0,0.0,0.0,0.0,0.0,0.0,0.0,0.0,0.0,0.0,0.0,0.0,0.0,0.0,0.0,0.0,-3.218,-3.3101,-3.3581,-3.3556,-3.4105,-3.3839,-3.2747,-3.3403,-3.302,-3.1408,0.0,0.0,0.0,0.0,0.0,0.0,0.0,0.0,0.0,0.0,0.0,0.0,0.0,0.0,0.0,0.0,0.0,0.0,0.0,0.0,0.0,0.0,0.0,0.0,0.0,0.0,0.0,0.0,0.0,0.0,0.0,0.0,0.0,0.0,0.0,0.0,0.0,0.0,0.0,-3.316,-3.3438,0.0,0.0,0.0,0.0,0.0,0.0,0.0,0.0,-3.42,0.0,0.0,0.0,0.0,0.0,0.0,0.0,0.0,0.0,0.0,0.0,0.0,0.0,0.0,0.0,0.0,0.0,0.0,0.0,0.0,0.0,0.0,0.0,0.0,0.0,0.0,0.0,0.0,0.0,0.0,0.0,0.0,0.0,0.0,0.0,0.0,0.0,0.0,0.0,0.0,0.0,0.0,0.0,0.0,0.0,0.0,0.0,0.0,0.0,0.0,0.0,0.0,0.0,0.0,0.0,-3.1643,-3.2407,-3.282,-3.282,-3.3158,-3.2878,-3.1996,-3.2376,-3.2012,0.0,0.0,0.0,0.0,0.0,0.0,0.0,0.0,0.0,0.0,0.0,0.0,0.0,0.0,0.0,0.0,0.0,0.0,0.0,0.0,0.0,0.0,0.0,0.0,0.0,0.0,0.0,0.0,0.0,0.0,0.0,0.0,0.0,0.0,0.0,0.0,0.0,0.0,0.0,0.0,-3.3334,-3.372,-3.4015,0.0,0.0,0.0,0.0,0.0,0.0,-3.4283,-3.4355,0.0,0.0,0.0,0.0,0.0,0.0,0.0,0.0,0.0,0.0,0.0,0.0,0.0,0.0,0.0,0.0,0.0,0.0,0.0,0.0,0.0,0.0,0.0,0.0,0.0,0.0,0.0,0.0,0.0,0.0,0.0,0.0,0.0,0.0,0.0,0.0,0.0,0.0,0.0,0.0,0.0,0.0,0.0,0.0,0.0,0.0,0.0,0.0,0.0,0.0,0.0,0.0,0.0,0.0,0.0,-3.0999,-3.1511,-3.185,-3.2071,-3.222,-3.1912,-3.1177,-3.1377,-3.0986,0.0,0.0,0.0,0.0,0.0,0.0,0.0,0.0,0.0,0.0,0.0,0.0,0.0,0.0,0.0,0.0,0.0,0.0,0.0,0.0,0.0,0.0,0.0,0.0,0.0,0.0,0.0,0.0,0.0,0.0,0.0,0.0,0.0,0.0,0.0,0.0,0.0,0.0,0.0,0.0,0.0,-3.4178,-3.411,-3.4668,0.0,0.0,0.0,0.0,-3.4295,-3.4619,0.0,0.0,0.0,0.0,0.0,0.0,0.0,0.0,0.0,0.0,0.0,0.0,0.0,0.0,0.0,0.0,0.0,0.0,0.0,0.0,0.0,0.0,0.0,0.0,0.0,0.0,0.0,0.0,0.0,0.0,0.0,0.0,0.0,0.0,0.0,0.0,0.0,0.0,0.0,0.0,0.0,0.0,0.0,0.0,0.0,0.0,0.0,0.0,0.0,0.0,0.0,0.0,0.0,0.0,0.0,0.0,-3.0448,-3.0801,-3.1041,-3.1344,-3.1901,-3.1412,-2.9758,-3.0708,-3.0306,0.0,0.0,0.0,0.0,0.0,0.0,0.0,0.0,0.0,0.0,0.0,0.0,0.0,0.0,0.0,0.0,0.0,0.0,0.0,0.0,0.0,0.0,0.0,0.0,0.0,0.0,0.0,0.0,0.0,0.0,0.0,0.0,0.0,0.0,0.0,0.0,0.0,0.0,0.0,0.0,0.0,-3.4472,-3.4664,-3.5207,-3.5553,0.0,0.0,-3.5416,-3.5429,-3.5894,0.0,0.0,0.0,0.0,0.0,0.0,0.0,0.0,0.0,0.0,0.0,0.0,0.0,0.0,0.0,0.0,0.0,0.0,0.0,0.0,0.0,0.0,0.0,0.0,0.0,0.0,0.0,0.0,0.0,0.0,0.0,0.0,0.0,0.0,0.0,0.0,0.0,0.0,0.0,0.0,0.0,0.0,0.0,0.0,0.0,0.0,0.0,0.0,0.0,0.0,0.0,0.0,0.0,0.0,0.0,-2.8265,-2.9786,-2.9932,-3.0165,-3.0586,-3.0833,-3.0372,-2.9047,-2.9503,-2.9196,0.0,0.0,0.0,0.0,0.0,0.0,0.0,0.0,0.0,0.0,0.0,0.0,0.0,0.0,0.0,0.0,0.0,0.0,0.0,0.0,0.0,0.0,0.0,0.0,0.0,0.0,0.0,0.0,0.0,0.0,0.0,0.0,0.0,0.0,0.0,0.0,0.0,0.0,0.0,0.0,0.0,0.0,-3.4476,-3.5413,0.0,0.0,0.0,-3.5509,-3.5509,0.0,0.0,0.0,0.0,0.0,0.0,0.0,0.0,0.0,0.0,0.0,0.0,0.0,0.0,0.0,0.0,0.0,0.0,0.0,0.0,0.0,0.0,0.0,0.0,0.0,0.0,0.0,0.0,0.0,0.0,0.0,0.0,0.0,0.0,0.0,0.0,0.0,0.0,0.0,0.0,0.0,0.0,0.0,0.0,0.0,0.0,0.0,0.0,0.0,0.0,0.0,0.0,0.0,0.0,0.0,0.0,0.0,-2.9273,-2.9232,-2.9489,-3.0039,-3.0049,-2.9627,-2.8718,-2.8735,0.0,0.0,0.0,0.0,0.0,0.0,0.0,0.0,0.0,0.0,0.0,0.0,0.0,0.0,0.0,0.0,0.0,0.0,0.0,0.0,0.0,0.0,0.0,0.0,0.0,0.0,0.0,-2.4197,0.0,0.0,0.0,0.0,0.0,0.0,0.0,0.0,0.0,0.0,0.0,0.0,0.0,0.0,-3.5094,-3.4525,-3.5631,-3.6148,0.0,0.0,-3.5596,-3.5424,-3.5331,-3.5115,0.0,0.0,0.0,0.0,0.0,0.0,0.0,0.0,0.0,0.0,0.0,0.0,0.0,0.0,0.0,0.0,0.0,0.0,0.0,0.0,0.0,0.0,0.0,0.0,0.0,0.0,0.0,0.0,0.0,0.0,0.0,0.0,0.0,0.0,0.0,0.0,0.0,0.0,0.0,0.0,0.0,0.0,0.0,0.0,0.0,0.0,0.0,0.0,0.0,0.0,0.0,0.0,0.0,0.0,-2.7138,-2.8961,-2.8807,-2.9093,-2.9953,-2.9995,-2.9559,-2.8657,-2.8825,-2.8124,0.0,0.0,0.0,0.0,0.0,0.0,0.0,0.0,0.0,0.0,0.0,0.0,0.0,0.0,0.0,0.0,0.0,0.0,0.0,0.0,0.0,0.0,0.0,0.0,0.0,0.0,0.0,0.0,0.0,0.0,0.0,0.0,0.0,0.0,0.0,0.0,0.0,0.0,0.0,0.0,0.0,-3.5366,-3.5327,-3.5865,-3.6295,0.0,-3.6186,-3.6032,-3.5488,-3.584,-3.5667,-3.4033,0.0,0.0,0.0,0.0,0.0,0.0,0.0,0.0,0.0,0.0,0.0,0.0,0.0,0.0,0.0,0.0,0.0,0.0,0.0,0.0,0.0,0.0,0.0,0.0,0.0,0.0,0.0,0.0,0.0,0.0,0.0,0.0,0.0,0.0,0.0,0.0,0.0,0.0,0.0,0.0,0.0,0.0,0.0,0.0,0.0,0.0,0.0,0.0,0.0,0.0,0.0,0.0,0.0,-2.7066,-2.8736,-2.8668,-2.9063,-2.9953,-2.9994,-2.9684,-2.9052,-2.8863,-2.8077,0.0,0.0,0.0,0.0,0.0,0.0,0.0,0.0,0.0,0.0,0.0,0.0,0.0,0.0,0.0,0.0,0.0,0.0,0.0,0.0,0.0,0.0,0.0,0.0,0.0,0.0,0.0,0.0,-2.4305,-2.4557,-2.5256,0.0,0.0,0.0,0.0,0.0,0.0,0.0,0.0,0.0,0.0,-3.522,-3.522,-3.5984,0.0,0.0,-3.6109,-3.6307,-3.6046,-3.5907,-3.5489,-3.4445,-3.4134,0.0,0.0,0.0,0.0,0.0,0.0,0.0,0.0,0.0,0.0,0.0,0.0,0.0,0.0,0.0,0.0,0.0,0.0,0.0,0.0,0.0,0.0,0.0,0.0,0.0,0.0,0.0,0.0,0.0,0.0,0.0,0.0,0.0,0.0,0.0,0.0,0.0,0.0,0.0,0.0,0.0,0.0,0.0,0.0,0.0,0.0,0.0,0.0,0.0,0.0,0.0,0.0,-2.7051,-2.8587,-2.8618,-2.9063,-2.9973,-2.9994,-2.9777,-2.9311,-2.8856,-2.8125,0.0,0.0,0.0,0.0,0.0,0.0,0.0,0.0,0.0,0.0,0.0,0.0,0.0,0.0,0.0,0.0,0.0,0.0,0.0,0.0,0.0,0.0,0.0,0.0,0.0,0.0,0.0,0.0,-2.4367,-2.4567,-2.5337,0.0,0.0,0.0,0.0,0.0,0.0,0.0,0.0,0.0,0.0,-3.506,-3.5111,-3.5961,-3.6395,-3.5762,-3.6072,-3.6355,-3.6144,-3.5793,-3.5257,-3.46,0.0,0.0,0.0,0.0,0.0,0.0,0.0,0.0,0.0,0.0,0.0,0.0,0.0,0.0,0.0,0.0,0.0,0.0,0.0,0.0,0.0,0.0,0.0,0.0,0.0,0.0,0.0,-2.6548,0.0,0.0,-2.5916,0.0,0.0,0.0,0.0,0.0,0.0,0.0,0.0,0.0,0.0,0.0,0.0,0.0,0.0,0.0,0.0,0.0,0.0,0.0,0.0,0.0,0.0,-2.7231,-2.8587,-2.8568,-2.9063,-2.9963,-2.9994,-2.9777,-2.9321,-2.8856,-2.8183,-2.7299,0.0,0.0,0.0,0.0,0.0,0.0,0.0,0.0,0.0,0.0,0.0,0.0,0.0,0.0,0.0,0.0,0.0,0.0,0.0,0.0,0.0,0.0,0.0,0.0,0.0,0.0,-2.4703,-2.4637,-2.468,0.0,0.0,0.0,0.0,0.0,0.0,0.0,0.0,0.0,-3.2985,-3.409,-3.4887,-3.5185,-3.587,-3.6263,-3.6026,-3.6216,-3.6182,-3.5633,-3.5533,-3.5132,0.0,0.0,0.0,0.0,0.0,0.0,0.0,0.0,0.0,0.0,0.0,0.0,0.0,0.0,0.0,0.0,0.0,0.0,0.0,0.0,0.0,0.0,0.0,0.0,0.0,0.0,0.0,-2.7102,-2.7345,0.0,0.0,0.0,0.0,0.0,0.0,0.0,0.0,0.0,0.0,0.0,-2.7814,-2.7814,0.0,0.0,0.0,0.0,0.0,0.0,0.0,0.0,0.0,0.0,0.0,0.0,-2.7023,-2.8266,-2.8367,-2.8788,-2.9681,-2.9722,-2.964,-2.9486,-2.8554,-2.7508,-2.633,0.0,0.0,0.0,0.0,0.0,0.0,0.0,0.0,0.0,0.0,0.0,0.0,0.0,0.0,0.0,0.0,0.0,0.0,0.0,0.0,0.0,0.0,0.0,0.0,0.0,-2.3417,0.0,0.0,0.0,0.0,0.0,0.0,0.0,0.0,0.0,0.0,-2.9588,-3.0512,-3.2641,-3.341,-3.4102,-3.5054,-3.5404,-3.5704,0.0,0.0,0.0,0.0,0.0,0.0,0.0,0.0,0.0,0.0,0.0,0.0,0.0,0.0,-3.3926,-3.2692,-3.2593,-3.2633,-3.2254,0.0,0.0,0.0,0.0,0.0,0.0,0.0,0.0,0.0,0.0,0.0,0.0,0.0,0.0,-2.7542,-2.7784,-2.7452,0.0,0.0,0.0,0.0,0.0,0.0,0.0,0.0,-2.796,-2.7968,-2.7968,-2.7968,-2.7889,-2.7729,-2.7451,-2.6714,0.0,0.0,0.0,0.0,0.0,0.0,0.0,0.0,-2.6899,-2.8015,-2.8056,-2.8492,-2.9345,-2.9396,-2.9448,-2.9375,-2.8379,-2.7261,-2.6094,-2.536,-2.4836,0.0,0.0,0.0,0.0,0.0,0.0,0.0,0.0,0.0,0.0,0.0,0.0,0.0,0.0,0.0,0.0,0.0,0.0,0.0,0.0,0.0,0.0,0.0,-2.3539,0.0,0.0,0.0,0.0,0.0,0.0,0.0,0.0,0.0,-2.8702,-2.9247,-3.0106,-3.1893,-3.275,-3.3531,-3.4397,0.0,0.0,0.0,0.0,0.0,0.0,0.0,-3.6395,-3.5621,-3.5821,-3.5931,-3.5391,-3.514,-3.506,-3.5209,0.0,0.0,-3.3398,-3.3296,-3.3263,-3.2944,-3.3542,-3.3972,-3.3636,-3.4734,-3.5641,0.0,0.0,0.0,0.0,-2.7804,0.0,0.0,0.0,-2.7824,-2.7834,0.0,-2.7814,0.0,0.0,0.0,0.0,-2.7814,-2.7907,0.0,0.0,-2.8182,-2.8291,-2.8281,-2.8271,-2.8076,-2.7757,-2.7708,-2.7278,-2.6476,-2.6048,0.0,0.0,0.0,0.0,0.0,0.0,-2.6969,-2.7824,-2.7844,-2.8215,-2.9049,-2.9079,-2.9069,-2.9039,-2.8215,-2.7352,-2.6518,-2.6006,-2.5384,-2.456,-2.448,0.0,0.0,0.0,0.0,0.0,0.0,0.0,0.0,0.0,0.0,0.0,0.0,0.0,0.0,0.0,0.0,0.0,0.0,0.0,0.0,-2.3295,0.0,0.0,0.0,0.0,0.0,0.0,0.0,0.0,0.0,-2.6562,-2.7747,-2.9112,-3.0256,-3.0819,0.0,0.0,0.0,0.0,-3.5017,-3.4823,-3.5476,-3.5968,-3.6015,-3.6678,-3.6784,-3.5708,0.0,0.0,-3.6493,-3.5918,-3.5533,-3.552,-3.5165,-3.4911,-3.5347,-3.5264,-3.5213,-3.5175,-3.52,-3.5398,-3.5372,-3.5378,-3.5551,-2.9433,0.0,0.0,0.0,0.0,-2.7858,-2.8252,-2.9061,-2.8396,-2.8308,-2.8544,-2.7996,0.0,0.0,0.0,0.0,0.0,0.0,-2.7927,-2.8212,-2.8295,-2.8301,-2.8301,-2.8301,-2.8232,-2.8105,-2.7865,-2.7695,-2.7705,-2.7027,-2.6537,-2.6365,0.0,0.0,0.0,0.0,-2.7411,-2.7897,-2.7978,-2.8257,-2.8814,-2.8834,-2.8579,-2.8104,-2.7562,-2.701,-2.6458,-2.5719,-2.5196,-2.494,-2.4349,0.0,0.0,0.0,0.0,0.0,0.0,0.0,0.0,0.0,0.0,0.0,0.0,0.0,0.0,0.0,0.0,0.0,0.0,0.0,-2.2916,-2.3172,-2.3363,0.0,0.0,0.0,0.0,0.0,0.0,0.0,0.0,0.0,-2.7461,-2.8246,-2.9194,0.0,0.0,-3.175,-3.2533,-3.2974,-3.356,-3.464,-3.4981,0.0,-3.6181,-3.6448,-3.6543,-3.6182,-3.6443,-3.6593,-3.6443,-3.6232,-3.6119,-3.6119,-3.5994,-3.5986,-3.6029,-3.5423,-3.483,-3.4477,-3.4918,-3.5322,-3.5032,-3.5623,-3.6205,-3.0762,-2.916,-2.862,-2.834,-2.8379,-2.7921,-2.8291,-2.914,-2.8409,-2.8127,-2.8174,-2.7679,-2.7374,-2.7265,-2.6946,0.0,0.0,0.0,-2.7515,-2.7916,-2.7864,-2.7831,-2.7841,-2.8003,-2.8179,-2.8398,-2.8157,-2.8242,-2.8535,-2.8027,-2.7653,-2.7385,0.0,-2.751,-2.747,-2.7307,-2.7473,-2.7845,-2.7917,-2.8124,-2.8558,-2.8568,-2.8343,-2.7973,-2.75,-2.707,-2.665,-2.5967,-2.5478,-2.5125,-2.4626,-2.4141,0.0,0.0,0.0,0.0,0.0,0.0,0.0,0.0,0.0,0.0,0.0,-2.3011,-2.3011,0.0,0.0,0.0,-2.2547,-2.2804,-2.3052,-2.3247,0.0,0.0,0.0,0.0,0.0,0.0,0.0,-2.6238,-2.6754,-2.7186,-2.7483,-2.797,-2.8622,-2.9744,-3.0214,-3.0733,-3.1494,0.0,-3.2561,-3.3583,-3.4323,-3.5017,-3.5644,-3.6295,-3.6684,-3.6744,-3.6543,-3.6417,-3.6417,-3.6417,-3.6417,-3.6417,-3.6417,-3.6417,-3.6417,-3.5805,-3.529,-3.4964,-3.5391,-3.5717,-3.5429,-3.6033,-3.6492,-3.183,-3.1254,-2.9886,-2.9097,-2.8757,-2.818,-2.8294,-2.8738,-2.8095,-2.7638,-2.7251,-2.7159,-2.6976,-2.6646,-2.6618,0.0,-2.7371,-2.6873,-2.6946,-2.7427,-2.7207,-2.7094,-2.7112,-2.7516,-2.7965,-2.8521,-2.8643,-2.8809,-2.8978,-2.8984,-2.8769,-2.8325,-2.7568,-2.7148,-2.7119,-2.7119,-2.7314,-2.7715,-2.7767,-2.791,-2.8281,-2.8301,-2.8301,-2.8291,-2.7881,-2.7451,-2.7031,-2.6611,-2.5996,-2.5233,-2.5135,-2.4763,-2.3945,0.0,0.0,0.0,0.0,0.0,0.0,0.0,0.0,0.0,0.0,0.0,0.0,0.0,0.0,-2.314,-2.2793,0.0,-2.3154,-2.3613,0.0,0.0,0.0,-2.5342,-2.5693,-2.6172,-2.6582,-2.6973,0.0,0.0,-2.7767,-2.8076,-2.8573,-2.9073,-2.9615,-3.0078,-3.0381,-3.1264,-3.1867,-3.2155,-3.3492,-3.4639,-3.5004,-3.6222,-3.7201,-3.7188,-3.6822,-3.6619,-3.6606,-3.6606,-3.6568,-3.6619,-3.6556,-3.6531,-3.6493,-3.6468,-3.6455,-3.6355,-3.6367,-3.6392,-3.6342,-3.6367,-3.6392,-3.1045,-3.0166,-2.986,-2.992,-3.0345,-3.021,-3.0229,-3.0248,-2.9297,-2.8869,-2.8708,-2.7917,-2.7333,-2.6939,-2.6683,-2.6829,-2.7179,-2.7068,-2.7234,-2.7575,-2.7044,-2.6804,-2.6804,-2.735,-2.7719,-2.7889,-2.8878,-2.9565,-2.9873,-2.957,-2.9254,-2.8916,-2.8622,-2.831,-2.7998,-2.7988,-2.8037,-2.8144,-2.8144,-2.8193,-2.8291,-2.8301,-2.8301,-2.8291,-2.7891,-2.7461,-2.7031,-2.6611,-2.6143,-2.5605,-2.5244,-2.5018,-2.4766,-2.4443,0.0,0.0,0.0,0.0,0.0,0.0,0.0,0.0,0.0,-2.3916,-2.4248,0.0,-2.3955,0.0,-2.3066,-2.3184,-2.3603,-2.4307,0.0,0.0,-2.5547,-2.6113,-2.6221,-2.6611,-2.6894,-2.7002,-2.7402,-2.7783,-2.8105,-2.8506,-2.8951,-2.942,-2.9486,-2.983,-3.0567,-3.0634,-3.1106,-3.2184,-3.2896,-3.3724,-3.5201,-3.6579,-3.7469,-3.7481,-3.7554,-3.7613,-3.7613,-3.7613,-3.7613,-3.7613,-3.7613,-3.745,-3.7048,-3.7033,-3.6857,-3.6531,-3.6417,-3.6417,-3.6417,-3.6417,-3.6417,-3.0855,-3.007,-3.04,-3.0615,-3.0727,-2.9818,-2.96,-2.9811,-2.876,-2.8251,-2.7993,-2.7249,-2.6773,-2.6569,-2.6347,-2.6542,-2.6909,-2.6408,-2.639,-2.6823,-2.6062,-2.5855,-2.6165,-2.6672,-2.722,-2.7813,-2.8519,-2.9161,-2.964,-2.9212,-2.8937,-2.8766,-2.8563,-2.8427,-2.8195,-2.8281,-2.8301,-2.8301,-2.8301,-2.8301,-2.8301,-2.8301,-2.8301,-2.8291,-2.7943,-2.7461,-2.7031,-2.6611,-2.6191,-2.5703,-2.5498,-2.5273,-2.5125,-2.4834,-2.4512,0.0,0.0,0.0,0.0,0.0,0.0,0.0,0.0,0.0,0.0,0.0,-2.4219,-2.3769,-2.3896,-2.4189,-2.4619,-2.5254,-2.5664,-2.5664,-2.6485,-2.6963,-2.6953,-2.7334,-2.7578,-2.7588,-2.7793,-2.8115,-2.8516,-2.8779,-2.915,-2.9766,-2.9826,-2.9776,-2.9968,-3.0077,-3.055,-3.1254,-3.2481,-3.4062,-3.6016,-3.6922,-3.7431,-3.7431,-3.763,-3.7817,-3.7817,-3.7916,-3.8002,-3.799,-3.7801,-3.7563,-3.7236,-3.6973,-3.6757,-3.6518,-3.6417,-3.6417,-3.6417,-3.6417,-3.6417,-3.0564,-3.0121,-3.0723,-3.0782,-3.0357,-2.8496,-2.8069,-2.8499,-2.7583,-2.6867,-2.6296,-2.5872,-2.5711,-2.5711,-2.5669,-2.5951,-2.6449,-2.5528,-2.5369,-2.5762,-2.5074,-2.4996,-2.5569,-2.5927,-2.6675,-2.7711,-2.784,-2.8199,-2.8719,-2.8324,-2.8124,-2.8101,-2.7995,-2.7984,-2.7973,-2.8182,-2.8301,-2.8301,-2.8301,-2.8301,-2.8301,-2.8301,-2.8301,-2.8281,-2.7939,-2.7519,-2.7031,-2.666,-2.624,-2.5723,-2.5684,-2.5566,-2.5185,-2.5204,-2.4961,0.0,-2.4492,0.0,0.0,0.0,0.0,0.0,0.0,0.0,0.0,-2.4805,-2.4609,-2.4621,-2.501,-2.5391,-2.5732,-2.626,-2.6562,-2.6582,-2.7266,-2.7744,-2.7806,-2.8076,-2.8301,-2.8301,-2.8301,-2.8467,-2.8926,-2.9004,-2.9316,-3.001,-3.0146,-2.988,-2.9205,-2.9788,-3.0269,-2.9902,-3.2308,-3.467,-3.6369,-3.715,-3.74,-3.7426,-3.7677,-3.7741,-3.7803,-3.7979,-3.8154,-3.8116,-3.7903,-3.7539,-3.7425,-3.7096,-3.6744,-3.6619,-3.6568,-3.6531,-3.6443,-3.6417,-3.6417,-2.8235,-2.8659,-2.8848,-2.9011,-2.9114,-2.8742,-2.8563,-2.8438,-2.7773,-2.6683,-2.5351,-2.4928,-2.4767,-2.4743,-2.4486,-2.4569,-2.4938,-2.5253,-2.5656,-2.6042,-2.5874,-2.5846,-2.5976,-2.6026,-2.6111,-2.6424,-2.6909,-2.7263,-2.7392,-2.7305,-2.7234,-2.7155,-2.7504,-2.7687,-2.7669,0.0,0.0,0.0,-2.8301,-2.8301,-2.8301,-2.8301,-2.8301,-2.8291,-2.8223,0.0,-2.706,-2.6943,-2.6493,-2.5732,-2.5684,0.0,0.0,0.0,0.0,0.0,0.0,0.0,0.0,0.0,0.0,0.0,-2.5937,-2.5996,-2.5644,-2.5489,-2.5586,-2.5977,-2.6094,-2.6172,-2.6269,-2.6963,-2.7483,-2.7503,-2.7924,-2.8174,-2.8184,-2.8242,-2.8301,-2.8301,-2.8301,-2.8584,-2.9277,-2.9443,-2.9629,-3.0078,-3.0205,-2.9853,-2.9053,-2.9682,-3.0221,-3.0429,-3.2534,-3.4392,-3.5648,-3.7116,-3.8011,-3.8221,-3.839,-3.8509,-3.8536,-3.8588,-3.878,-3.8961,-3.8963,-3.8791,-3.8605,-3.8504,-3.8052,-3.7247,-3.7071,-3.6945,-3.6518,-3.6417,-3.6417,-2.6759,-2.6725,-2.7051,-2.7392,0.0,-2.7728,-2.7458,-2.7099,-2.765,-2.7309,-2.6323,-2.596,-2.5803,-2.5795,-2.5621,-2.5638,-2.5803,-2.5803,-2.572,-2.5586,-2.528,-2.5095,-2.5149,-2.5079,-2.521,-2.5578,-2.625,-2.6554,-2.6606,-2.6918,-2.7013,-2.6995,-2.7115,-2.7191,-2.7227,-2.7625,-2.8023,-2.8291,-2.8301,-2.8301,-2.8301,-2.8301,-2.8301,-2.8291,-2.8086,0.0,0.0,0.0,0.0,0.0,0.0,0.0,0.0,-2.585,0.0,-2.5723,-2.5527,-2.5498,-2.5703,-2.5723,-2.5908,-2.6338,-2.6582,-2.6514,-2.6094,-2.624,-2.6455,-2.668,-2.6894,-2.7109,-2.7324,-2.7725,-2.7969,-2.7988,-2.8164,-2.8301,-2.8301,-2.8301,-2.8301,-2.8301,-2.8301,-2.8545,-2.916,-2.9453,-2.9704,-2.9863,-3.0068,-2.9961,-2.9414,-2.96,-3.0224,-3.1493,-3.2845,-3.4377,-3.5701,-3.6863,-3.7799,-3.7875,-3.8238,-3.8554,-3.8579,-3.8841,-3.9102,-3.9245,-3.9214,-3.9068,-3.8931,-3.8655,-3.8253,-3.7726,-3.7374,-3.7123,-3.682,-3.6345,-3.5956,-2.5684,-2.5125,-2.5794,-2.6301,-2.6643,-2.6784,-2.6546,-2.6052,-2.7026,0.0,0.0,-2.6639,-2.6488,-2.648,-2.6422,-2.6388,-2.6388,-2.5953,-2.5472,-2.4919,-2.4479,-2.4293,-2.4301,-2.417,-2.4355,-2.4919,-2.5464,-2.577,-2.577,-2.6396,-2.683,-2.6883,-2.6883,-2.6982,-2.7155,-2.7417,-2.7809,-2.8291,-2.8301,-2.8301,-2.8301,-2.8301,-2.8301,-2.8291,-2.7959,-2.7796,-2.7718,-2.6982,-2.6582,-2.6494,-2.6152,-2.6074,-2.6465,-2.6162,-2.6123,-2.6445,-2.6162,-2.6123,-2.6475,-2.6504,-2.668,-2.71,-2.7129,-2.6982,-2.6641,-2.6924,-2.7168,-2.7226,-2.7568,-2.7973,-2.8262,-2.8291,-2.8301,-2.8301,-2.8301,-2.8301,-2.8301,-2.8301,-2.8301,-2.8301,-2.8301,-2.8447,-2.8887,-2.9307,-2.9521,-2.9521,-2.9795,-2.9893,-2.9482,-2.9375,-3.0088,-3.1718,-3.2756,-3.4034,-3.5446,-3.6545,-3.6972,-3.7124,-3.7702,-3.8146,-3.8287,-3.8675,-3.9037,-3.9102,-3.8988,-3.8942,-3.8943,-3.8718,-3.8278,-3.8178,-3.7801,-3.7498,-3.7262,-3.6546,-3.5821,-2.4918,-2.5432,-2.5892,-2.6308,-2.6651,-2.7658,-2.7816,-2.7248,-2.544,-2.4633,-2.4565,-2.4243,-2.4093,-2.4078,-2.3793,-2.3666,-2.3666,-2.417,-2.4355,-2.4293,-2.4734,-2.498,-2.4926,-2.4355,-2.417,-2.4232,-2.4355,-2.4355,-2.4479,-2.5103,-2.5647,-2.6269,-2.689,-2.7664,-2.8528,-2.8319,-2.8184,-2.8301,-2.8301,-2.8301,-2.8301,-2.8301,-2.8301,-2.8291,-2.8232,-2.8037,-2.7728,-2.7601,-2.7314,-2.6953,-2.6875,-2.6865,-2.6914,-2.6855,-2.6865,-2.6914,-2.6865,-2.6855,-2.6914,-2.6924,-2.7119,-2.7519,-2.762,-2.7549,-2.7552,-2.7591,-2.7725,-2.8066,-2.8154,-2.8223,-2.8291,-2.8301,-2.8301,-2.8301,-2.8301,-2.8301,-2.8301,-2.8301,-2.8301,-2.8301,-2.8301,-2.8437,-2.8828,-2.9287,-2.9424,-2.917,-2.9336,-2.9375,-2.8799,-2.8779,-2.9312,-3.0255,-3.1614,-3.276,-3.3914,-3.5333,-3.6318,-3.6507,-3.7003,-3.7404,-3.7404,-3.7823,-3.8275,-3.8502,-3.8669,-3.8877,-3.9148,-3.9367,-3.9144,-3.8843,-3.8605,-3.8404,-3.7965,-3.7337,-3.6621,-2.4152,-2.4337,-2.4351,-2.4549,-2.4955,-2.5839,-2.6115,-2.5875,-2.5071,-2.4965,-2.5482,-2.5481,-2.5325,-2.4991,-2.5154,-2.4991,-2.4515,-2.5132,-2.4968,-2.4177,-2.4417,-2.4355,-2.4046,-2.3666,-2.3728,-2.4108,-2.4479,-2.4857,-2.521,-2.5847,-2.6336,-2.6658,-2.6929,-2.7377,-2.7927,-2.7848,-2.7809,-2.7809,-2.813,-2.8301,-2.8301,-2.8301,-2.8301,-2.8301,-2.8301,-2.8203,-2.8018,-2.7793,-2.7578,-2.7373,-2.7139,-2.7119,-2.7353,-2.7148,-2.7119,-2.7334,-2.7148,-2.7119,-2.7353,-2.7578,-2.7793,-2.7988,-2.8008,-2.8008,-2.8008,-2.8061,-2.8086,-2.8271,-2.8301,-2.8301,-2.8301,-2.8301,-2.8301,-2.8301,-2.8301,-2.8301,-2.8301,-2.8301,-2.8301,-2.8301,-2.8301,-2.8369,-2.8555,-2.915,-2.9287,-2.876,-2.8779,-2.8701,-2.8359,-2.8447,-2.9005,-3.0221,-3.1499,-3.2643,-3.3501,-3.4917,-3.5829,-3.5966,-3.6423,-3.6711,-3.6771,-3.7127,-3.7488,-3.7922,-3.8203,-3.865,-3.9119,-3.9362,-3.9392,-3.9408,-3.9082,-3.8755,-3.8454,-3.7814,-3.6935,-2.4161,-2.3775,-2.3597,-2.3605,-2.3816,-2.4563,-2.4774,-2.4706,-2.5315,-2.5844,-2.6296,-2.6608,-2.6576,-2.6311,-2.6696,-2.6446,-2.5905,-2.6242,-2.5736,-2.4549,-2.4471,-2.4114,-2.3611,-2.3549,-2.3798,-2.4355,-2.498,-2.5586,-2.6136,-2.6761,-2.7194,-2.7297,-2.7202,-2.7338,-2.7641,-2.771,-2.7727,-2.7771,-2.8125,-2.8301,-2.8301,-2.8301,-2.8301,-2.8301,-2.8301,-2.8301,-2.8271,-2.7978,-2.7812,-2.7845,-2.748,-2.7461,-2.7816,-2.749,-2.7461,-2.7734,-2.749,-2.7451,-2.7773,-2.8105,-2.8301,-2.8301,-2.8389,-2.8437,-2.8437,-2.8525,-2.8535,-2.8457,-2.8457,-2.8447,-2.8467,-2.8447,-2.8398,-2.832,-2.8301,-2.8301,-2.8301,-2.8301,-2.8301,-2.8301,-2.8301,-2.8301,-2.8437,-2.9043,-2.9352,-2.8809,-2.8428,-2.8301,-2.8301,-2.8301,-2.892,-3.0109,-3.1341,-3.2331,-3.3507,-3.4506,-3.5165,-3.5387,-3.5869,-3.6158,-3.6254,-3.6466,-3.6797,-3.7273,-3.7685,-3.815,-3.8778,-3.9092,-3.9233,-3.9454,-3.9243,-3.9044,-3.9032,-3.8467,-3.7487,-2.5834,-2.5313,-2.5238,-2.5157,-2.4924,-2.5584,-2.5517,-2.5172,-2.6391,-2.6324,-2.5428,-2.5571,-2.6082,-2.6581,-2.6432,-2.628,-2.6096,-2.6224,-2.5969,-2.5596,-2.5564,-2.5351,-2.4896,-2.4873,-2.4926,-2.5111,-2.5647,-2.6014,-2.6197,-2.6822,-2.7375,-2.7855,-2.8066,-2.8403,-2.8917,-2.8824,-2.8748,-2.8739,-2.8432,-2.8301,-2.8301,-2.8301,-2.8301,-2.8301,-2.8301,-2.8301,-2.8291,-2.8262,-2.8232,-2.8232,-2.8184,-2.8174,-2.8213,-2.8184,-2.8184,-2.8223,-2.8184,-2.8203,-2.8232,-2.8262,-2.8301,-2.832,-2.8652,-2.8848,-2.8877,-2.9209,-2.9277,-2.8984,-2.8877,-2.8857,-2.8857,-2.8867,-2.8721,-2.8389,-2.834,-2.8301,-2.8301,-2.8301,-2.8301,-2.8301,-2.8301,-2.8301,-2.8379,-2.9004,-2.9538,-2.9411,-2.8809,-2.8447,-2.8437,-2.8437,-2.8739,-2.9404,-3.0287,-3.1424,-3.2493,-3.3457,-3.4428,-3.4894,-3.5352,-3.5629,-3.5749,-3.6062,-3.6497,-3.6744,-3.7197,-3.7706,-3.8005,-3.8304,-3.8945,-3.931,-3.9339,-3.9314,-3.9545,-3.9408,-3.8755,-2.6328,-2.5999,-2.5918,-2.5684,-2.5405,-2.5671,-2.5492,-2.5112,-2.5667,-2.5854,-2.5697,-2.5829,-2.5842,-2.5776,-2.6506,-2.6464,-2.5926,-2.6769,-2.6721,-2.6017,-2.5993,-2.581,-2.5491,-2.5475,-2.5558,-2.5725,-2.5953,-2.6319,-2.67,-2.6952,-2.7435,-2.7915,-2.7866,-2.7912,-2.8208,-2.8521,-2.845,-2.7872,-2.8369,-2.8545,-2.832,-2.8301,-2.8301,-2.8301,-2.8301,-2.8301,-2.8301,-2.8301,-2.8301,-2.8301,-2.8301,-2.8301,-2.8301,-2.8301,-2.8301,-2.8301,-2.8301,-2.8301,-2.8301,-2.8301,-2.8398,-2.8643,-2.8818,-2.9014,-2.9277,-2.9473,-2.958,-2.9648,-2.9443,-2.9307,-2.9307,-2.9307,-2.9141,-2.876,-2.8662,-2.8574,-2.832,-2.8301,-2.8301,-2.8301,-2.8301,-2.831,-2.8369,-2.8809,-2.9268,-2.9473,-2.9209,-2.9023,-2.9033,-2.9053,-2.9634,-3.0642,-3.1338,-3.1747,-3.2458,-3.3583,-3.4445,-3.4774,-3.4943,-3.5148,-3.528,-3.5593,-3.6014,-3.6338,-3.6958,-3.7572,-3.808,-3.8242,-3.8684,-3.9102,-3.9465,-3.9581,-3.9697,-3.9697,-3.9295,-2.7733,-2.7545,-2.7014,-2.6621,-2.6313,-2.61,-2.5799,-2.5501,-2.5689,-2.5913,-2.61,-2.6501,-2.6174,-2.5652,-2.6666,-2.6784,-2.6226,-2.7139,-2.7271,-2.6633,-2.6609,-2.6543,-2.6425,-2.6392,-2.6454,-2.6511,-2.653,-2.6732,-2.7098,-2.7081,-2.7315,-2.7675,-2.7626,-2.7662,-2.7894,-2.8525,-2.8512,-2.8117,-2.8718,-2.8945,-2.8682,-2.8525,-2.8418,-2.831,-2.8301,-2.8301,-2.8301,-2.8301,-2.8301,-2.8301,-2.8301,-2.8301,-2.8301,-2.8301,-2.8301,-2.8301,-2.8301,-2.8301,-2.8301,-2.8398,-2.8594,-2.8896,-2.9101,-2.9404,-2.9687,-2.9853,-3.0059,-3.0293,-3.0107,-2.9922,-2.9746,-2.9736,-2.9551,-2.917,-2.9101,-2.8955,-2.8711,-2.8643,-2.8672,-2.8643,-2.8721,-2.8701,-2.8818,-2.9053,-2.9307,-2.9668,-2.9695,-2.958,-2.958,-2.9597,-3.0022,-3.1298,-3.1659,-3.2361,-3.3101,-3.4221,-3.4948,-3.5207,-3.5327,-3.54,-3.5256,-3.5641,-3.5869,-3.6435,-3.6879,-3.732,-3.7858,-3.8193,-3.8566,-3.9102,-3.9478,-3.9633,-3.9697,-3.9697,-3.9697,-3.096,-3.0097,-2.9103,-2.8471,-2.813,-2.7434,-2.6945,-2.6595,-2.7269,-2.7059,-2.6442,-2.7501,-2.736,-2.6234,-2.6926,-2.7193,-2.7094,-2.7145,-2.7358,-2.7498,-2.7547,-2.7744,-2.8051,-2.8097,-2.7838,-2.7356,-2.7269,-2.724,-2.7089,-2.7038,-2.7133,-2.7133,-2.7564,-2.8155,-2.8569,-2.8944,-2.9489,-2.9508,-2.9538,-2.9512,-2.9434,-2.9082,-2.8711,-2.8398,-2.8301,-2.8301,-2.8301,-2.8301,-2.8301,-2.8301,-2.8301,-2.8301,-2.8301,-2.8301,-2.8301,-2.8301,-2.8301,-2.8301,-2.8359,-2.8652,-2.8906,-2.9043,-2.9648,-3.0127,-3.0185,-3.0498,-3.0723,-3.084,-3.0752,-3.0576,-3.0244,-3.0176,-3.0,-2.9609,-2.9597,-2.9567,-2.9482,-2.9385,-2.9502,-2.9509,-2.9404,-2.9482,-2.9922,-2.9822,-2.9756,-2.9941,-2.9834,-2.9658,-2.9707,-2.9658,-2.9892,-3.0227,-3.1007,-3.2244,-3.4711,-3.516,-3.5525,-3.5908,-3.599,-3.6206,-3.6302,-3.6362,-3.6411,-3.6543,-3.7012,-3.7392,-3.7661,-3.8075,-3.8561,-3.905,-3.9426,-3.9594,-3.9581,-3.9697,-3.9697,-3.1418,-3.111,-3.0763,-3.0136,-2.931,-2.8841,-2.8053,-2.718,-2.8068,-2.7979,-2.7456,-2.8652,-2.8826,-2.8073,-2.7427,-2.691,-2.6584,-2.6992,-2.7262,-2.7406,-2.7406,-2.754,-2.7794,-2.7383,-2.7258,-2.7206,-2.6832,-2.6838,-2.7019,-2.65,-2.6368,-2.6635,-2.6313,-2.6258,-2.671,-2.78,-2.8256,-2.7993,-2.9107,-2.9665,-2.9085,-2.9182,-2.9258,-2.9092,-2.8564,-2.8301,-2.8301,-2.8301,-2.8301,-2.8301,-2.8301,-2.8301,-2.8301,-2.8301,-2.8301,-2.8301,-2.8301,-2.8408,-2.8662,-2.8838,-2.917,-2.9697,-3.0,-3.0351,-3.0596,-3.0791,-3.0898,-3.0898,-3.0898,-3.0781,-3.0703,-3.0644,-3.0469,-3.0078,-2.9971,-2.9863,-2.9639,-2.958,-2.958,-2.958,-2.958,-2.9648,-2.989,-2.9949,-3.0029,-3.0176,-3.0312,-3.0371,-3.04,-3.04,-3.0581,-3.1398,-3.1963,-3.3061,-3.5531,-3.5259,-3.5172,-3.5967,-3.6374,-3.6386,-3.6447,-3.6807,-3.6916,-3.6988,-3.7348,-3.7629,-3.7948,-3.8141,-3.8619,-3.8724,-3.9166,-3.9478,-3.9413,-3.9581,-3.9697,-3.2333,-3.2333,-3.2333,-3.1913,-3.1104,-3.0271,-2.9322,-2.8325,-2.8788,-2.8722,-2.8585,-2.9793,-3.0078,-2.9456,-2.8453,-2.7453,-2.6581,-2.6587,-2.6666,-2.6859,-2.6859,-2.7065,-2.7392,-2.7024,-2.6978,-2.7171,-2.6696,-2.6591,-2.6695,-2.6096,-2.6047,-2.6329,-2.5923,-2.5808,-2.6142,-2.7626,-2.8104,-2.797,-2.9244,-2.9805,-2.9422,-2.9448,-2.9616,-2.9678,-2.9072,-2.8623,-2.8516,-2.8496,-2.8418,-2.832,-2.8301,-2.8301,-2.8301,-2.8418,-2.8496,-2.8506,-2.8643,-2.8818,-2.9101,-2.9258,-2.959,-3.0137,-3.0351,-3.0576,-3.0859,-3.0898,-3.0898,-3.0898,-3.0898,-3.0898,-3.0898,-3.0889,-3.0762,-3.0478,-3.042,-3.0312,-3.0049,-3.0019,-3.0076,-3.0049,-3.0059,-3.0029,-3.0019,-3.0264,-3.04,-3.042,-3.0713,-3.0879,-3.0898,-3.0947,-3.1122,-3.196,-3.2119,-3.3046,-3.4604,-3.4696,-3.5582,-3.6476,-3.6884,-3.6828,-3.6855,-3.7216,-3.7397,-3.7493,-3.7702,-3.793,-3.8145,-3.8356,-3.8461,-3.8514,-3.8945,-3.9374,-3.9426,-3.953,-3.9633,-3.3747,-3.3678,-3.3817,-3.359,-3.3143,-3.1652,-3.0769,-3.0237,-2.9758,-2.9614,-2.9679,-3.0937,-3.1267,-3.0449,-3.0113,-2.9144,-2.7796,-2.6508,-2.5892,-2.6214,-2.6168,-2.6481,-2.7126,-2.6953,-2.7052,-2.7369,-2.7171,-2.6704,-2.6223,-2.6039,-2.6072,-2.6264,-2.6654,-2.6884,-2.7401,-2.8552,-2.942,-2.9533,-2.9795,-3.0197,-3.0655,-2.992,-2.9709,-3.0109,-2.9785,-2.9394,-2.8984,-2.8935,-2.876,-2.8428,-2.8379,-2.832,-2.8457,-2.8721,-2.8926,-2.8975,-2.9297,-2.9577,-2.96,-2.9902,-3.0078,-3.0322,-3.0625,-3.084,-3.0869,-3.0898,-3.0898,-3.0898,-3.0898,-3.0898,-3.0898,-3.0898,-3.0879,-3.0869,-3.081,-3.0791,-3.0801,-3.085,-3.0869,-3.0801,-3.0752,-3.0859,-3.0859,-3.0801,-3.0791,-3.081,-3.0859,-3.0898,-3.0898,-3.0898,-3.0898,-3.1064,-3.1508,-3.2467,-3.33,-3.4168,-3.5738,-3.7079,-3.7399,-3.7515,-3.7565,-3.7745,-3.7721,-3.7781,-3.7781,-3.8027,-3.8145,-3.8303,-3.8473,-3.8579,-3.8998,-3.9166,-3.927,-3.9374,-3.9581,-3.3817,-3.3817,-3.3817,-3.3521,-3.3015,-3.2394,-3.1713,-3.1038,-3.1524,-3.1608,-3.1565,-3.2927,-3.326,-3.2475,-3.1972,-3.1189,-3.0062,-2.8666,-2.7344,-2.6212,-2.582,-2.6125,-2.6563,-2.6102,-2.5801,-2.5962,-2.6253,-2.6324,-2.6137,-2.5886,-2.5965,-2.647,-2.6528,-2.6789,-2.7416,-2.8204,-2.8721,-2.9034,-2.991,-3.0284,-3.0264,-3.0344,-3.05,-3.0664,-3.0547,-3.0273,-2.9824,-2.9521,-2.9316,-2.915,-2.917,-2.917,-2.9199,-2.9297,-2.9365,-2.9385,-2.9482,-2.9726,-2.9971,-3.0117,-3.0351,-3.0605,-3.082,-3.0879,-3.0898,-3.0898,-3.0898,-3.0898,-3.0898,-3.0898,-3.0898,-3.0898,-3.0898,-3.0898,-3.0898,-3.0898,-3.0898,-3.0898,-3.0898,-3.0898,-3.0898,-3.0898,-3.0898,-3.0898,-3.0898,-3.0898,-3.0898,-3.0898,-3.0898,-3.0898,-3.0898,-3.0947,-3.1286,-3.1682,-3.2628,-3.3572,-3.4792,-3.6286,-3.7054,-3.7708,-3.7868,-3.7974,-3.7974,-3.7974,-3.7974,-3.8027,-3.8145,-3.8198,-3.8303,-3.8356,-3.8514,-3.8736,-3.8958,-3.9166,-3.9374,-3.3817,-3.3817,-3.3817,-3.3521,-3.3094,-3.2815,-3.2324,-3.1731,-3.2263,-3.2458,-3.2648,-3.3567,-3.3992,-3.3585,-3.3209,-3.2522,-3.1676,-3.0521,-2.9094,-2.7454,-2.6407,-2.6265,-2.6442,-2.6063,-2.6026,-2.6284,-2.6693,-2.6819,-2.6687,-2.6745,-2.6846,-2.6909,-2.7214,-2.7478,-2.7849,-2.8275,-2.8782,-2.9346,-2.9777,-3.0024,-3.0149,-3.037,-3.0605,-3.0712,-3.085,-3.0752,-3.0449,-3.0252,-2.9912,-2.9648,-2.958,-2.958,-2.958,-2.9697,-2.9805,-2.9834,-2.998,-3.0195,-3.042,-3.0469,-3.0557,-3.084,-3.0898,-3.0898,-3.0898,-3.0898,-3.0898,-3.0898,-3.0898,-3.0898,-3.0898,-3.0898,-3.0898,-3.0898,-3.0898,-3.0898,-3.0898,-3.0898,-3.0898,-3.0898,-3.0898,-3.0898,-3.0898,-3.0898,-3.0898,-3.0898,-3.0898,-3.0898,-3.0898,-3.0898,-3.0898,-3.1005,-3.1286,-3.174,-3.2238,-3.3016,-3.3909,-3.519,-3.6406,-3.7227,-3.7761,-3.7921,-3.7974,-3.7974,-3.7974,-3.7974,-3.808,-3.8027,-3.8133,-3.8133,-3.8198,-3.8409,-3.8736,-3.8893,-3.9102,-3.3817,-3.3817,-3.3817,-3.3817,-3.3669,-3.3094,-3.2788,-3.2656,-3.2171,-3.2388,-3.3105,-3.3451,-3.3707,-3.3979,-3.3859,-3.3425,-3.2484,-3.1454,-3.053,-2.9355,-2.8043,-2.6945,-2.6574,-2.7015,-2.7416,-2.7793,-2.796,-2.7834,-2.7453,-2.8038,-2.8317,-2.7626,-2.8605,-2.9146,-2.8916,-2.9018,-2.9605,-3.0195,-2.9669,-2.9729,-3.0512,-3.0239,-3.023,-3.0632,-3.0799,-3.0869,-3.082,-3.0762,-3.0449,-2.9795,-2.9756,-2.9775,-2.9756,-3.0029,-3.0234,-3.0254,-3.0644,-3.0771,-3.0869,-3.081,-3.084,-3.0879,-3.0898,-3.0898,-3.0898,-3.0898,-3.0898,-3.0898,-3.0898,-3.0898,-3.0898,-3.0898,-3.0898,-3.0898,-3.0898,-3.0898,-3.0898,-3.0898,-3.0898,-3.0898,-3.0898,-3.0898,-3.0898,-3.0898,-3.0898,-3.0898,-3.0898,-3.0898,-3.0898,-3.0898,-3.0898,-3.1064,-3.1228,-3.1392,-3.1787,-3.2352,-3.3243,-3.4413,-3.5685,-3.6785,-3.7655,-3.7921,-3.7974,-3.7974,-3.7974,-3.7974,-3.7974,-3.7974,-3.7974,-3.8027,-3.8145,-3.8303,-3.8526,-3.8684,-3.8841,-3.3817,-3.3817,-3.3817,-3.3817,-3.3817,-3.3599,-3.353,-3.3475,-3.3239,-3.3434,-3.3921,-3.4241,-3.422,-3.4199,-3.4656,-3.4477,-3.3491,-3.236,-3.1357,-3.0446,-2.8749,-2.7956,-2.7887,-2.8379,-2.831,-2.7802,-2.8019,-2.7657,-2.7423,-2.8315,-2.856,-2.8691,-2.9746,-3.0185,-2.9914,-2.9805,-3.0088,-3.0483,-3.0332,-3.0405,-3.099,-3.0819,-3.0799,-3.1178,-3.0986,-3.0908,-3.0898,-3.0898,-3.082,-3.0596,-3.0537,-3.0547,-3.0508,-3.0615,-3.0674,-3.0703,-3.0791,-3.0898,-3.0898,-3.0898,-3.0898,-3.0898,-3.0898,-3.0898,-3.0898,-3.0898,-3.0898,-3.0898,-3.0898,-3.0898,-3.0898,-3.0898,-3.0898,-3.0898,-3.0898,-3.0898,-3.0898,-3.0898,-3.0898,-3.0898,-3.0898,-3.0898,-3.0898,-3.0898,-3.0898,-3.0898,-3.0898,-3.0898,-3.0898,-3.0898,-3.0898,-3.0898,-3.1005,-3.1054,-3.1286,-3.1855,-3.2638,-3.3751,-3.5024,-3.6406,-3.7269,-3.7974,-3.7974,-3.7974,-3.7974,-3.7974,-3.7974,-3.7974,-3.7974,-3.7974,-3.8027,-3.8198,-3.8356,-3.8526,-3.8631,-3.3817,-3.3817,-3.3817,-3.3817,-3.3817,-3.3817,-3.3817,-3.3849,-3.3922,-3.4084,-3.4359,-3.4499,-3.4363,-3.4228,-3.4622,-3.457,-3.3966,-3.2718,-3.1792,-3.0971,-2.9292,-2.8426,-2.8425,-2.8968,-2.9062,-2.8899,-2.9096,-2.9242,-2.9353,-2.9892,-3.0184,-3.0269,-3.1011,-3.1206,-3.0853,-3.0355,-3.0465,-3.0803,-3.0717,-3.0727,-3.0998,-3.1171,-3.1043,-3.1159,-3.0937,-3.0898,-3.0898,-3.0898,-3.0889,-3.0889,-3.0889,-3.0898,-3.0898,-3.0898,-3.0898,-3.0898,-3.0898,-3.0898,-3.0898,-3.0898,-3.0898,-3.0898,-3.0898,-3.0898,-3.0898,-3.0898,-3.0898,-3.0898,-3.0898,-3.0898,-3.0898,-3.0898,-3.0898,-3.0898,-3.0898,-3.0898,-3.0898,-3.0898,-3.0898,-3.0898,-3.0898,-3.0898,-3.0898,-3.0898,-3.0898,-3.0898,-3.0898,-3.0898,-3.0898,-3.0898,-3.0898,-3.0898,-3.0947,-3.1054,-3.145,-3.2018,-3.2913,-3.392,-3.4858,-3.6134,-3.7,-3.7868,-3.7974,-3.7974,-3.7974,-3.7974,-3.7974,-3.7974,-3.7974,-3.7974,-3.7974,-3.8027,-3.8198,-3.8303,-3.8409,-3.3817,-3.3817,-3.3817,-3.3817,-3.3817,-3.3817,-3.3817,-3.3886,-3.4135,-3.4333,-3.4408,-3.4318,-3.4241,-3.4134,-3.4267,-3.416,-3.3953,-3.2401,-3.1402,-3.0423,-2.9287,-2.8413,-2.843,-2.9285,-2.9785,-3.0276,-3.1038,-3.1256,-3.126,-3.2105,-3.2217,-3.1662,-3.2081,-3.21,-3.1464,-3.0754,-3.0775,-3.1084,-3.0871,-3.0711,-3.0849,-3.1139,-3.112,-3.094,-3.0858,-3.0908,-3.0898,-3.0898,-3.0898,-3.0898,-3.0898,-3.0898,-3.0898,-3.0898,-3.0898,-3.0898,-3.0898,-3.0898,-3.0898,-3.0898,-3.0898,-3.0898,-3.0898,-3.0898,-3.0898,-3.0898,-3.0898,-3.0898,-3.0898,-3.0898,-3.0898,-3.0898,-3.0898,-3.0898,-3.0898,-3.0898,-3.0898,-3.0898,-3.0898,-3.0898,-3.0898,-3.0898,-3.0898,-3.0898,-3.0898,-3.0898,-3.0898,-3.0898,-3.0898,-3.0898,-3.0898,-3.0898,-3.1005,-3.1112,-3.1672,-3.2295,-3.33,-3.4368,-3.5146,-3.6134,-3.6904,-3.7548,-3.7814,-3.7921,-3.7974,-3.7974,-3.7974,-3.7974,-3.7974,-3.7974,-3.7974,-3.7974,-3.8027,-3.808,-3.8185,-3.3817,-3.3817,-3.3817,-3.3817,-3.3817,-3.3817,-3.3817,-3.3817,-3.3886,-3.4094,-3.4393,-3.4626,-3.4384,-3.387,-3.4243,-3.4274,-3.3517,-3.1734,-2.9856,-2.817,-2.8162,-2.8299,-2.8826,-2.9919,-3.0301,-3.0419,-3.0723,-3.1247,-3.1607,-3.1893,-3.1892,-3.2202,-3.2453,-3.2238,-3.1475,-3.1354,-3.1022,-3.0878,-3.0836,-3.1072,-3.1148,-3.1161,-3.1201,-3.1169,-3.0976,-3.0908,-3.0898,-3.0898,-3.0898,-3.0898,-3.0898,-3.0898,-3.0898,-3.0898,-3.0898,-3.0898,-3.0898,-3.0898,-3.0898,-3.0898,-3.0898,-3.0898,-3.0898,-3.0898,-3.0898,-3.0898,-3.0898,-3.0898,-3.0898,-3.0898,-3.0898,-3.0898,-3.0898,-3.0898,-3.0898,-3.0898,-3.0898,-3.0898,-3.0898,-3.0898,-3.0898,-3.0898,-3.0898,-3.0898,-3.0898,-3.0898,-3.0898,-3.0898,-3.0898,-3.0898,-3.0898,-3.0898,-3.0947,-3.1112,-3.173,-3.2295,-3.313,-3.4032,-3.4814,-3.5587,-3.6352,-3.7131,-3.74,-3.7708,-3.7974,-3.7974,-3.7974,-3.7974,-3.7974,-3.7974,-3.7974,-3.7974,-3.7974,-3.7974,-3.7974,-3.3817,-3.3817,-3.3817,-3.3817,-3.3817,-3.3817,-3.3817,-3.3817,-3.3817,-3.3955,-3.4117,-3.4321,-3.416,-3.3994,-3.4075,-3.3934,-3.3508,-3.1939,-2.9935,-2.8618,-2.8585,-2.9132,-2.9647,-3.0689,-3.1135,-3.0901,-3.1716,-3.2144,-3.2311,-3.2253,-3.2584,-3.2775,-3.2995,-3.2733,-3.2069,-3.2024,-3.1869,-3.1612,-3.1646,-3.1826,-3.1768,-3.1621,-3.1269,-3.125,-3.1016,-3.0898,-3.0898,-3.0898,-3.0898,-3.0898,-3.0898,-3.0898,-3.0898,-3.0898,-3.0898,-3.0898,-3.0898,-3.0898,-3.0898,-3.0898,-3.0898,-3.0898,-3.0898,-3.0898,-3.0898,-3.0898,-3.0898,-3.0898,-3.0898,-3.0898,-3.0898,-3.0898,-3.0898,-3.0898,-3.0898,-3.0898,-3.0898,-3.0898,-3.0898,-3.0898,-3.0898,-3.0898,-3.0898,-3.0898,-3.0898,-3.0898,-3.0898,-3.0898,-3.0898,-3.0898,-3.0898,-3.0898,-3.0898,-3.117,-3.173,-3.2295,-3.2856,-3.347,-3.3976,-3.4647,-3.5312,-3.6145,-3.6916,-3.7346,-3.7761,-3.7974,-3.7974,-3.7974,-3.7974,-3.7974,-3.7974,-3.7974,-3.7974,-3.7974,-3.7974,-3.3633,-3.3633,-3.3633,-3.3633,-3.3624,-3.3596,-3.3578,-3.3596,-3.3624,-3.3523,-3.3638,-3.3589,-3.3713,-3.3794,-3.3631,-3.3621,-3.3216,-3.2418,-3.052,-2.9299,-2.97,-3.0165,-3.0676,-3.1377,-3.2003,-3.2202,-3.2823,-3.3243,-3.3233,-3.3355,-3.3155,-3.3355,-3.3345,-3.3131,-3.2939,-3.2783,-3.2568,-3.2263,-3.2302,-3.2344,-3.2168,-3.206,-3.1719,-3.1221,-3.1074,-3.0976,-3.0928,-3.0898,-3.0898,-3.0898,-3.0898,-3.0898,-3.0898,-3.0898,-3.0898,-3.0898,-3.0898,-3.0898,-3.0898,-3.0898,-3.0898,-3.0898,-3.0898,-3.0898,-3.0898,-3.0898,-3.0898,-3.0898,-3.0898,-3.0898,-3.0898,-3.0898,-3.0898,-3.0898,-3.0898,-3.0898,-3.0898,-3.0898,-3.0898,-3.0898,-3.0898,-3.0898,-3.0898,-3.0898,-3.0898,-3.0898,-3.0898,-3.0898,-3.0898,-3.0898,-3.0898,-3.0898,-3.0898,-3.117,-3.173,-3.218,-3.2799,-3.2913,-3.33,-3.3818,-3.4379,-3.5146,-3.6036,-3.7078,-3.7507,-3.7761,-3.7974,-3.7974,-3.7974,-3.7974,-3.7974,-3.7974,-3.7974,-3.7974,-3.7974,-3.2799,-3.279,-3.2799,-3.2799,-3.2799,-3.2808,-3.2845,-3.2799,-3.2863,-3.2808,-3.2884,-3.3137,-3.296,-3.2739,-3.3048,-3.2728,-3.2078,-3.1598,-3.1046,-3.013,-3.0381,-3.077,-3.1616,-3.1882,-3.2393,-3.2975,-3.3355,-3.3355,-3.3418,-3.3418,-3.3418,-3.3418,-3.3418,-3.333,-3.3213,-3.3008,-3.2832,-3.2676,-3.2578,-3.2393,-3.2334,-3.2217,-3.1992,-3.1475,-3.1416,-3.1279,-3.1006,-3.0928,-3.0898,-3.0898,-3.0898,-3.0898,-3.0898,-3.0898,-3.0898,-3.0898,-3.0898,-3.0898,-3.0898,-3.0898,-3.0898,-3.0898,-3.0898,-3.0898,-3.0898,-3.0898,-3.0898,-3.0898,-3.0898,-3.0898,-3.0898,-3.0898,-3.0898,-3.0898,-3.0898,-3.0898,-3.0898,-3.0898,-3.0898,-3.0898,-3.0898,-3.0898,-3.0898,-3.0898,-3.0898,-3.0898,-3.0898,-3.0898,-3.0898,-3.0898,-3.0898,-3.0898,-3.0898,-3.1286,-3.173,-3.218,-3.2571,-3.2514,-3.2742,-3.3094,-3.3706,-3.4267,-3.5146,-3.6472,-3.7346,-3.7761,-3.7921,-3.7974,-3.7974,-3.7974,-3.7974,-3.7974,-3.7974,-3.7974,-3.7974,-3.2597,-3.2597,-3.2597,-3.2597,-3.2597,-3.2597,-3.2597,-3.2597,-3.2597,-3.2597,-3.2664,-3.2788,-3.2838,-3.2691,-3.2656,-3.2162,-3.1469,-3.1772,-3.1377,-3.0852,-3.1175,-3.168,-3.2339,-3.2403,-3.2775,-3.3228,-3.3355,-3.3418,-3.3418,-3.3418,-3.3418,-3.3418,-3.3418,-3.3418,-3.3389,-3.3242,-3.3115,-3.3047,-3.29,-3.2793,-3.2764,-3.2627,-3.2266,-3.1973,-3.1855,-3.1748,-3.1582,-3.1289,-3.123,-3.1182,-3.1006,-3.0918,-3.0908,-3.0918,-3.0908,-3.0908,-3.0898,-3.0898,-3.0898,-3.0898,-3.0898,-3.0898,-3.0898,-3.0898,-3.0898,-3.0898,-3.0898,-3.0898,-3.0898,-3.0898,-3.0898,-3.0918,-3.0898,-3.0898,-3.0918,-3.0928,-3.0908,-3.0908,-3.0937,-3.0957,-3.0957,-3.0957,-3.0898,-3.0898,-3.0898,-3.0898,-3.0908,-3.0928,-3.0937,-3.1016,-3.1074,-3.1055,-3.1084,-3.125,-3.1601,-3.1892,-3.2289,-3.2258,-3.2343,-3.2689,-3.3277,-3.4001,-3.508,-3.632,-3.7012,-3.7619,-3.7921,-3.7986,-3.7974,-3.7974,-3.7921,-3.7933,-3.7974,-3.7974,-3.7974,-3.2349,-3.2349,-3.2349,-3.2349,-3.2359,-3.2349,-3.2331,-3.2349,-3.2331,-3.2304,-3.2349,-3.2322,-3.2502,-3.2579,-3.2198,-3.1606,-3.0944,-3.1772,-3.158,-3.1589,-3.191,-3.254,-3.2731,-3.2921,-3.2985,-3.3165,-3.3355,-3.3418,-3.3418,-3.3418,-3.3418,-3.3418,-3.3418,-3.3418,-3.3398,-3.3369,-3.3418,-3.3418,-3.3418,-3.3418,-3.332,-3.3096,-3.2725,-3.2353,-3.2295,-3.2317,-3.2041,-3.1807,-3.167,-3.1572,-3.1387,-3.1133,-3.1064,-3.1103,-3.1103,-3.1025,-3.0947,-3.0898,-3.0898,-3.0898,-3.0898,-3.0898,-3.0898,-3.0898,-3.0898,-3.0898,-3.0898,-3.0898,-3.1016,-3.1055,-3.1094,-3.1133,-3.1123,-3.1084,-3.1133,-3.1143,-3.1133,-3.1152,-3.1221,-3.1191,-3.1103,-3.1123,-3.1172,-3.0928,-3.0928,-3.1162,-3.1182,-3.1162,-3.1201,-3.1357,-3.1406,-3.1328,-3.1318,-3.1318,-3.1466,-3.1584,-3.184,-3.1988,-3.2204,-3.2488,-3.3145,-3.3868,-3.5042,-3.6149,-3.6704,-3.7249,-3.7611,-3.7892,-3.772,-3.7667,-3.7773,-3.7773,-3.7667,-3.7814,-3.7974,-3.1524,-3.1524,-3.1533,-3.1515,-3.1552,-3.1561,-3.1543,-3.1561,-3.1588,-3.1515,-3.1625,-3.157,-3.1598,-3.145,-3.0968,-3.0739,-3.0888,-3.1073,-3.1451,-3.1836,-3.223,-3.2422,-3.2549,-3.2794,-3.2921,-3.3111,-3.3292,-3.3355,-3.3418,-3.3418,-3.3418,-3.3418,-3.3418,-3.3418,-3.3418,-3.3418,-3.3418,-3.3418,-3.3418,-3.3418,-3.3408,-3.334,-3.3076,-3.2832,-3.2695,-3.2598,-3.2353,-3.2168,-3.209,-3.208,-3.2031,-3.1807,-3.1592,-3.1826,-3.1748,-3.1475,-3.1143,-3.0898,-3.0986,-3.1045,-3.1045,-3.1074,-3.1016,-3.0928,-3.1016,-3.0986,-3.0967,-3.0908,-3.1182,-3.1367,-3.1435,-3.1748,-3.1728,-3.1689,-3.167,-3.1631,-3.1572,-3.1553,-3.1601,-3.1601,-3.1562,-3.1572,-3.1601,-3.126,-3.1006,-3.125,-3.1445,-3.1445,-3.1484,-3.165,-3.1748,-3.1689,-3.172,-3.167,-3.165,-3.1699,-3.1748,-3.1826,-3.2056,-3.2406,-3.3136,-3.3943,-3.4947,-3.5949,-3.6464,-3.7084,-3.7653,-3.7707,-3.7399,-3.7416,-3.7682,-3.754,-3.7197,-3.753,-3.7911,-3.1377,-3.1377,-3.1377,-3.1377,-3.1377,-3.1377,-3.1377,-3.1377,-3.1377,-3.1377,-3.1313,-3.0926,-3.0602,-3.0343,-3.0157,-3.0426,-3.0546,-3.0611,-3.1,-3.1763,-3.2038,-3.223,-3.2422,-3.2731,-3.2985,-3.3111,-3.3292,-3.3355,-3.3418,-3.3418,-3.3418,-3.3418,-3.3418,-3.3418,-3.3418,-3.3418,-3.3418,-3.3418,-3.3418,-3.3418,-3.3418,-3.3408,-3.334,-3.3154,-3.3135,-3.3008,-3.2861,-3.2617,-3.2529,-3.248,-3.2344,-3.21,-3.1953,-3.2041,-3.2051,-3.1934,-3.1738,-3.1641,-3.1631,-3.1601,-3.1562,-3.1592,-3.1592,-3.166,-3.1632,-3.1387,-3.125,-3.126,-3.1396,-3.1523,-3.1631,-3.1914,-3.1992,-3.2031,-3.2139,-3.206,-3.1992,-3.2041,-3.2051,-3.2041,-3.2041,-3.206,-3.208,-3.1914,-3.168,-3.1738,-3.1894,-3.1914,-3.1904,-3.1953,-3.2031,-3.206,-3.2111,-3.206,-3.2021,-3.2021,-3.2041,-3.209,-3.208,-3.2554,-3.3145,-3.4,-3.4948,-3.5786,-3.6376,-3.7008,-3.7592,-3.7833,-3.7722,-3.7702,-3.7737,-3.7487,-3.7272,-3.7446,-3.7851,-3.1377,-3.1377,-3.1377,-3.1377,-3.1377,-3.1377,-3.1377,-3.1377,-3.1377,-3.1377,-3.1249,-3.0797,-3.0157,-2.9635,-2.9961,-3.0287,-3.0287,-3.0287,-3.0741,-3.1249,-3.1644,-3.191,-3.2102,-3.2476,-3.2794,-3.3175,-3.3175,-3.3292,-3.3355,-3.3418,-3.3418,-3.3418,-3.3418,-3.3418,-3.3418,-3.3418,-3.3418,-3.3418,-3.3418,-3.3418,-3.3418,-3.3418,-3.3418,-3.3398,-3.3418,-3.3418,-3.3369,-3.3154,-3.2959,-3.2891,-3.2734,-3.2539,-3.2373,-3.249,-3.248,-3.2422,-3.2363,-3.248,-3.2373,-3.2275,-3.2207,-3.2229,-3.2229,-3.2111,-3.2121,-3.1836,-3.168,-3.1689,-3.1875,-3.1885,-3.1934,-3.2275,-3.2402,-3.2471,-3.248,-3.2402,-3.2373,-3.249,-3.251,-3.2451,-3.248,-3.2578,-3.2588,-3.2568,-3.2461,-3.2405,-3.2344,-3.2363,-3.2402,-3.2422,-3.25,-3.2588,-3.2617,-3.2617,-3.2598,-3.2529,-3.248,-3.2412,-3.2402,-3.2767,-3.3457,-3.3983,-3.4681,-3.5504,-3.6147,-3.633,-3.6611,-3.737,-3.8041,-3.7631,-3.7347,-3.7496,-3.7542,-3.7622,-3.7724,-3.1377,-3.1377,-3.1377,-3.1377,-3.1377,-3.1377,-3.1377,-3.1377,-3.1377,-3.1377,-3.1313,-3.1249,-3.0473,-2.9765,-2.9961,-3.0287,-3.0287,-3.0287,-3.0741,-3.1184,-3.1442,-3.158,-3.1772,-3.2038,-3.223,-3.254,-3.2858,-3.3175,-3.3364,-3.3364,-3.3355,-3.3418,-3.3418,-3.3418,-3.3418,-3.3418,-3.3418,-3.3418,-3.3418,-3.3418,-3.3418,-3.3418,-3.3418,-3.3418,-3.3418,-3.3418,-3.3418,-3.334,-3.3301,-3.3281,-3.3193,-3.3047,-3.2842,-3.2988,-3.2969,-3.2861,-3.2998,-3.3096,-3.3037,-3.2656,-3.2336,-3.2258,-3.2246,-3.2353,-3.2383,-3.2226,-3.2129,-3.2148,-3.2324,-3.2519,-3.2715,-3.2998,-3.2959,-3.29,-3.2871,-3.2881,-3.29,-3.3037,-3.3037,-3.291,-3.29,-3.2969,-3.2988,-3.2949,-3.29,-3.2773,-3.2764,-3.2793,-3.2978,-3.3037,-3.3125,-3.3203,-3.3232,-3.3252,-3.3271,-3.3174,-3.2988,-3.2949,-3.2959,-3.3378,-3.3933,-3.4368,-3.4575,-3.4984,-3.561,-3.5628,-3.5741,-3.6459,-3.6969,-3.6922,-3.6981,-3.7424,-3.7538,-3.7492,-3.7586,-3.1377,-3.1377,-3.1377,-3.1377,-3.1377,-3.1377,-3.1377,-3.1377,-3.1377,-3.112,-3.0732,-3.112,-3.0602,-2.9822,-2.9961,-3.0287,-3.0287,-3.0287,-3.0806,-3.1258,-3.1589,-3.1717,-3.1855,-3.1974,-3.2294,-3.2422,-3.2731,-3.2921,-3.3048,-3.3301,-3.3355,-3.3418,-3.3418,-3.3418,-3.3418,-3.3418,-3.3418,-3.3418,-3.3418,-3.3418,-3.3418,-3.3418,-3.3418,-3.3418,-3.3418,-3.3418,-3.3418,-3.3418,-3.3418,-3.3418,-3.3418,-3.3291,-3.3184,-3.335,-3.3301,-3.3164,-3.335,-3.3398,-3.3418,-3.3105,-3.2959,-3.293,-3.2949,-3.291,-3.2822,-3.2705,-3.2588,-3.2617,-3.2695,-3.2842,-3.2851,-3.3144,-3.331,-3.3262,-3.3242,-3.3252,-3.3291,-3.3369,-3.3359,-3.3144,-3.3193,-3.3281,-3.3291,-3.3301,-3.3252,-3.3203,-3.3203,-3.3213,-3.334,-3.3418,-3.3418,-3.3418,-3.3418,-3.3418,-3.3418,-3.3418,-3.3418,-3.3418,-3.3418,-3.367,-3.3975,-3.4278,-3.4541,-3.4839,-3.5046,-3.518,-3.5375,-3.5697,-3.6039,-3.6453,-3.7052,-3.7665,-3.7643,-3.7322,-3.7233,-3.1377,-3.1377,-3.1377,-3.1377,-3.1377,-3.1377,-3.1377,-3.1377,-3.1377,-3.0991,-3.0352,-3.0991,-3.0732,-3.0026,-3.0352,-3.0676,-3.0676,-3.0741,-3.1,-3.1322,-3.158,-3.1717,-3.1846,-3.191,-3.2038,-3.2294,-3.2485,-3.2613,-3.2921,-3.3175,-3.3292,-3.3355,-3.3418,-3.3418,-3.3418,-3.3418,-3.3418,-3.3418,-3.3418,-3.3418,-3.3418,-3.3418,-3.3418,-3.3418,-3.3418,-3.3418,-3.3418,-3.3418,-3.3418,-3.3418,-3.3418,-3.3418,-3.3408,-3.3418,-3.3418,-3.3418,-3.3418,-3.3418,-3.3418,-3.3418,-3.3418,-3.331,-3.333,-3.335,-3.333,-3.3144,-3.2998,-3.2978,-3.2998,-3.2978,-3.2978,-3.3271,-3.3418,-3.334,-3.334,-3.3359,-3.3359,-3.3408,-3.3408,-3.335,-3.3408,-3.3408,-3.3398,-3.3379,-3.3359,-3.333,-3.332,-3.331,-3.3359,-3.3418,-3.3418,-3.3418,-3.3418,-3.3418,-3.3418,-3.3418,-3.3418,-3.3418,-3.3418,-3.3418,-3.367,-3.3985,-3.41,-3.4173,-3.436,-3.4673,-3.485,-3.4913,-3.5529,-3.6276,-3.6803,-3.727,-3.703,-3.6719,-3.6553,-3.1377,-3.1377,-3.1377,-3.1377,-3.1377,-3.1377,-3.1377,-3.1377,-3.1377,-3.1055,-3.0546,-3.112,-3.1064,-3.0538,-3.0991,-3.1184,-3.1184,-3.1249,-3.1313,-3.1377,-3.1442,-3.1442,-3.1506,-3.158,-3.1846,-3.1855,-3.2111,-3.2485,-3.2921,-3.2985,-3.3102,-3.3355,-3.3418,-3.3418,-3.3418,-3.3418,-3.3418,-3.3418,-3.3418,-3.3418,-3.3418,-3.3418,-3.3418,-3.3418,-3.3418,-3.3418,-3.3418,-3.3418,-3.3418,-3.3418,-3.3418,-3.3418,-3.3418,-3.3418,-3.3418,-3.3418,-3.3418,-3.3418,-3.3418,-3.3418,-3.3418,-3.3418,-3.3418,-3.3418,-3.3418,-3.3369,-3.332,-3.3242,-3.3301,-3.334,-3.3379,-3.3408,-3.3408,-3.3418,-3.3418,-3.3418,-3.3418,-3.3418,-3.3418,-3.3418,-3.3418,-3.3418,-3.3418,-3.3408,-3.3408,-3.3398,-3.3408,-3.3418,-3.3418,-3.3418,-3.3418,-3.3418,-3.3418,-3.3418,-3.3418,-3.3418,-3.3418,-3.3418,-3.3418,-3.3418,-3.3418,-3.3607,-3.3607,-3.3544,-3.3733,-3.4047,-3.4047,-3.4027,-3.4859,-3.5665,-3.6106,-3.6441,-3.6228,-3.6116,-3.5972,-3.1377,-3.1377,-3.1377,-3.1377,-3.1377,-3.1377,-3.1377,-3.1377,-3.1377,-3.1249,-3.112,-3.1313,-3.1313,-3.1175,-3.1175,-3.1377,-3.1377,-3.1377,-3.1377,-3.1377,-3.1442,-3.1377,-3.1442,-3.1644,-3.1782,-3.1919,-3.2111,-3.2422,-3.2921,-3.2921,-3.3102,-3.3355,-3.3418,-3.3418,-3.3418,-3.3418,-3.3418,-3.3418,-3.3418,-3.3418,-3.3418,-3.3418,-3.3418,-3.3418,-3.3418,-3.3418,-3.3418,-3.3418,-3.3418,-3.3418,-3.3418,-3.3418,-3.3418,-3.3418,-3.3418,-3.3418,-3.3418,-3.3418,-3.3418,-3.3418,-3.3418,-3.3418,-3.3418,-3.3418,-3.3418,-3.3418,-3.3418,-3.3418,-3.3418,-3.3418,-3.3408,-3.3408,-3.3418,-3.3418,-3.3418,-3.3418,-3.3418,-3.3418,-3.3418,-3.3418,-3.3418,-3.3418,-3.3418,-3.3418,-3.3418,-3.3418,-3.3418,-3.3418,-3.3418,-3.3418,-3.3418,-3.3418,-3.3418,-3.3418,-3.3418,-3.3418,-3.3418,-3.3418,-3.3418,-3.3418,-3.3418,-3.3418,-3.3418,-3.3481,-3.3418,-3.3418,-3.3607,-3.3869,-3.436,-3.4922,-3.5294,-3.5675,-3.5675,-3.5552,-3.5356,-3.1377,-3.1377,-3.1377,-3.1377,-3.1377,-3.1377,-3.1377,-3.1377,-3.1377,-3.1377,-3.1377,-3.1377,-3.1377,-3.1377,-3.1377,-3.1377,-3.1377,-3.1377,-3.1377,-3.1442,-3.158,-3.158,-3.1717,-3.191,-3.2038,-3.2175,-3.2294,-3.254,-3.2858,-3.2921,-3.3111,-3.3292,-3.3418,-3.3418,-3.3418,-3.3418,-3.3418,-3.3418,-3.3418,-3.3418,-3.3418,-3.3418,-3.3418,-3.3418,-3.3418,-3.3418,-3.3418,-3.3418,-3.3418,-3.3418,-3.3418,-3.3418,-3.3418,-3.3418,-3.3418,-3.3418,-3.3418,-3.3418,-3.3418,-3.3418,-3.3418,-3.3418,-3.3418,-3.3418,-3.3418,-3.3418,-3.3418,-3.3418,-3.3418,-3.3418,-3.3418,-3.3418,-3.3418,-3.3418,-3.3418,-3.3418,-3.3418,-3.3418,-3.3418,-3.3418,-3.3418,-3.3418,-3.3418,-3.3418,-3.3418,-3.3418,-3.3418,-3.3418,-3.3418,-3.3418,-3.3418,-3.3418,-3.3418,-3.3418,-3.3418,-3.3418,-3.3418,-3.3418,-3.3418,-3.3418,-3.3418,-3.3418,-3.3418,-3.3418,-3.3418,-3.3418,-3.3491,-3.3743,-3.4047,-3.4173,-3.436,-3.4673,-3.4984,-3.4859,-3.4662,-3.1442,-3.1442,-3.1377,-3.1377,-3.1442,-3.1442,-3.1442,-3.1442,-3.1377,-3.1377,-3.1377,-3.1377,-3.1377,-3.1377,-3.1377,-3.1377,-3.1377,-3.1377,-3.1442,-3.1515,-3.1717,-3.1846,-3.2047,-3.2239,-3.2358,-3.2422,-3.2485,-3.2667,-3.2921,-3.2985,-3.3175,-3.3292,-3.3418,-3.3418,-3.3418,-3.3418,-3.3418,-3.3418,-3.3418,-3.3418,-3.3418,-3.3418,-3.3418,-3.3418,-3.3418,-3.3418,-3.3418,-3.3418,-3.3418,-3.3418,-3.3418,-3.3418,-3.3418,-3.3418,-3.3418,-3.3418,-3.3418,-3.3418,-3.3418,-3.3418,-3.3418,-3.3418,-3.3418,-3.3418,-3.3418,-3.3418,-3.3418,-3.3418,-3.3418,-3.3418,-3.3418,-3.3418,-3.3418,-3.3418,-3.3418,-3.3418,-3.3418,-3.3418,-3.3418,-3.3418,-3.3418,-3.3418,-3.3418,-3.3418,-3.3418,-3.3418,-3.3418,-3.3418,-3.3418,-3.3418,-3.3418,-3.3418,-3.3418,-3.3418,-3.3418,-3.3418,-3.3418,-3.3418,-3.3418,-3.3418,-3.3418,-3.3418,-3.3418,-3.3418,-3.3418,-3.3418,-3.3481,-3.3481,-3.3481,-3.3607,-3.3796,-3.3985,-3.436,-3.4047,-3.3786,-3.1717,-3.1708,-3.1515,-3.1515,-3.1717,-3.1717,-3.1644,-3.1442,-3.1377,-3.1377,-3.1377,-3.1377,-3.1442,-3.1377,-3.1377,-3.1442,-3.1442,-3.1442,-3.158,-3.1717,-3.191,-3.2102,-3.2294,-3.2549,-3.274,-3.2731,-3.2794,-3.2921,-3.3165,-3.3228,-3.3228,-3.3355,-3.3418,-3.3418,-3.3418,-3.3418,-3.3418,-3.3418,-3.3418,-3.3418,-3.3418,-3.3418,-3.3418,-3.3418,-3.3418,-3.3418,-3.3418,-3.3418,-3.3418,-3.3418,-3.3418,-3.3418,-3.3418,-3.3418,-3.3418,-3.3418,-3.3418,-3.3418,-3.3418,-3.3418,-3.3418,-3.3418,-3.3418,-3.3418,-3.3418,-3.3418,-3.3418,-3.3418,-3.3418,-3.3418,-3.3418,-3.3418,-3.3418,-3.3418,-3.3418,-3.3418,-3.3418,-3.3418,-3.3418,-3.3418,-3.3418,-3.3418,-3.3418,-3.3418,-3.3418,-3.3418,-3.3418,-3.3418,-3.3418,-3.3418,-3.3418,-3.3418,-3.3418,-3.3418,-3.3418,-3.3418,-3.3418,-3.3418,-3.3418,-3.3418,-3.3418,-3.3418,-3.3418,-3.3418,-3.3418,-3.3418,-3.3418,-3.3418,-3.3418,-3.3418,-3.3544,-3.3607,-3.3607,-3.3481,-3.3418,-3.2111,-3.2038,-3.191,-3.191,-3.2111,-3.2102,-3.1965,-3.1763,-3.1515,-3.1442,-3.158,-3.1442,-3.1451,-3.1589,-3.1644,-3.1708,-3.1827,-3.1891,-3.1965,-3.2038,-3.223,-3.2422,-3.2667,-3.2921,-3.3048,-3.3102,-3.3102,-3.3175,-3.3355,-3.3418,-3.3418,-3.3418,-3.3418,-3.3418,-3.3418,-3.3418,-3.3418,-3.3418,-3.3418,-3.3418,-3.3418,-3.3418,-3.3418,-3.3418,-3.3418,-3.3418,-3.3418,-3.3418,-3.3418,-3.3418,-3.3418,-3.3418,-3.3418,-3.3418,-3.3418,-3.3418,-3.3418,-3.3418,-3.3418,-3.3418,-3.3418,-3.3418,-3.3418,-3.3418,-3.3418,-3.3418,-3.3418,-3.3418,-3.3418,-3.3418,-3.3418,-3.3418,-3.3418,-3.3418,-3.3418,-3.3418,-3.3418,-3.3418,-3.3418,-3.3418,-3.3418,-3.3418,-3.3418,-3.3418,-3.3418,-3.3418,-3.3418,-3.3418,-3.3418,-3.3418,-3.3418,-3.3418,-3.3418,-3.3418,-3.3418,-3.3418,-3.3418,-3.3418,-3.3418,-3.3418,-3.3418,-3.3418,-3.3418,-3.3418,-3.3418,-3.3418,-3.3418,-3.3418,-3.3418,-3.3418,-3.3418,-3.3481,-3.3481,-3.3418,-3.3418,-3.2422,-3.2412,-3.2422,-3.2422,-3.2422,-3.2422,-3.2485,-3.2412,-3.1827,-3.1644,-3.1855,-3.1644,-3.1708,-3.191,-3.1974,-3.2102,-3.2166,-3.223,-3.2284,-3.2422,-3.2603,-3.2794,-3.2985,-3.3238,-3.3292,-3.3355,-3.3355,-3.3292,-3.3355,-3.3418,-3.3418,-3.3418,-3.3418,-3.3418,-3.3418,-3.3418,-3.3418,-3.3418,-3.3418,-3.3418,-3.3418,-3.3418,-3.3418,-3.3418,-3.3418,-3.3418,-3.3418,-3.3418,-3.3418,-3.3418,-3.3418,-3.3418,-3.3418,-3.3418,-3.3418,-3.3418,-3.3418,-3.3418,-3.3418,-3.3418,-3.3418,-3.3418,-3.3418,-3.3418,-3.3418,-3.3418,-3.3418,-3.3418,-3.3418,-3.3418,-3.3418,-3.3418,-3.3418,-3.3418,-3.3418,-3.3418,-3.3418,-3.3418,-3.3418,-3.3418,-3.3418,-3.3418,-3.3418,-3.3418,-3.3418,-3.3418,-3.3418,-3.3418,-3.3418,-3.3418,-3.3418,-3.3418,-3.3418,-3.3418,-3.3418,-3.3418,-3.3418,-3.3418,-3.3418,-3.3418,-3.3418,-3.3418,-3.3418,-3.3418,-3.3418,-3.3418,-3.3418,-3.3418,-3.3418,-3.3418,-3.3418,-3.3418,-3.3418,-3.3418,-3.3418,-3.2794,-3.2804,-3.2794,-3.2794,-3.2804,-3.2804,-3.2921,-3.3111,-3.2476,-3.2221,-3.223,-3.223,-3.2166,-3.223,-3.2294,-3.2358,-3.2422,-3.2549,-3.2613,-3.274,-3.2921,-3.3048,-3.3238,-3.3355,-3.3418,-3.3418,-3.3418,-3.3418,-3.3418,-3.3418,-3.3418,-3.3418,-3.3418,-3.3418,-3.3418,-3.3418,-3.3418,-3.3418,-3.3418,-3.3418,-3.3418,-3.3418,-3.3418,-3.3418,-3.3418,-3.3418,-3.3418,-3.3418,-3.3418,-3.3418,-3.3418,-3.3418,-3.3418,-3.3418,-3.3418,-3.3418,-3.3418,-3.3418,-3.3418,-3.3418,-3.3418,-3.3418,-3.3418,-3.3418,-3.3418,-3.3418,-3.3418,-3.3418,-3.3418,-3.3418,-3.3418,-3.3418,-3.3418,-3.3418,-3.3418,-3.3418,-3.3418,-3.3418,-3.3418,-3.3418,-3.3418,-3.3418,-3.3418,-3.3418,-3.3418,-3.3418,-3.3418,-3.3418,-3.3418,-3.3418,-3.3418,-3.3418,-3.3418,-3.3418,-3.3418,-3.3418,-3.3418,-3.3418,-3.3418,-3.3418,-3.3418,-3.3418,-3.3418,-3.3418,-3.3418,-3.3418,-3.3418,-3.3418,-3.3418,-3.3418,-3.3418,-3.3418,-3.3418,-3.3418,-3.3418,-3.3111,-3.3102,-3.3111,-3.3111,-3.3111,-3.3102,-3.3228,-3.3292,-3.2985,-3.2858,-3.2794,-3.2613,-3.2485,-3.2603,-3.2603,-3.2731,-3.2794,-3.2858,-3.2985,-3.3111,-3.3111,-3.3228,-3.3355,-3.3418,-3.3418,-3.3418,-3.3418,-3.3418,-3.3418,-3.3418,-3.3418,-3.3418,-3.3418,-3.3418,-3.3418,-3.3418,-3.3418,-3.3418,-3.3418,-3.3418,-3.3418,-3.3418,-3.3418,-3.3418,-3.3418,-3.3418,-3.3418,-3.3418,-3.3418,-3.3418,-3.3418,-3.3418,-3.3418,-3.3418,-3.3418,-3.3418,-3.3418,-3.3418,-3.3418,-3.3418,-3.3418,-3.3418,-3.3418,-3.3418,-3.3418,-3.3418,-3.3418,-3.3418,-3.3418,-3.3418,-3.3418,-3.3418,-3.3418,-3.3418,-3.3418,-3.3418,-3.3418,-3.3418,-3.3418,-3.3418,-3.3418,-3.3418,-3.3418,-3.3418,-3.3418,-3.3418,-3.3418,-3.3418,-3.3418,-3.3418,-3.3418,-3.3418,-3.3418,-3.3418,-3.3418,-3.3418,-3.3418,-3.3418,-3.3418,-3.3418,-3.3418,-3.3418,-3.3418,-3.3418,-3.3418,-3.3418,-3.3418,-3.3418,-3.3418,-3.3418,-3.3418,-3.3418,-3.3418,-3.3418,-3.3418,-3.3355,-3.3418,-3.3355,-3.3355,-3.3418,-3.3355,-3.3355,-3.3355,-3.3355,-3.3355,-3.3292,-3.2794,-3.2731,-3.2858,-3.2985,-3.3165,-3.3292,-3.3228,-3.3355,-3.3355,-3.3355,-3.3355,-3.3355,-3.3418,-3.3418,-3.3418,-3.3418,-3.3418,-3.3418,-3.3418,-3.3418,-3.3418,-3.3418,-3.3418,-3.3418,-3.3418,-3.3418,-3.3418,-3.3418,-3.3418,-3.3418,-3.3418,-3.3418,-3.3418,-3.3418,-3.3418,-3.3418,-3.3418,-3.3418,-3.3418,-3.3418,-3.3418,-3.3418,-3.3418,-3.3418,-3.3418,-3.3418,-3.3418,-3.3418,-3.3418,-3.3418,-3.3418,-3.3418,-3.3418,-3.3418,-3.3418,-3.3418,-3.3418,-3.3418,-3.3418,-3.3418,-3.3418,-3.3418,-3.3418,-3.3418,-3.3418,-3.3418,-3.3418,-3.3418,-3.3418,-3.3418,-3.3418,-3.3418,-3.3418,-3.3418,-3.3418,-3.3418,-3.3418,-3.3418,-3.3418,-3.3418,-3.3418,-3.3418,-3.3418,-3.3418,-3.3418,-3.3418,-3.3418,-3.3418,-3.3418,-3.3418,-3.3418,-3.3418,-3.3418,-3.3418,-3.3418,-3.3418,-3.3418,-3.3418,-3.3418,-3.3418,-3.3418,-3.3418,-3.3418,-3.3418,-3.3418,-3.3418,-3.3418,-3.3418,-3.3418,-3.3418,-3.3418,-3.3418,-3.3418,-3.3418,-3.3355,-3.3355,-3.3292,-3.3292,-3.3292,-3.3355,-3.3355,-3.3418,-3.3418,-3.3355,-3.3418,-3.3418,-3.3418,-3.3418,-3.3418,-3.3418,-3.3418,-3.3418,-3.3418,-3.3418,-3.3418,-3.3418,-3.3418,-3.3418,-3.3418,-3.3418,-3.3418,-3.3418,-3.3418,-3.3418,-3.3418,-3.3418,-3.3418,-3.3418,-3.3418,-3.3418,-3.3418,-3.3418,-3.3418,-3.3418,-3.3418,-3.3418,-3.3418,-3.3418,-3.3418,-3.3418,-3.3418,-3.3418,-3.3418,-3.3418,-3.3418,-3.3418,-3.3418,-3.3418,-3.3418,-3.3418,-3.3418,-3.3418,-3.3418,-3.3418,-3.3418,-3.3418,-3.3418,-3.3418,-3.3418,-3.3418,-3.3418,-3.3418,-3.3418,-3.3418,-3.3418,-3.3418,-3.3418,-3.3418,-3.3418,-3.3418,-3.3418,-3.3418,-3.3418,-3.3418,-3.3418,-3.3418,-3.3418,-3.3418,-3.3418,-3.3418,-3.3418,-3.3418,-3.3418,-3.3418,-3.3418,-3.3418,-3.3418,-3.3418,-3.3418,-3.3418,-3.3418,-3.3418,-3.3418,-3.3418,-3.3418,-3.3418,-3.3418,-3.3418,-3.3418]},{"header":{"parameterUnit":"m.s-1","parameterCategory":1,"la1":31.0,"la2":29.5877,"lo1":-88.7671,"lo2":-86.6584,"dy":0.0162,"dx":0.0185,"nx":115,"ny":88,"refTime":"2024-02-29T06:00:00:Z","depth":0,"parameterNumber":3,"parameterNumberName":"V-component_of_WINDS"},"data":[0.0,0.0,0.0,0.0,0.0,0.0,0.0,0.0,0.0,0.0,0.0,0.0,0.0,0.0,0.0,0.0,0.0,0.0,0.0,0.0,0.0,0.0,0.0,0.0,0.0,0.0,0.0,0.0,0.0,0.0,0.0,0.0,0.0,0.0,0.0,0.0,0.0,0.0,0.0,0.0,0.0,0.0,0.0,0.0,0.0,0.0,0.0,0.0,0.0,0.0,0.0,0.0,0.0,0.0,0.0,0.0,0.0,0.0,0.0,0.0,0.0,0.0,0.0,0.0,0.0,0.0,0.0,0.0,0.0,0.0,0.0,0.0,0.0,0.0,0.0,0.0,0.0,0.0,0.0,0.0,0.0,0.0,0.0,0.0,0.0,0.0,0.0,0.0,0.0,0.0,0.0,0.0,0.0,0.0,0.0,0.0,0.0,0.0,0.0,0.0,0.0,0.0,0.0,0.0,0.0,0.0,0.0,0.0,0.0,0.0,0.0,0.0,0.0,0.0,0.0,0.0,0.0,0.0,0.0,0.0,0.0,0.0,0.0,0.0,0.0,0.0,0.0,0.0,0.0,0.0,0.0,0.0,0.0,0.0,0.0,0.0,0.0,0.0,0.0,0.0,0.0,0.0,0.0,0.0,0.0,0.0,0.0,0.0,0.0,0.0,0.0,0.0,0.0,0.0,0.0,0.0,0.0,0.0,0.0,0.0,0.0,0.0,0.0,0.0,0.0,0.0,0.0,0.0,0.0,0.0,0.0,0.0,0.0,0.0,0.0,0.0,0.0,0.0,0.0,0.0,0.0,0.0,0.0,0.0,0.0,0.0,0.0,0.0,0.0,0.0,0.0,0.0,0.0,0.0,0.0,0.0,0.0,0.0,0.0,0.0,0.0,0.0,0.0,0.0,0.0,0.0,0.0,0.0,0.0,0.0,0.0,0.0,0.0,0.0,0.0,0.0,0.0,0.0,0.0,0.0,0.0,0.0,0.0,0.0,0.0,0.0,0.0,0.0,0.0,0.0,0.0,0.0,0.0,0.0,0.0,0.0,0.0,0.0,0.0,0.0,0.0,0.0,0.0,0.0,0.0,0.0,0.0,0.0,0.0,0.0,0.0,0.0,0.0,0.0,0.0,0.0,0.0,0.0,0.0,0.0,0.0,0.0,0.0,0.0,0.0,0.0,0.0,0.0,0.0,0.0,0.0,0.0,0.0,0.0,0.0,0.0,0.0,0.0,0.0,0.0,0.0,0.0,0.0,0.0,0.0,0.0,0.0,0.0,0.0,0.0,0.0,0.0,0.0,0.0,0.0,0.0,0.0,0.0,0.0,0.0,0.0,0.0,0.0,0.0,0.0,0.0,0.0,0.0,0.0,0.0,0.0,0.0,0.0,0.0,0.0,0.0,0.0,0.0,0.0,0.0,0.0,0.0,0.0,0.0,0.0,0.0,0.0,0.0,0.0,0.0,0.0,0.0,0.0,0.0,0.0,0.0,0.0,0.0,0.0,0.0,0.0,0.0,0.0,0.0,0.0,0.0,0.0,0.0,0.0,0.0,0.0,0.0,0.0,0.0,0.0,0.0,0.0,0.0,0.0,0.0,0.0,0.0,0.0,0.0,0.0,0.0,0.0,0.0,0.0,0.0,0.0,0.0,0.0,0.0,0.0,0.0,0.0,0.0,0.0,0.0,0.0,0.0,0.0,0.0,0.0,0.0,0.0,0.0,0.0,0.0,0.0,0.0,0.0,0.0,0.0,0.0,0.0,0.0,0.0,0.0,0.0,0.0,0.0,0.0,0.0,0.0,0.0,0.0,0.0,0.0,0.0,0.0,0.0,0.0,0.0,0.0,0.0,0.0,0.0,0.0,0.0,0.0,0.0,0.0,0.0,0.0,0.0,0.0,0.0,0.0,0.0,0.0,0.0,0.0,0.0,0.0,0.0,0.0,0.0,0.0,0.0,0.0,0.0,0.0,0.0,0.0,0.0,0.0,0.0,0.0,0.0,0.0,0.0,0.0,0.0,0.0,0.0,0.0,0.0,0.0,0.0,0.0,0.0,0.0,0.0,0.0,0.0,0.0,0.0,0.0,0.0,0.0,0.0,0.0,0.0,0.0,0.0,0.0,0.0,0.0,0.0,0.0,0.0,0.0,0.0,0.0,0.0,0.0,0.0,0.0,0.0,0.0,0.0,0.0,0.0,0.0,0.0,0.0,0.0,0.0,0.0,0.0,0.0,0.0,0.0,0.0,0.0,0.0,0.0,0.0,0.0,0.0,0.0,0.0,0.0,0.0,0.0,0.0,0.0,0.0,0.0,0.0,0.0,0.0,0.0,0.0,0.0,0.0,0.0,0.0,0.0,0.0,0.0,0.0,0.0,0.0,0.0,0.0,0.0,0.0,0.0,0.0,0.0,0.0,0.0,0.0,0.0,0.0,0.0,0.0,0.0,0.0,0.0,0.0,0.0,0.0,0.0,0.0,0.0,0.0,0.0,0.0,0.0,0.0,0.0,0.0,0.0,0.0,0.0,0.0,0.0,0.0,0.0,0.0,0.0,0.0,0.0,0.0,0.0,0.0,0.0,0.0,0.0,0.0,0.0,0.0,0.0,0.0,0.0,0.0,0.0,0.0,0.0,0.0,0.0,0.0,0.0,0.0,0.0,0.0,0.0,0.0,0.0,0.0,0.0,0.0,0.0,0.0,0.0,0.0,0.0,0.0,0.0,0.0,0.0,0.0,0.0,0.0,0.0,0.0,0.0,0.0,0.0,0.0,0.0,0.0,0.0,0.0,0.0,0.0,0.0,0.0,0.0,0.0,0.0,0.0,0.0,0.0,0.0,0.0,0.0,0.0,0.0,0.0,0.0,0.0,0.0,0.0,0.0,0.0,0.0,0.0,0.0,0.0,0.0,0.0,0.0,0.0,0.0,0.0,0.0,0.0,0.0,0.0,0.0,0.0,0.0,0.0,0.0,0.0,0.0,0.0,0.0,0.0,0.0,0.0,0.0,0.0,0.0,0.0,0.0,0.0,0.0,0.0,0.0,0.0,0.0,0.0,0.0,0.0,0.0,0.0,0.0,0.0,0.0,0.0,0.0,0.0,0.0,0.0,0.0,0.0,0.0,0.0,0.0,0.0,0.0,0.0,0.0,0.0,0.0,0.0,0.0,0.0,0.0,0.0,0.0,0.0,0.0,0.0,0.0,0.0,0.0,0.0,0.0,0.0,0.0,0.0,0.0,0.0,0.0,0.0,0.0,0.0,0.0,0.0,0.0,0.0,0.0,0.0,0.0,0.0,0.0,0.0,0.0,0.0,0.0,0.0,0.0,0.0,0.0,0.0,0.0,0.0,0.0,0.0,0.0,0.0,0.0,0.0,0.0,0.0,0.0,0.0,0.0,0.0,0.0,0.0,0.0,0.0,0.0,0.0,0.0,0.0,0.0,0.0,0.0,0.0,0.0,0.0,0.0,0.0,0.0,0.0,0.0,0.0,0.0,0.0,0.0,0.0,0.0,0.0,0.0,0.0,0.0,0.0,0.0,0.0,0.0,0.0,0.0,0.0,0.0,0.0,0.0,0.0,0.0,0.0,0.0,0.0,0.0,0.0,0.0,0.0,0.0,0.0,0.0,0.0,0.0,0.0,0.0,0.0,0.0,0.0,0.0,0.0,0.0,0.0,0.0,0.0,0.0,0.0,0.0,0.0,0.0,0.0,0.0,0.0,0.0,0.0,0.0,0.0,0.0,0.0,0.0,0.0,0.0,0.0,0.0,0.0,0.0,0.0,0.0,0.0,0.0,0.0,0.0,0.0,0.0,0.0,0.0,0.0,0.0,0.0,0.0,0.0,0.0,0.0,0.0,0.0,0.0,0.0,0.0,0.0,0.0,0.0,0.0,0.0,0.0,0.0,0.0,0.0,0.0,0.0,0.0,0.0,0.0,0.0,0.0,0.0,0.0,0.0,0.0,0.0,0.0,0.0,0.0,0.0,0.0,0.0,0.0,0.0,0.0,0.0,0.0,0.0,0.0,0.0,0.0,0.0,0.0,0.0,0.0,0.0,0.0,0.0,0.0,0.0,0.0,0.0,0.0,0.0,0.0,0.0,0.0,0.0,0.0,0.0,0.0,0.0,0.0,0.0,0.0,0.0,0.0,0.0,0.0,0.0,0.0,0.0,0.0,0.0,0.0,0.0,0.0,0.0,0.0,0.0,0.0,0.0,0.0,0.0,0.0,0.0,0.0,0.0,0.0,0.0,0.0,0.0,0.0,0.0,0.0,0.0,0.0,0.0,2.6287,0.0,0.0,0.0,0.0,0.0,0.0,0.0,0.0,0.0,0.0,0.0,0.0,0.0,0.0,0.0,0.0,0.0,0.0,0.0,0.0,0.0,0.0,0.0,0.0,0.0,0.0,0.0,0.0,0.0,0.0,0.0,0.0,0.0,0.0,0.0,0.0,0.0,0.0,0.0,0.0,0.0,0.0,0.0,0.0,0.0,0.0,0.0,0.0,0.0,0.0,0.0,0.0,0.0,0.0,0.0,0.0,0.0,0.0,0.0,0.0,0.0,0.0,0.0,0.0,0.0,0.0,0.0,0.0,0.0,0.0,0.0,0.0,0.0,0.0,0.0,0.0,0.0,0.0,0.0,0.0,0.0,0.0,0.0,0.0,0.0,0.0,0.0,0.0,0.0,0.0,0.0,0.0,0.0,0.0,0.0,0.0,0.0,0.0,0.0,0.0,0.0,0.0,0.0,0.0,0.0,0.0,0.0,0.0,0.0,0.0,2.8258,2.769,2.7174,2.6765,2.6562,0.0,0.0,0.0,0.0,0.0,0.0,0.0,0.0,0.0,0.0,0.0,0.0,0.0,0.0,0.0,0.0,0.0,0.0,0.0,0.0,0.0,0.0,0.0,0.0,0.0,0.0,0.0,0.0,0.0,0.0,0.0,0.0,0.0,0.0,0.0,0.0,0.0,0.0,0.0,0.0,0.0,0.0,0.0,0.0,0.0,0.0,0.0,0.0,0.0,0.0,0.0,0.0,0.0,0.0,0.0,0.0,0.0,0.0,0.0,0.0,0.0,0.0,0.0,0.0,0.0,0.0,0.0,0.0,0.0,0.0,0.0,0.0,0.0,0.0,0.0,0.0,0.0,0.0,0.0,0.0,0.0,0.0,0.0,0.0,0.0,0.0,0.0,0.0,0.0,0.0,0.0,0.0,0.0,0.0,0.0,0.0,0.0,0.0,0.0,0.0,0.0,0.0,0.0,0.0,0.0,0.0,0.0,0.0,0.0,0.0,0.0,0.0,2.7298,2.689,2.6686,0.0,0.0,0.0,0.0,0.0,0.0,0.0,0.0,0.0,0.0,0.0,0.0,0.0,0.0,0.0,0.0,0.0,0.0,0.0,0.0,0.0,0.0,0.0,0.0,0.0,0.0,0.0,0.0,0.0,0.0,0.0,0.0,0.0,0.0,0.0,0.0,0.0,0.0,0.0,0.0,0.0,0.0,0.0,0.0,0.0,0.0,0.0,0.0,0.0,0.0,0.0,0.0,0.0,0.0,0.0,0.0,0.0,0.0,0.0,0.0,0.0,0.0,0.0,0.0,0.0,0.0,0.0,0.0,0.0,0.0,0.0,0.0,0.0,0.0,0.0,0.0,0.0,0.0,0.0,0.0,0.0,0.0,0.0,0.0,0.0,0.0,0.0,0.0,0.0,0.0,0.0,0.0,0.0,0.0,0.0,0.0,0.0,0.0,0.0,0.0,0.0,0.0,0.0,0.0,0.0,0.0,0.0,0.0,0.0,0.0,2.8554,2.8679,2.7695,0.0,2.6086,0.0,0.0,0.0,0.0,0.0,0.0,0.0,0.0,0.0,0.0,0.0,0.0,0.0,0.0,0.0,0.0,0.0,0.0,0.0,0.0,0.0,0.0,0.0,0.0,0.0,0.0,0.0,0.0,0.0,0.0,0.0,0.0,0.0,0.0,0.0,0.0,0.0,0.0,0.0,0.0,0.0,0.0,0.0,0.0,0.0,0.0,0.0,0.0,0.0,0.0,0.0,0.0,0.0,0.0,0.0,0.0,0.0,0.0,0.0,0.0,0.0,0.0,0.0,0.0,0.0,0.0,0.0,0.0,0.0,0.0,0.0,0.0,0.0,0.0,0.0,0.0,0.0,0.0,0.0,0.0,0.0,0.0,0.0,0.0,0.0,0.0,0.0,0.0,0.0,0.0,0.0,0.0,0.0,0.0,0.0,0.0,0.0,0.0,0.0,0.0,0.0,0.0,0.0,0.0,0.0,0.0,0.0,0.0,0.0,0.0,2.8895,2.8973,2.7922,2.7115,0.0,0.0,0.0,0.0,0.0,0.0,0.0,0.0,0.0,0.0,0.0,0.0,0.0,0.0,0.0,0.0,0.0,0.0,0.0,0.0,0.0,0.0,0.0,0.0,0.0,0.0,0.0,0.0,0.0,0.0,0.0,0.0,0.0,0.0,0.0,0.0,0.0,0.0,0.0,0.0,0.0,0.0,0.0,0.0,0.0,0.0,0.0,0.0,0.0,0.0,0.0,0.0,0.0,0.0,0.0,0.0,0.0,0.0,0.0,0.0,0.0,0.0,0.0,0.0,0.0,0.0,0.0,0.0,0.0,0.0,0.0,0.0,0.0,0.0,0.0,0.0,0.0,0.0,0.0,0.0,0.0,0.0,0.0,0.0,0.0,0.0,0.0,0.0,0.0,0.0,0.0,0.0,0.0,0.0,0.0,0.0,0.0,0.0,0.0,0.0,0.0,0.0,0.0,0.0,0.0,0.0,0.0,0.0,0.0,0.0,2.9104,2.9069,2.9001,2.82,2.7591,2.7233,0.0,0.0,0.0,0.0,0.0,0.0,0.0,0.0,0.0,0.0,0.0,0.0,0.0,0.0,0.0,0.0,0.0,0.0,0.0,0.0,0.0,0.0,0.0,0.0,0.0,0.0,0.0,0.0,0.0,0.0,0.0,0.0,0.0,0.0,0.0,0.0,0.0,0.0,0.0,0.0,0.0,0.0,0.0,0.0,0.0,0.0,0.0,0.0,0.0,0.0,0.0,0.0,0.0,0.0,0.0,0.0,0.0,0.0,0.0,0.0,0.0,0.0,0.0,0.0,0.0,0.0,0.0,0.0,0.0,0.0,0.0,0.0,0.0,0.0,0.0,0.0,0.0,0.0,0.0,0.0,0.0,0.0,0.0,0.0,0.0,0.0,0.0,0.0,0.0,0.0,0.0,0.0,0.0,0.0,0.0,0.0,0.0,0.0,0.0,0.0,0.0,0.0,0.0,0.0,0.0,0.0,0.0,0.0,2.9143,2.9143,2.904,2.8938,2.8534,2.8196,0.0,0.0,0.0,0.0,0.0,0.0,0.0,0.0,0.0,0.0,0.0,0.0,0.0,0.0,0.0,0.0,0.0,0.0,0.0,0.0,0.0,0.0,0.0,0.0,0.0,0.0,0.0,0.0,0.0,0.0,0.0,0.0,0.0,0.0,0.0,0.0,0.0,0.0,0.0,0.0,0.0,0.0,0.0,0.0,0.0,0.0,0.0,0.0,0.0,0.0,0.0,0.0,0.0,0.0,0.0,0.0,0.0,0.0,0.0,0.0,0.0,0.0,0.0,0.0,0.0,0.0,0.0,0.0,0.0,0.0,0.0,0.0,0.0,0.0,0.0,0.0,0.0,0.0,0.0,0.0,0.0,0.0,0.0,0.0,0.0,0.0,0.0,0.0,0.0,0.0,0.0,0.0,0.0,0.0,0.0,0.0,0.0,0.0,0.0,0.0,0.0,0.0,0.0,0.0,0.0,0.0,0.0,0.0,0.0,2.9947,2.9947,2.9923,2.9872,2.9374,2.8899,0.0,0.0,0.0,0.0,0.0,0.0,0.0,0.0,0.0,0.0,0.0,0.0,0.0,0.0,0.0,0.0,0.0,0.0,0.0,0.0,0.0,0.0,0.0,0.0,0.0,0.0,0.0,0.0,0.0,0.0,0.0,0.0,0.0,0.0,0.0,0.0,0.0,0.0,0.0,0.0,0.0,0.0,0.0,0.0,0.0,0.0,0.0,0.0,0.0,0.0,0.0,0.0,0.0,0.0,0.0,0.0,0.0,0.0,0.0,0.0,0.0,0.0,0.0,0.0,0.0,0.0,0.0,0.0,0.0,0.0,0.0,0.0,0.0,0.0,0.0,0.0,0.0,0.0,0.0,0.0,0.0,0.0,0.0,0.0,0.0,0.0,0.0,0.0,0.0,0.0,0.0,0.0,0.0,0.0,0.0,0.0,0.0,0.0,0.0,0.0,0.0,0.0,0.0,0.0,0.0,0.0,0.0,0.0,0.0,3.0596,0.0,3.0634,3.0646,3.0128,2.9559,0.0,0.0,0.0,0.0,0.0,0.0,0.0,0.0,0.0,0.0,0.0,0.0,0.0,0.0,0.0,0.0,0.0,0.0,0.0,0.0,0.0,0.0,0.0,0.0,0.0,0.0,0.0,0.0,0.0,0.0,0.0,0.0,0.0,0.0,0.0,0.0,0.0,0.0,0.0,0.0,0.0,0.0,0.0,0.0,0.0,0.0,0.0,0.0,0.0,0.0,0.0,0.0,0.0,0.0,0.0,0.0,0.0,0.0,0.0,0.0,0.0,0.0,0.0,0.0,0.0,0.0,0.0,0.0,0.0,0.0,0.0,0.0,0.0,0.0,0.0,0.0,0.0,0.0,0.0,0.0,0.0,0.0,0.0,0.0,0.0,0.0,0.0,0.0,0.0,0.0,0.0,0.0,0.0,0.0,0.0,0.0,0.0,0.0,0.0,0.0,0.0,0.0,0.0,0.0,0.0,0.0,0.0,0.0,3.0811,3.0986,3.1024,3.1123,3.1296,3.0731,3.0236,0.0,0.0,0.0,0.0,0.0,0.0,0.0,0.0,0.0,0.0,0.0,0.0,0.0,0.0,0.0,0.0,0.0,0.0,0.0,0.0,0.0,0.0,0.0,0.0,0.0,0.0,0.0,0.0,0.0,0.0,0.0,0.0,0.0,0.0,0.0,0.0,0.0,0.0,0.0,0.0,0.0,0.0,0.0,0.0,0.0,0.0,0.0,0.0,0.0,0.0,0.0,0.0,0.0,0.0,0.0,0.0,0.0,0.0,0.0,0.0,0.0,0.0,0.0,0.0,0.0,0.0,0.0,0.0,0.0,0.0,0.0,0.0,0.0,0.0,0.0,0.0,0.0,0.0,0.0,0.0,0.0,0.0,0.0,0.0,0.0,0.0,0.0,0.0,0.0,0.0,0.0,0.0,0.0,0.0,0.0,0.0,0.0,0.0,0.0,0.0,0.0,0.0,0.0,0.0,0.0,0.0,0.0,0.0,0.0,3.1646,3.1703,3.1776,3.185,3.1662,3.1335,0.0,0.0,0.0,0.0,0.0,0.0,0.0,0.0,0.0,0.0,0.0,0.0,0.0,0.0,0.0,0.0,0.0,0.0,0.0,0.0,0.0,0.0,0.0,0.0,0.0,0.0,0.0,0.0,0.0,0.0,0.0,0.0,0.0,0.0,0.0,0.0,0.0,0.0,0.0,0.0,0.0,0.0,0.0,0.0,0.0,0.0,0.0,0.0,0.0,0.0,0.0,0.0,0.0,0.0,0.0,0.0,0.0,0.0,0.0,0.0,0.0,0.0,0.0,0.0,0.0,0.0,0.0,0.0,0.0,0.0,0.0,0.0,0.0,0.0,0.0,0.0,0.0,0.0,0.0,0.0,0.0,0.0,0.0,0.0,0.0,0.0,0.0,0.0,0.0,0.0,0.0,0.0,0.0,0.0,0.0,0.0,0.0,0.0,0.0,0.0,0.0,0.0,0.0,0.0,0.0,0.0,0.0,0.0,0.0,3.3143,3.3152,3.3029,3.2796,3.2809,3.2412,3.1519,0.0,0.0,0.0,0.0,0.0,0.0,0.0,0.0,0.0,0.0,0.0,0.0,0.0,0.0,0.0,0.0,0.0,0.0,0.0,0.0,0.0,0.0,0.0,0.0,0.0,0.0,0.0,0.0,0.0,0.0,0.0,0.0,0.0,0.0,0.0,0.0,0.0,0.0,0.0,0.0,0.0,0.0,0.0,0.0,0.0,0.0,0.0,0.0,0.0,0.0,0.0,0.0,0.0,0.0,0.0,0.0,0.0,0.0,0.0,0.0,0.0,0.0,0.0,0.0,0.0,0.0,0.0,0.0,0.0,0.0,0.0,0.0,0.0,0.0,0.0,0.0,0.0,0.0,0.0,0.0,0.0,0.0,0.0,0.0,0.0,0.0,0.0,0.0,0.0,0.0,0.0,0.0,0.0,0.0,0.0,0.0,0.0,0.0,0.0,0.0,0.0,0.0,0.0,0.0,0.0,0.0,0.0,0.0,3.5319,3.5162,3.4757,3.4128,3.4058,3.3392,0.0,0.0,0.0,0.0,0.0,0.0,0.0,0.0,0.0,0.0,0.0,0.0,0.0,0.0,0.0,0.0,0.0,0.0,0.0,0.0,0.0,0.0,0.0,0.0,0.0,0.0,0.0,0.0,0.0,0.0,0.0,0.0,0.0,0.0,0.0,0.0,0.0,0.0,0.0,0.0,0.0,0.0,0.0,0.0,0.0,0.0,0.0,0.0,0.0,0.0,0.0,0.0,0.0,0.0,0.0,0.0,0.0,0.0,0.0,0.0,0.0,0.0,0.0,0.0,0.0,0.0,0.0,0.0,0.0,0.0,0.0,0.0,0.0,0.0,0.0,0.0,0.0,0.0,0.0,0.0,0.0,0.0,0.0,0.0,0.0,0.0,0.0,0.0,0.0,0.0,0.0,0.0,0.0,0.0,0.0,0.0,0.0,0.0,0.0,0.0,0.0,0.0,0.0,0.0,0.0,0.0,0.0,0.0,0.0,3.6499,3.6896,3.6536,3.5358,3.486,3.4413,0.0,0.0,0.0,0.0,0.0,0.0,0.0,0.0,0.0,0.0,0.0,0.0,0.0,0.0,0.0,0.0,0.0,0.0,0.0,0.0,0.0,0.0,0.0,0.0,0.0,0.0,0.0,0.0,0.0,0.0,0.0,0.0,0.0,0.0,0.0,0.0,0.0,0.0,0.0,0.0,0.0,0.0,0.0,0.0,0.0,0.0,0.0,0.0,0.0,0.0,0.0,0.0,0.0,0.0,0.0,0.0,0.0,0.0,0.0,0.0,0.0,0.0,0.0,0.0,0.0,0.0,0.0,0.0,0.0,0.0,0.0,0.0,0.0,0.0,0.0,0.0,0.0,0.0,0.0,0.0,0.0,0.0,0.0,0.0,0.0,0.0,0.0,0.0,0.0,0.0,0.0,0.0,0.0,0.0,0.0,0.0,0.0,0.0,0.0,0.0,0.0,0.0,0.0,0.0,0.0,0.0,0.0,0.0,3.6337,3.7368,3.7803,3.7644,3.6849,3.5834,3.5146,0.0,0.0,0.0,0.0,0.0,0.0,0.0,0.0,0.0,0.0,0.0,0.0,0.0,0.0,0.0,0.0,0.0,0.0,0.0,0.0,0.0,0.0,0.0,0.0,0.0,0.0,0.0,0.0,0.0,0.0,0.0,0.0,0.0,0.0,0.0,0.0,0.0,0.0,0.0,0.0,0.0,0.0,0.0,0.0,0.0,0.0,0.0,0.0,0.0,0.0,0.0,0.0,0.0,0.0,0.0,0.0,0.0,0.0,0.0,0.0,0.0,0.0,0.0,0.0,0.0,0.0,0.0,0.0,0.0,0.0,0.0,0.0,0.0,0.0,0.0,0.0,0.0,0.0,0.0,0.0,0.0,0.0,0.0,0.0,0.0,0.0,0.0,0.0,0.0,0.0,0.0,0.0,0.0,0.0,0.0,0.0,0.0,0.0,0.0,0.0,0.0,0.0,0.0,0.0,0.0,0.0,0.0,0.0,3.6705,3.7901,3.8104,3.8202,3.8173,3.6844,3.5777,0.0,0.0,0.0,0.0,0.0,0.0,0.0,0.0,0.0,0.0,0.0,0.0,0.0,0.0,0.0,0.0,0.0,0.0,0.0,0.0,0.0,0.0,0.0,0.0,0.0,0.0,0.0,0.0,0.0,0.0,0.0,0.0,0.0,0.0,0.0,0.0,0.0,0.0,0.0,0.0,0.0,0.0,0.0,0.0,0.0,0.0,0.0,0.0,0.0,0.0,0.0,0.0,0.0,0.0,0.0,0.0,0.0,0.0,0.0,0.0,0.0,0.0,0.0,0.0,0.0,0.0,0.0,0.0,0.0,0.0,0.0,0.0,0.0,0.0,0.0,0.0,0.0,0.0,0.0,0.0,0.0,0.0,0.0,0.0,0.0,0.0,0.0,0.0,0.0,0.0,0.0,0.0,0.0,0.0,0.0,0.0,0.0,0.0,0.0,0.0,0.0,0.0,0.0,0.0,0.0,0.0,0.0,0.0,3.7388,3.8113,3.8165,3.8202,3.8202,3.744,3.6707,0.0,0.0,0.0,0.0,0.0,0.0,0.0,0.0,0.0,0.0,0.0,0.0,0.0,0.0,0.0,0.0,0.0,0.0,0.0,0.0,0.0,0.0,0.0,0.0,0.0,0.0,0.0,0.0,0.0,0.0,0.0,0.0,0.0,0.0,0.0,0.0,0.0,0.0,0.0,0.0,0.0,0.0,0.0,0.0,0.0,0.0,0.0,0.0,3.2092,0.0,0.0,0.0,0.0,0.0,0.0,0.0,0.0,0.0,0.0,0.0,0.0,0.0,0.0,0.0,0.0,0.0,0.0,0.0,0.0,0.0,0.0,0.0,0.0,0.0,0.0,0.0,0.0,0.0,0.0,0.0,0.0,0.0,0.0,0.0,0.0,0.0,0.0,0.0,0.0,0.0,0.0,0.0,0.0,0.0,0.0,0.0,0.0,0.0,0.0,0.0,0.0,0.0,0.0,0.0,0.0,0.0,0.0,0.0,3.7689,3.8188,3.8202,3.8202,3.8188,3.7897,3.7273,0.0,0.0,0.0,0.0,0.0,0.0,0.0,0.0,0.0,0.0,0.0,0.0,0.0,0.0,0.0,0.0,0.0,0.0,0.0,0.0,0.0,0.0,0.0,0.0,0.0,0.0,0.0,0.0,0.0,0.0,0.0,0.0,0.0,0.0,0.0,0.0,0.0,0.0,0.0,0.0,0.0,0.0,0.0,0.0,0.0,0.0,0.0,0.0,0.0,0.0,0.0,0.0,0.0,0.0,0.0,0.0,0.0,0.0,0.0,0.0,0.0,0.0,0.0,0.0,0.0,0.0,0.0,0.0,0.0,0.0,0.0,0.0,0.0,0.0,0.0,0.0,0.0,0.0,0.0,0.0,0.0,0.0,0.0,0.0,0.0,0.0,0.0,0.0,0.0,0.0,0.0,0.0,0.0,0.0,0.0,0.0,0.0,0.0,0.0,0.0,0.0,0.0,0.0,0.0,0.0,0.0,0.0,3.7417,3.796,3.8323,3.824,3.8277,3.8449,3.8352,3.774,3.6558,0.0,0.0,0.0,0.0,0.0,0.0,0.0,0.0,0.0,0.0,0.0,0.0,0.0,0.0,0.0,0.0,0.0,0.0,0.0,0.0,0.0,0.0,0.0,0.0,0.0,0.0,0.0,0.0,0.0,0.0,0.0,0.0,0.0,0.0,0.0,0.0,0.0,0.0,3.1963,3.2727,0.0,0.0,0.0,0.0,0.0,0.0,0.0,0.0,3.359,0.0,0.0,0.0,0.0,0.0,0.0,0.0,0.0,0.0,0.0,0.0,0.0,0.0,0.0,0.0,0.0,0.0,0.0,0.0,0.0,0.0,0.0,0.0,0.0,0.0,0.0,0.0,0.0,0.0,0.0,0.0,0.0,0.0,0.0,0.0,0.0,0.0,0.0,0.0,0.0,0.0,0.0,0.0,0.0,0.0,0.0,0.0,0.0,0.0,0.0,0.0,0.0,0.0,0.0,0.0,0.0,3.6775,3.7994,3.8715,3.8943,3.8464,3.8671,3.955,3.9023,3.8322,3.7514,0.0,0.0,0.0,0.0,0.0,0.0,0.0,0.0,0.0,0.0,0.0,0.0,0.0,0.0,0.0,0.0,0.0,0.0,0.0,0.0,0.0,0.0,0.0,0.0,0.0,0.0,0.0,0.0,0.0,0.0,0.0,0.0,0.0,0.0,0.0,0.0,0.0,0.0,0.0,3.3818,3.4175,0.0,0.0,0.0,0.0,0.0,0.0,0.0,0.0,3.4576,0.0,0.0,0.0,0.0,0.0,0.0,0.0,0.0,0.0,0.0,0.0,0.0,0.0,0.0,0.0,0.0,0.0,0.0,0.0,0.0,0.0,0.0,0.0,0.0,0.0,0.0,0.0,0.0,0.0,0.0,0.0,0.0,0.0,0.0,0.0,0.0,0.0,0.0,0.0,0.0,0.0,0.0,0.0,0.0,0.0,0.0,0.0,0.0,0.0,0.0,0.0,0.0,0.0,0.0,0.0,3.8131,3.9577,4.0349,4.0349,4.0046,3.9973,4.0135,3.9804,3.9093,0.0,0.0,0.0,0.0,0.0,0.0,0.0,0.0,0.0,0.0,0.0,0.0,0.0,0.0,0.0,0.0,0.0,0.0,0.0,0.0,0.0,0.0,0.0,0.0,0.0,0.0,0.0,0.0,0.0,0.0,0.0,0.0,0.0,0.0,0.0,0.0,0.0,0.0,0.0,0.0,3.5358,3.5611,3.5923,0.0,0.0,0.0,0.0,0.0,0.0,3.6127,3.5653,0.0,0.0,0.0,0.0,0.0,0.0,0.0,0.0,0.0,0.0,0.0,0.0,0.0,0.0,0.0,0.0,0.0,0.0,0.0,0.0,0.0,0.0,0.0,0.0,0.0,0.0,0.0,0.0,0.0,0.0,0.0,0.0,0.0,0.0,0.0,0.0,0.0,0.0,0.0,0.0,0.0,0.0,0.0,0.0,0.0,0.0,0.0,0.0,0.0,0.0,0.0,0.0,0.0,0.0,0.0,3.9677,4.1159,4.198,4.1984,4.1895,4.1589,4.1093,4.0892,4.0109,0.0,0.0,0.0,0.0,0.0,0.0,0.0,0.0,0.0,0.0,0.0,0.0,0.0,0.0,0.0,0.0,0.0,0.0,0.0,0.0,0.0,0.0,0.0,0.0,0.0,0.0,0.0,0.0,0.0,0.0,0.0,0.0,0.0,0.0,0.0,0.0,0.0,0.0,0.0,0.0,0.0,3.7055,3.7143,3.7586,0.0,0.0,0.0,0.0,3.7345,3.7205,0.0,0.0,0.0,0.0,0.0,0.0,0.0,0.0,0.0,0.0,0.0,0.0,0.0,0.0,0.0,0.0,0.0,0.0,0.0,0.0,0.0,0.0,0.0,0.0,0.0,0.0,0.0,0.0,0.0,0.0,0.0,0.0,0.0,0.0,0.0,0.0,0.0,0.0,0.0,0.0,0.0,0.0,0.0,0.0,0.0,0.0,0.0,0.0,0.0,0.0,0.0,0.0,0.0,0.0,0.0,0.0,4.1054,4.2007,4.292,4.364,4.3211,4.3037,4.3299,4.2558,4.1426,0.0,0.0,0.0,0.0,0.0,0.0,0.0,0.0,0.0,0.0,0.0,0.0,0.0,0.0,0.0,0.0,0.0,0.0,0.0,0.0,0.0,0.0,0.0,0.0,0.0,0.0,0.0,0.0,0.0,0.0,0.0,0.0,0.0,0.0,0.0,0.0,0.0,0.0,0.0,0.0,0.0,3.7951,3.7829,3.8337,3.8629,0.0,0.0,3.8649,3.8664,3.9085,0.0,0.0,0.0,0.0,0.0,0.0,0.0,0.0,0.0,0.0,0.0,0.0,0.0,0.0,0.0,0.0,0.0,0.0,0.0,0.0,0.0,0.0,0.0,0.0,0.0,0.0,0.0,0.0,0.0,0.0,0.0,0.0,0.0,0.0,0.0,0.0,0.0,0.0,0.0,0.0,0.0,0.0,0.0,0.0,0.0,0.0,0.0,0.0,0.0,0.0,0.0,0.0,0.0,0.0,0.0,4.1126,4.2638,4.3653,4.4511,4.524,4.5072,4.4607,4.399,4.3638,4.2382,0.0,0.0,0.0,0.0,0.0,0.0,0.0,0.0,0.0,0.0,0.0,0.0,0.0,0.0,0.0,0.0,0.0,0.0,0.0,0.0,0.0,0.0,0.0,0.0,0.0,0.0,0.0,0.0,0.0,0.0,0.0,0.0,0.0,0.0,0.0,0.0,0.0,0.0,0.0,0.0,0.0,0.0,3.8289,3.9417,0.0,0.0,0.0,3.9959,3.9959,0.0,0.0,0.0,0.0,0.0,0.0,0.0,0.0,0.0,0.0,0.0,0.0,0.0,0.0,0.0,0.0,0.0,0.0,0.0,0.0,0.0,0.0,0.0,0.0,0.0,0.0,0.0,0.0,0.0,0.0,0.0,0.0,0.0,0.0,0.0,0.0,0.0,0.0,0.0,0.0,0.0,0.0,0.0,0.0,0.0,0.0,0.0,0.0,0.0,0.0,0.0,0.0,0.0,0.0,0.0,0.0,0.0,4.4122,4.5013,4.5846,4.6701,4.6717,4.606,4.4647,4.4567,0.0,0.0,0.0,0.0,0.0,0.0,0.0,0.0,0.0,0.0,0.0,0.0,0.0,0.0,0.0,0.0,0.0,0.0,0.0,0.0,0.0,0.0,0.0,0.0,0.0,0.0,0.0,3.408,0.0,0.0,0.0,0.0,0.0,0.0,0.0,0.0,0.0,0.0,0.0,0.0,0.0,0.0,3.9492,3.9109,4.0451,4.1219,0.0,0.0,4.0949,4.084,4.0376,3.9865,0.0,0.0,0.0,0.0,0.0,0.0,0.0,0.0,0.0,0.0,0.0,0.0,0.0,0.0,0.0,0.0,0.0,0.0,0.0,0.0,0.0,0.0,0.0,0.0,0.0,0.0,0.0,0.0,0.0,0.0,0.0,0.0,0.0,0.0,0.0,0.0,0.0,0.0,0.0,0.0,0.0,0.0,0.0,0.0,0.0,0.0,0.0,0.0,0.0,0.0,0.0,0.0,0.0,0.0,4.2598,4.535,4.5656,4.6445,4.7819,4.7885,4.719,4.575,4.5575,4.4146,0.0,0.0,0.0,0.0,0.0,0.0,0.0,0.0,0.0,0.0,0.0,0.0,0.0,0.0,0.0,0.0,0.0,0.0,0.0,0.0,0.0,0.0,0.0,0.0,0.0,0.0,0.0,0.0,0.0,0.0,0.0,0.0,0.0,0.0,0.0,0.0,0.0,0.0,0.0,0.0,0.0,4.0683,4.0639,4.1258,4.1661,0.0,4.1627,4.145,4.0914,4.1229,4.0939,3.915,0.0,0.0,0.0,0.0,0.0,0.0,0.0,0.0,0.0,0.0,0.0,0.0,0.0,0.0,0.0,0.0,0.0,0.0,0.0,0.0,0.0,0.0,0.0,0.0,0.0,0.0,0.0,0.0,0.0,0.0,0.0,0.0,0.0,0.0,0.0,0.0,0.0,0.0,0.0,0.0,0.0,0.0,0.0,0.0,0.0,0.0,0.0,0.0,0.0,0.0,0.0,0.0,0.0,4.269,4.5654,4.5767,4.651,4.7934,4.8001,4.7504,4.6493,4.5967,4.45,0.0,0.0,0.0,0.0,0.0,0.0,0.0,0.0,0.0,0.0,0.0,0.0,0.0,0.0,0.0,0.0,0.0,0.0,0.0,0.0,0.0,0.0,0.0,0.0,0.0,0.0,0.0,0.0,3.7337,3.7545,3.8067,0.0,0.0,0.0,0.0,0.0,0.0,0.0,0.0,0.0,0.0,4.0965,4.0965,4.1853,0.0,0.0,4.2465,4.2604,4.2391,4.2227,4.1736,4.0599,3.9966,0.0,0.0,0.0,0.0,0.0,0.0,0.0,0.0,0.0,0.0,0.0,0.0,0.0,0.0,0.0,0.0,0.0,0.0,0.0,0.0,0.0,0.0,0.0,0.0,0.0,0.0,0.0,0.0,0.0,0.0,0.0,0.0,0.0,0.0,0.0,0.0,0.0,0.0,0.0,0.0,0.0,0.0,0.0,0.0,0.0,0.0,0.0,0.0,0.0,0.0,0.0,0.0,4.2977,4.5748,4.5798,4.651,4.7968,4.8001,4.7653,4.6908,4.6179,4.4792,0.0,0.0,0.0,0.0,0.0,0.0,0.0,0.0,0.0,0.0,0.0,0.0,0.0,0.0,0.0,0.0,0.0,0.0,0.0,0.0,0.0,0.0,0.0,0.0,0.0,0.0,0.0,0.0,3.8342,3.8469,3.8645,0.0,0.0,0.0,0.0,0.0,0.0,0.0,0.0,0.0,0.0,4.169,4.203,4.2667,4.2991,4.2809,4.3084,4.323,4.3075,4.2656,4.2111,4.1235,0.0,0.0,0.0,0.0,0.0,0.0,0.0,0.0,0.0,0.0,0.0,0.0,0.0,0.0,0.0,0.0,0.0,0.0,0.0,0.0,0.0,0.0,0.0,0.0,0.0,0.0,0.0,4.2485,0.0,0.0,4.1475,0.0,0.0,0.0,0.0,0.0,0.0,0.0,0.0,0.0,0.0,0.0,0.0,0.0,0.0,0.0,0.0,0.0,0.0,0.0,0.0,0.0,0.0,4.3578,4.5748,4.5829,4.651,4.7951,4.8001,4.7653,4.6924,4.6179,4.5102,4.3582,0.0,0.0,0.0,0.0,0.0,0.0,0.0,0.0,0.0,0.0,0.0,0.0,0.0,0.0,0.0,0.0,0.0,0.0,0.0,0.0,0.0,0.0,0.0,0.0,0.0,0.0,3.8869,3.9142,3.9115,0.0,0.0,0.0,0.0,0.0,0.0,0.0,0.0,0.0,4.2315,4.2762,4.3275,4.4037,4.3708,4.3409,4.3606,4.3448,4.312,4.256,4.244,4.1961,0.0,0.0,0.0,0.0,0.0,0.0,0.0,0.0,0.0,0.0,0.0,0.0,0.0,0.0,0.0,0.0,0.0,0.0,0.0,0.0,0.0,0.0,0.0,0.0,0.0,0.0,0.0,4.4553,4.4953,0.0,0.0,0.0,0.0,0.0,0.0,0.0,0.0,0.0,0.0,0.0,4.629,4.629,0.0,0.0,0.0,0.0,0.0,0.0,0.0,0.0,0.0,0.0,0.0,0.0,4.3776,4.5901,4.5953,4.6635,4.8081,4.8147,4.8014,4.7765,4.671,4.522,4.3285,0.0,0.0,0.0,0.0,0.0,0.0,0.0,0.0,0.0,0.0,0.0,0.0,0.0,0.0,0.0,0.0,0.0,0.0,0.0,0.0,0.0,0.0,0.0,0.0,0.0,3.8496,0.0,0.0,0.0,0.0,0.0,0.0,0.0,0.0,0.0,0.0,4.1006,4.1614,4.3513,4.3738,4.3846,4.4266,4.4112,4.3895,0.0,0.0,0.0,0.0,0.0,0.0,0.0,0.0,0.0,0.0,0.0,0.0,0.0,0.0,3.8855,3.6871,3.6357,3.6085,3.5664,0.0,0.0,0.0,0.0,0.0,0.0,0.0,0.0,0.0,0.0,0.0,0.0,0.0,0.0,4.5838,4.624,4.5801,0.0,0.0,0.0,0.0,0.0,0.0,0.0,0.0,4.7113,4.7244,4.7244,4.7244,4.711,4.6841,4.637,4.5127,0.0,0.0,0.0,0.0,0.0,0.0,0.0,0.0,4.4219,4.6054,4.6121,4.6839,4.824,4.8324,4.8292,4.829,4.6999,4.5369,4.3427,4.2205,4.1335,0.0,0.0,0.0,0.0,0.0,0.0,0.0,0.0,0.0,0.0,0.0,0.0,0.0,0.0,0.0,0.0,0.0,0.0,0.0,0.0,0.0,0.0,0.0,3.9175,0.0,0.0,0.0,0.0,0.0,0.0,0.0,0.0,0.0,4.2553,4.2655,4.3296,4.4713,4.4768,4.47,4.4827,0.0,0.0,0.0,0.0,0.0,0.0,0.0,4.3374,4.2545,4.2785,4.2821,4.2177,4.1878,4.169,4.159,0.0,0.0,3.859,3.8135,3.793,3.7483,3.7996,3.8399,3.8018,3.8661,3.9237,0.0,0.0,0.0,0.0,4.6388,0.0,0.0,0.0,4.6421,4.6438,0.0,4.6404,0.0,0.0,0.0,0.0,4.6404,4.7258,0.0,0.0,4.8568,4.9001,4.8984,4.8968,4.8629,4.7956,4.7872,4.7128,4.5742,4.4001,0.0,0.0,0.0,0.0,0.0,0.0,4.4884,4.6307,4.634,4.7074,4.8465,4.8515,4.8498,4.8448,4.7074,4.5634,4.4243,4.3389,4.235,4.0977,4.0843,0.0,0.0,0.0,0.0,0.0,0.0,0.0,0.0,0.0,0.0,0.0,0.0,0.0,0.0,0.0,0.0,0.0,0.0,0.0,0.0,3.8866,0.0,0.0,0.0,0.0,0.0,0.0,0.0,0.0,0.0,4.3028,4.3344,4.5044,4.6257,4.5907,0.0,0.0,0.0,0.0,4.4419,4.4572,4.4104,4.3729,4.369,4.4003,4.3838,4.265,0.0,0.0,4.3394,4.2806,4.244,4.2425,4.1908,4.133,4.0932,4.0746,4.0687,4.0642,4.0672,4.0811,4.0781,4.0698,4.0807,5.0597,0.0,0.0,0.0,0.0,4.7649,4.8324,4.9706,4.8692,4.854,4.8945,4.7885,0.0,0.0,0.0,0.0,0.0,0.0,4.8129,4.8619,4.8886,4.9018,4.9018,4.9018,4.89,4.868,4.8142,4.797,4.7986,4.6461,4.5277,4.4426,0.0,0.0,0.0,0.0,4.6303,4.7241,4.7261,4.7732,4.8673,4.8707,4.8517,4.8071,4.7143,4.6199,4.5255,4.399,4.3097,4.2658,4.1647,0.0,0.0,0.0,0.0,0.0,0.0,0.0,0.0,0.0,0.0,0.0,0.0,0.0,0.0,0.0,0.0,0.0,0.0,0.0,3.9294,3.9733,3.9961,0.0,0.0,0.0,0.0,0.0,0.0,0.0,0.0,0.0,4.5477,4.5868,4.6382,0.0,0.0,4.674,4.6246,4.5909,4.5458,4.4739,4.4473,0.0,4.3503,4.3534,4.3454,4.312,4.3334,4.3514,4.3334,4.318,4.3045,4.3045,4.2895,4.2697,4.2559,4.1844,4.1143,4.0726,4.1247,4.1724,4.1381,4.1802,4.2204,5.3281,5.0507,5.0074,4.9963,5.0031,4.9729,5.026,5.1374,5.0598,5.0352,5.0438,4.9551,4.9005,4.8686,4.8238,0.0,0.0,0.0,4.8882,4.9216,4.9627,4.9824,4.9841,5.0131,5.0189,5.0065,4.9641,4.9413,4.9424,4.8545,4.7656,4.684,0.0,4.6471,4.6518,4.6591,4.6992,4.7747,4.775,4.8104,4.8846,4.8863,4.8723,4.8328,4.7631,4.6887,4.616,4.4976,4.4018,4.3409,4.2547,4.1813,0.0,0.0,0.0,0.0,0.0,0.0,0.0,0.0,0.0,0.0,0.0,3.8967,3.8967,0.0,0.0,0.0,3.8469,3.9201,4.0028,4.0367,0.0,0.0,0.0,0.0,0.0,0.0,0.0,4.4433,4.5647,4.6617,4.7008,4.713,4.74,4.7949,4.777,4.7438,4.6913,0.0,4.6179,4.5489,4.4933,4.4419,4.3918,4.3737,4.3718,4.3693,4.3454,4.3305,4.3305,4.3305,4.3305,4.3305,4.3305,4.3305,4.3305,4.2671,4.2058,4.1669,4.2177,4.2566,4.2222,4.2658,4.3011,5.555,5.4822,5.3777,5.2763,5.1879,5.2173,5.2111,5.1845,5.2152,5.1843,5.1252,5.1213,5.0735,4.9982,4.993,0.0,4.9633,4.9882,4.9887,4.9736,5.0767,5.1225,5.126,5.1886,5.2045,5.1719,5.1674,5.1179,5.0319,5.0202,4.983,4.9185,4.775,4.7022,4.6972,4.6972,4.731,4.8003,4.7973,4.8342,4.8984,4.9018,4.9018,4.9001,4.8291,4.7547,4.6819,4.6092,4.5026,4.3595,4.3426,4.2784,4.1474,0.0,0.0,0.0,0.0,0.0,0.0,0.0,0.0,0.0,0.0,0.0,0.0,0.0,0.0,4.018,3.9478,0.0,4.0104,4.0899,0.0,0.0,0.0,4.3893,4.4615,4.5331,4.6041,4.6718,0.0,0.0,4.7973,4.8629,4.8996,4.8746,4.8327,4.8018,4.7919,4.7347,4.6802,4.6676,4.5677,4.4838,4.4703,4.4531,4.4432,4.4417,4.3883,4.3544,4.3529,4.3529,4.3484,4.3544,4.3469,4.3439,4.3394,4.3364,4.3349,4.323,4.3245,4.3275,4.3215,4.3245,4.3275,5.7928,5.7488,5.7207,5.5539,5.3092,5.3124,5.3158,5.3057,5.2853,5.2621,5.2464,5.2092,5.1541,5.0799,5.0183,5.0194,5.0715,5.0774,5.1085,5.1589,5.2089,5.2323,5.2323,5.226,5.2132,5.2041,5.1566,5.1468,5.1742,5.1217,5.0926,5.0849,4.9825,4.9035,4.8494,4.8477,4.8562,4.8748,4.8748,4.8832,4.9001,4.9018,4.9018,4.9001,4.8308,4.7564,4.6819,4.6092,4.528,4.435,4.3724,4.3223,4.2895,4.2337,0.0,0.0,0.0,0.0,0.0,0.0,0.0,0.0,0.0,4.1424,4.1999,0.0,4.1491,0.0,3.9952,4.0155,4.0882,4.21,0.0,0.0,4.4248,4.5229,4.5415,4.6092,4.6583,4.6769,4.7462,4.8122,4.868,4.9373,5.0019,5.0447,4.9932,4.9522,4.9759,4.9144,4.836,4.7602,4.7089,4.6524,4.5565,4.5373,4.5352,4.5367,4.5053,4.4825,4.4825,4.4825,4.4825,4.4825,4.4825,4.4631,4.4152,4.4037,4.3828,4.3439,4.3305,4.3305,4.3305,4.3305,4.3305,5.8957,5.8857,5.871,5.7427,5.5432,5.5061,5.4802,5.4621,5.4233,5.3839,5.3489,5.2907,5.2404,5.2004,5.1569,5.1535,5.1829,5.2108,5.2358,5.2642,5.3436,5.3753,5.3647,5.3789,5.3711,5.3428,5.3077,5.3017,5.3198,5.2565,5.2204,5.2298,5.1003,5.0116,4.9709,4.9232,4.9018,4.9018,4.9018,4.9018,4.9018,4.9018,4.9018,4.9001,4.8277,4.7564,4.6819,4.6092,4.5365,4.4632,4.4164,4.3775,4.3409,4.3014,4.2455,0.0,0.0,0.0,0.0,0.0,0.0,0.0,0.0,0.0,0.0,0.0,4.1948,4.117,4.139,4.1897,4.2642,4.3741,4.4451,4.4451,4.5759,4.6701,4.6684,4.7344,4.7767,4.7784,4.8139,4.8697,4.939,4.9847,5.049,5.1555,5.1272,5.0803,5.0373,5.0057,4.961,4.8706,4.8155,4.7315,4.5995,4.5799,4.5813,4.5813,4.5649,4.547,4.547,4.5387,4.5289,4.5274,4.505,4.4766,4.4377,4.4062,4.3708,4.3424,4.3305,4.3305,4.3305,4.3305,4.3305,5.9504,5.9598,5.9334,5.8819,5.816,5.731,5.6606,5.6084,5.5779,5.5238,5.4517,5.3789,5.3454,5.3454,5.3366,5.3208,5.3049,5.352,5.3639,5.356,5.4703,5.5168,5.499,5.56,5.5613,5.5126,5.5083,5.49,5.4586,5.3977,5.3597,5.341,5.1695,5.0745,5.0594,4.9559,4.9018,4.9018,4.9018,4.9018,4.9018,4.9018,4.9018,4.8984,4.8392,4.7665,4.6819,4.6177,4.5449,4.4666,4.4598,4.4282,4.3623,4.3544,4.3234,0.0,4.2422,0.0,0.0,0.0,0.0,0.0,0.0,0.0,0.0,4.2963,4.2625,4.2753,4.3318,4.3978,4.4682,4.5483,4.6007,4.6041,4.7225,4.8054,4.8041,4.8629,4.9018,4.9018,4.9018,4.9306,5.0101,5.0236,5.0777,5.1978,5.2215,5.1624,5.0458,5.057,5.0626,4.9889,4.8812,4.7719,4.676,4.6392,4.6392,4.632,4.6217,4.5988,4.6063,4.5868,4.5672,4.5627,4.5271,4.4837,4.4601,4.4112,4.3693,4.3544,4.3484,4.3439,4.3334,4.3305,4.3305,6.1246,6.0423,6.0311,6.0146,5.9858,5.8931,5.7604,5.6115,5.6317,5.6258,5.595,5.5177,5.4821,5.4768,5.4198,5.4225,5.4722,5.4621,5.4864,5.5373,5.5646,5.5745,5.5706,5.5812,5.5837,5.5711,5.5478,5.5284,5.5242,5.5067,5.4622,5.3875,5.2554,5.1529,5.0828,0.0,0.0,0.0,4.9018,4.9018,4.9018,4.9018,4.9018,4.9001,4.8883,0.0,4.687,4.6667,4.6003,4.4682,4.4598,0.0,0.0,0.0,0.0,0.0,0.0,0.0,0.0,0.0,0.0,0.0,4.4925,4.5026,4.4418,4.4259,4.4429,4.4993,4.5196,4.5331,4.55,4.6701,4.7483,4.7517,4.8244,4.8798,4.8815,4.8917,4.9018,4.9018,4.9018,4.9509,5.071,5.0997,5.1319,5.2097,5.2317,5.1708,5.0321,5.1153,5.1562,5.0643,4.9154,4.8328,4.8286,4.7935,4.7679,4.7836,4.7726,4.7555,4.7482,4.744,4.7359,4.7159,4.7056,4.6641,4.6007,4.5786,4.5248,4.4291,4.4082,4.3932,4.3424,4.3305,4.3305,6.2097,6.1281,6.1117,6.0986,0.0,6.0319,5.9389,5.8113,5.7485,5.6934,5.6449,5.5671,5.5334,5.5317,5.4945,5.498,5.5334,5.5334,5.5631,5.6144,5.6282,5.6365,5.632,5.6329,5.6292,5.6126,5.5815,5.5671,5.5624,5.5496,5.5232,5.4741,5.3217,5.2233,5.1751,5.0095,4.9155,4.9001,4.9018,4.9018,4.9018,4.9018,4.9018,4.9001,4.8646,0.0,0.0,0.0,0.0,0.0,0.0,0.0,0.0,4.4773,0.0,4.4553,4.4215,4.4164,4.4519,4.4553,4.4874,4.5618,4.6041,4.5923,4.5196,4.5449,4.5821,4.621,4.6583,4.6955,4.7327,4.802,4.8443,4.8477,4.8781,4.9018,4.9018,4.9018,4.9018,4.9018,4.9018,4.9441,5.0507,5.1014,5.132,5.1725,5.208,5.1894,5.0947,5.1268,5.1311,5.0035,4.904,4.8195,4.7809,4.7933,4.7947,4.7937,4.8072,4.8145,4.8175,4.7964,4.7752,4.7609,4.7254,4.6766,4.6396,4.6067,4.5589,4.496,4.4541,4.4242,4.3783,4.3314,4.2851,6.2781,6.2186,6.17,6.1401,6.1275,6.1234,6.0869,6.0275,5.8793,0.0,0.0,5.6323,5.6005,5.5987,5.5864,5.5793,5.5793,5.5975,5.6217,5.6465,5.6635,5.6715,5.6733,5.6768,5.6689,5.6465,5.6199,5.606,5.606,5.5811,5.5625,5.5426,5.3772,5.2671,5.2164,5.0365,4.9277,4.9001,4.9018,4.9018,4.9018,4.9018,4.9018,4.9001,4.8426,4.8024,4.7889,4.6735,4.6041,4.5889,4.5297,4.5275,4.5838,4.5314,4.5246,4.5805,4.5314,4.5246,4.5855,4.5906,4.621,4.6938,4.6989,4.6735,4.6143,4.6633,4.7056,4.7158,4.775,4.8328,4.8951,4.9001,4.9018,4.9018,4.9018,4.9018,4.9018,4.9018,4.9018,4.9018,4.9018,4.9272,5.0033,5.076,5.1133,5.1133,5.1606,5.1775,5.1065,5.0879,5.0574,4.9429,4.8677,4.7935,4.7146,4.7093,4.7429,4.7409,4.7824,4.8171,4.8133,4.7973,4.7779,4.7752,4.7087,4.6719,4.6514,4.6142,4.5618,4.5499,4.505,4.459,4.4407,4.3554,4.2785,6.4075,6.2947,6.1934,6.1419,6.1292,6.0866,6.0686,6.0665,5.9751,5.9285,5.9123,5.8347,5.7987,5.7951,5.7265,5.6959,5.6959,5.6768,5.6689,5.6715,5.6546,5.6437,5.6482,5.6689,5.6768,5.6742,5.6689,5.6689,5.6635,5.6383,5.6116,5.5698,5.4379,5.2581,5.0552,4.9548,4.9063,4.9018,4.9018,4.9018,4.9018,4.9018,4.9018,4.9001,4.89,4.8562,4.7906,4.7686,4.731,4.6684,4.6549,4.6532,4.6616,4.6515,4.6532,4.6616,4.6532,4.6515,4.6616,4.6633,4.6972,4.7665,4.772,4.7716,4.7601,4.7669,4.802,4.8612,4.8765,4.8883,4.9001,4.9018,4.9018,4.9018,4.9018,4.9018,4.9018,4.9018,4.9018,4.9018,4.9018,4.9255,4.9932,5.0727,5.0963,5.0524,5.0811,5.0879,4.9881,4.9847,5.0012,4.9493,4.8566,4.7777,4.7109,4.6889,4.6799,4.6726,4.7256,4.7661,4.7661,4.7978,4.8118,4.8187,4.7752,4.7583,4.7385,4.7229,4.6753,4.6292,4.6007,4.5768,4.5244,4.4496,4.3643,6.4597,6.3608,6.2619,6.2122,6.196,6.1618,6.1523,6.1518,6.1091,6.0458,5.9669,5.8777,5.8418,5.852,5.8024,5.7648,5.7406,5.7117,5.6912,5.6786,5.6662,5.6689,5.6821,5.6959,5.6933,5.6794,5.6635,5.6492,5.6292,5.6067,5.5839,5.5578,5.4011,5.2312,5.0642,4.9725,4.9277,4.9277,4.9094,4.9018,4.9018,4.9018,4.9018,4.9018,4.9018,4.8849,4.8528,4.8139,4.7767,4.7411,4.7005,4.6972,4.7378,4.7022,4.6972,4.7344,4.7022,4.6972,4.7378,4.7767,4.8139,4.8477,4.8511,4.8511,4.8511,4.848,4.8646,4.8968,4.9018,4.9018,4.9018,4.9018,4.9018,4.9018,4.9018,4.9018,4.9018,4.9018,4.9018,4.9018,4.9018,4.9137,4.9458,5.049,5.0727,4.9813,4.9847,4.9712,4.912,4.9272,4.9241,4.8481,4.759,4.6836,4.6323,4.6126,4.6066,4.6034,4.6619,4.6988,4.7065,4.7307,4.7446,4.7675,4.76,4.7516,4.7561,4.7538,4.7259,4.6965,4.6474,4.6187,4.5828,4.5065,4.4018,6.5053,6.4446,6.3324,6.2717,6.2449,6.2158,6.2096,6.2123,6.1877,6.1256,6.0297,5.924,5.8826,5.8923,5.8579,5.8199,5.7843,5.7583,5.7298,5.6967,5.6958,5.6982,5.7003,5.7028,5.6925,5.6689,5.6437,5.6144,5.589,5.5637,5.5448,5.5201,5.3676,5.2376,5.1443,5.0249,4.9636,4.9589,4.9209,4.9018,4.9018,4.9018,4.9018,4.9018,4.9018,4.9018,4.8968,4.846,4.8173,4.8108,4.7597,4.7564,4.8058,4.7614,4.7564,4.8037,4.7614,4.7547,4.8105,4.868,4.9018,4.9018,4.9171,4.9255,4.9255,4.9407,4.9424,4.9289,4.9289,4.9272,4.9306,4.9272,4.9187,4.9052,4.9018,4.9018,4.9018,4.9018,4.9018,4.9018,4.9018,4.9018,4.9255,5.0304,5.0712,4.9898,4.9238,4.9018,4.9018,4.9018,4.861,4.7836,4.7015,4.6388,4.5594,4.5481,4.5518,4.5395,4.5911,4.628,4.6403,4.6361,4.6573,4.7068,4.7165,4.7217,4.7462,4.7634,4.7593,4.7334,4.6976,4.6634,4.6516,4.5843,4.4676,6.5583,6.5514,6.3866,6.2658,6.2078,6.1766,6.1794,6.1914,6.1426,6.1455,6.1577,6.0608,5.9985,5.9701,5.9019,5.8681,5.8613,5.8556,5.8157,5.7489,5.7418,5.7106,5.6581,5.6527,5.6482,5.6401,5.6116,5.5947,5.5861,5.5607,5.5359,5.4966,5.3914,5.3139,5.2572,5.0946,5.0045,5.0028,4.9371,4.9018,4.9018,4.9018,4.9018,4.9018,4.9018,4.9018,4.9001,4.8951,4.89,4.89,4.8815,4.8798,4.8866,4.8815,4.8815,4.8883,4.8815,4.8849,4.89,4.8951,4.9018,4.9052,4.9627,4.9965,5.0016,5.0591,5.071,5.0202,5.0016,4.9982,4.9982,4.9999,4.9746,4.9171,4.9086,4.9018,4.9018,4.9018,4.9018,4.9018,4.9018,4.9018,4.9154,5.0236,5.1033,5.0813,4.9898,4.9272,4.9255,4.9255,4.9034,4.8456,4.777,4.703,4.6298,4.563,4.5173,4.4863,4.5249,4.5603,4.5757,4.6157,4.661,4.6714,4.7078,4.7297,4.7459,4.7619,4.788,4.7581,4.7405,4.7375,4.7233,4.6965,4.6187,6.5576,6.5581,6.4352,6.3372,6.2684,6.2554,6.2311,6.196,6.1774,6.1654,6.1656,6.122,6.1065,6.1094,6.0418,5.9967,5.9627,5.9253,5.8803,5.8264,5.821,5.78,5.7087,5.7051,5.6736,5.6123,5.5975,5.5804,5.5666,5.5566,5.5329,5.4935,5.4105,5.3619,5.3332,5.1853,5.0932,5.0672,5.0014,4.9441,4.9052,4.9018,4.9018,4.9018,4.9018,4.9018,4.9018,4.9018,4.9018,4.9018,4.9018,4.9018,4.9018,4.9018,4.9018,4.9018,4.9018,4.9018,4.9018,4.9018,4.9187,4.961,4.9915,5.0253,5.071,5.1048,5.1234,5.1352,5.0997,5.076,5.076,5.076,5.0473,4.9813,4.9644,4.9492,4.9052,4.9018,4.9018,4.9018,4.9018,4.9035,4.9137,4.9898,5.0693,5.1048,5.0591,5.027,5.0287,5.0321,4.9935,4.9277,4.8837,4.7965,4.668,4.5489,4.4889,4.4709,4.4825,4.4987,4.5157,4.5557,4.6095,4.6511,4.7092,4.7553,4.7873,4.7969,4.8091,4.7752,4.7452,4.7381,4.7309,4.7309,4.683,6.5334,6.5286,6.4619,6.3874,6.3135,6.3011,6.2671,6.2139,6.1828,6.1608,6.1487,6.1315,6.1476,6.1738,6.1328,6.0872,6.0497,6.0072,5.9497,5.895,5.8897,5.8412,5.765,5.7579,5.7056,5.621,5.6093,5.5889,5.556,5.5525,5.5389,5.5056,5.4513,5.4144,5.3871,5.2674,5.1836,5.1384,5.0759,5.0135,4.9678,4.9407,4.9221,4.9035,4.9018,4.9018,4.9018,4.9018,4.9018,4.9018,4.9018,4.9018,4.9018,4.9018,4.9018,4.9018,4.9018,4.9018,4.9018,4.9187,4.9526,5.005,5.0405,5.093,5.142,5.1708,5.2063,5.2469,5.2147,5.1826,5.1522,5.1505,5.1183,5.0524,5.0405,5.0152,4.9729,4.961,4.9661,4.961,4.9746,4.9712,4.9915,5.0321,5.076,5.1386,5.1303,5.1234,5.1234,5.1134,5.084,5.0088,4.9814,4.8776,4.6945,4.6037,4.534,4.5164,4.5318,4.5311,4.5126,4.5618,4.5911,4.6634,4.7204,4.7553,4.7701,4.7908,4.816,4.7752,4.7467,4.7337,4.7309,4.7309,4.7309,6.4908,6.5098,6.4607,6.3948,6.3181,6.2719,6.2527,6.2465,6.1426,6.1135,6.1361,6.0873,6.0915,6.143,6.1193,6.1075,6.1034,6.0968,6.038,5.9478,5.9413,5.8825,5.7833,5.7768,5.7394,5.6716,5.6693,5.6317,5.5695,5.559,5.5478,5.5478,5.5134,5.4813,5.4444,5.3447,5.2656,5.2287,5.1551,5.1116,5.098,5.0371,4.9729,4.9187,4.9018,4.9018,4.9018,4.9018,4.9018,4.9018,4.9018,4.9018,4.9018,4.9018,4.9018,4.9018,4.9018,4.9018,4.912,4.9627,5.0067,5.0304,5.1352,5.2181,5.2283,5.2824,5.3213,5.3416,5.3264,5.2959,5.2384,5.2266,5.1961,5.1285,5.1134,5.1083,5.1065,5.0896,5.1099,5.0982,5.093,5.1065,5.1826,5.1523,5.1539,5.186,5.1674,5.1369,5.1454,5.1369,5.1256,5.106,5.0475,4.9415,4.7666,4.6872,4.6718,4.6376,4.6065,4.6342,4.6465,4.6542,4.6603,4.6773,4.7373,4.7645,4.7558,4.7653,4.7939,4.7794,4.751,4.7396,4.7381,4.7309,4.7309,6.4775,6.4858,6.4678,6.4261,6.3762,6.3654,6.3194,6.251,6.231,6.175,6.1129,6.0923,6.0776,6.0547,6.0885,6.1158,6.1321,6.1164,6.0873,6.0487,6.0487,5.9911,5.8931,5.9058,5.8621,5.7848,5.7871,5.7718,5.7288,5.6992,5.6708,5.6475,5.6109,5.5833,5.5531,5.4709,5.3991,5.3489,5.2511,5.1771,5.1539,5.1057,5.0676,5.0388,4.9475,4.9018,4.9018,4.9018,4.9018,4.9018,4.9018,4.9018,4.9018,4.9018,4.9018,4.9018,4.9018,4.9204,4.9644,4.9949,5.0524,5.1437,5.1961,5.257,5.2993,5.3331,5.3518,5.3518,5.3518,5.3315,5.3179,5.3078,5.2773,5.2097,5.1911,5.1725,5.1336,5.1234,5.1234,5.1234,5.1234,5.1352,5.1641,5.1743,5.2012,5.2266,5.2503,5.2604,5.2655,5.2655,5.2437,5.1998,5.1652,5.091,4.9242,4.8087,4.7424,4.6873,4.6557,4.6573,4.665,4.7111,4.725,4.7342,4.7804,4.8055,4.8029,4.795,4.8118,4.8034,4.7724,4.7467,4.7495,4.7381,4.7309,6.4323,6.4323,6.4323,6.4183,6.395,6.4003,6.3605,6.2879,6.2626,6.1946,6.1127,6.0917,6.0493,6.006,6.0671,6.1301,6.1684,6.1512,6.1328,6.1223,6.1223,6.079,6.0107,6.0166,5.9716,5.8769,5.8579,5.8519,5.8407,5.81,5.7822,5.7608,5.7214,5.6794,5.6383,5.5561,5.4861,5.4161,5.3306,5.268,5.2269,5.1917,5.1686,5.1403,5.0355,4.9576,4.939,4.9357,4.9221,4.9052,4.9018,4.9018,4.9018,4.9221,4.9357,4.9373,4.961,4.9915,5.0405,5.0676,5.1251,5.2198,5.257,5.2959,5.345,5.3518,5.3518,5.3518,5.3518,5.3518,5.3518,5.3501,5.3281,5.279,5.2689,5.2503,5.2046,5.1995,5.1962,5.2046,5.2063,5.2012,5.1995,5.2418,5.2655,5.2689,5.3196,5.3484,5.3518,5.3467,5.3365,5.2799,5.2542,5.1872,5.0704,4.9667,4.8528,4.786,4.7423,4.7244,4.7173,4.7635,4.7865,4.7989,4.8147,4.844,4.8495,4.8328,4.8244,4.8202,4.788,4.7553,4.751,4.7424,4.7337,6.3637,6.3673,6.36,6.3675,6.3667,6.3659,6.3613,6.3392,6.2214,6.1568,6.119,6.0717,6.0064,5.976,6.0563,6.1446,6.1704,6.1886,6.1934,6.1756,6.1649,6.1451,6.1105,6.1075,6.0582,5.9538,5.8769,5.8596,5.8899,5.8831,5.8731,5.8645,5.8319,5.7653,5.6651,5.6036,5.5187,5.4394,5.4028,5.3782,5.35,5.3019,5.2645,5.2282,5.1589,5.0913,5.0202,5.0118,4.9813,4.9238,4.9154,4.9052,4.9289,4.9746,5.0101,5.0185,5.0744,5.11,5.1268,5.1792,5.2097,5.252,5.3044,5.3416,5.3467,5.3518,5.3518,5.3518,5.3518,5.3518,5.3518,5.3518,5.3484,5.3467,5.3365,5.3331,5.3348,5.3433,5.3467,5.3348,5.3264,5.345,5.345,5.3348,5.3331,5.3365,5.345,5.3518,5.3518,5.3518,5.3518,5.3399,5.3093,5.2466,5.1895,5.1257,5.0103,4.9094,4.8629,4.8342,4.8081,4.8312,4.8281,4.8358,4.8358,4.8563,4.8495,4.837,4.826,4.8175,4.7837,4.7724,4.7639,4.7553,4.7381,6.36,6.36,6.36,6.3712,6.3931,6.392,6.3781,6.3461,6.2543,6.1536,6.0635,6.033,5.9543,5.9041,6.0289,6.072,6.013,6.1649,6.2887,6.3282,6.2916,6.2493,6.2202,6.1867,6.1528,6.1163,6.0741,6.054,6.0472,6.007,5.9716,5.9452,5.889,5.8278,5.764,5.7193,5.652,5.5479,5.4945,5.4494,5.3901,5.3497,5.3229,5.3112,5.2909,5.2435,5.1657,5.1133,5.0777,5.049,5.0524,5.0524,5.0574,5.0744,5.0862,5.0896,5.1065,5.1488,5.1911,5.2164,5.257,5.301,5.3382,5.3484,5.3518,5.3518,5.3518,5.3518,5.3518,5.3518,5.3518,5.3518,5.3518,5.3518,5.3518,5.3518,5.3518,5.3518,5.3518,5.3518,5.3518,5.3518,5.3518,5.3518,5.3518,5.3518,5.3518,5.3518,5.3518,5.3518,5.3518,5.3467,5.3246,5.2989,5.2343,5.1696,5.0859,4.9829,4.9284,4.8811,4.8687,4.8604,4.8604,4.8604,4.8604,4.8563,4.8495,4.8453,4.837,4.8328,4.8202,4.8049,4.7895,4.7724,4.7553,6.36,6.36,6.36,6.3712,6.3913,6.4057,6.3956,6.3642,6.2979,6.202,6.108,6.0557,5.9624,5.8911,6.022,6.0527,6.0048,6.2061,6.3474,6.4094,6.3751,6.3408,6.325,6.2921,6.264,6.249,6.2317,6.205,6.1745,6.1145,6.0652,6.0261,5.9544,5.8928,5.8386,5.7811,5.6948,5.5778,5.5128,5.4727,5.439,5.3954,5.382,5.4007,5.3703,5.3264,5.2739,5.2267,5.1809,5.1352,5.1234,5.1234,5.1234,5.1437,5.1623,5.1674,5.1928,5.23,5.2689,5.2773,5.2926,5.3416,5.3518,5.3518,5.3518,5.3518,5.3518,5.3518,5.3518,5.3518,5.3518,5.3518,5.3518,5.3518,5.3518,5.3518,5.3518,5.3518,5.3518,5.3518,5.3518,5.3518,5.3518,5.3518,5.3518,5.3518,5.3518,5.3518,5.3518,5.3518,5.3518,5.3433,5.3246,5.2955,5.2607,5.2076,5.1475,5.0608,4.9765,4.9178,4.8769,4.8646,4.8604,4.8604,4.8604,4.8604,4.8521,4.8563,4.848,4.848,4.8453,4.8286,4.8049,4.7922,4.7752,6.36,6.36,6.36,6.36,6.3656,6.3913,6.4004,6.3918,6.331,6.2717,6.2098,6.129,6.0188,5.9451,6.0305,6.0769,6.1255,6.2404,6.3295,6.3676,6.3732,6.3865,6.3957,6.3644,6.343,6.3351,6.3171,6.2885,6.2391,6.1702,6.1424,6.0795,5.9972,5.9429,5.8475,5.7726,5.6569,5.5324,5.4787,5.4754,5.4904,5.4273,5.4256,5.4837,5.4025,5.3467,5.3382,5.3281,5.2739,5.1606,5.1539,5.1572,5.1539,5.2012,5.2367,5.2401,5.3078,5.3298,5.3467,5.3365,5.3416,5.3484,5.3518,5.3518,5.3518,5.3518,5.3518,5.3518,5.3518,5.3518,5.3518,5.3518,5.3518,5.3518,5.3518,5.3518,5.3518,5.3518,5.3518,5.3518,5.3518,5.3518,5.3518,5.3518,5.3518,5.3518,5.3518,5.3518,5.3518,5.3518,5.3518,5.3399,5.328,5.3161,5.2903,5.2537,5.1931,5.114,5.026,4.9486,4.8852,4.8646,4.8604,4.8604,4.8604,4.8604,4.8604,4.8604,4.8604,4.8563,4.8495,4.837,4.8218,4.8091,4.7964,6.36,6.36,6.36,6.36,6.36,6.3693,6.3729,6.3626,6.2845,6.2387,6.199,6.1613,6.0483,5.9235,6.0482,6.0629,6.0264,6.1343,6.2212,6.2598,6.3266,6.3535,6.3566,6.3369,6.34,6.356,6.2931,6.2856,6.3257,6.1597,6.0728,6.0321,5.9175,5.8139,5.7311,5.7103,5.6291,5.5277,5.5003,5.4852,5.4635,5.4059,5.4025,5.4551,5.394,5.3534,5.3518,5.3518,5.3382,5.2993,5.2892,5.2909,5.2841,5.3027,5.3129,5.3179,5.3331,5.3518,5.3518,5.3518,5.3518,5.3518,5.3518,5.3518,5.3518,5.3518,5.3518,5.3518,5.3518,5.3518,5.3518,5.3518,5.3518,5.3518,5.3518,5.3518,5.3518,5.3518,5.3518,5.3518,5.3518,5.3518,5.3518,5.3518,5.3518,5.3518,5.3518,5.3518,5.3518,5.3518,5.3518,5.3518,5.3433,5.3382,5.3246,5.2885,5.2359,5.1602,5.0723,4.9765,4.9122,4.8604,4.8604,4.8604,4.8604,4.8604,4.8604,4.8604,4.8604,4.8604,4.8563,4.8453,4.8328,4.8218,4.8133,6.36,6.36,6.36,6.36,6.36,6.36,6.36,6.3494,6.2967,6.2613,6.2306,6.1446,6.0581,5.9736,6.0118,5.9877,5.9278,6.0732,6.1398,6.1444,6.2284,6.292,6.3284,6.3381,6.3403,6.3048,6.2397,6.2178,6.2061,6.0782,6.0047,5.9567,5.8632,5.7775,5.7122,5.6791,5.611,5.5144,5.499,5.5007,5.4788,5.4262,5.4313,5.4517,5.3991,5.3518,5.3518,5.3518,5.3501,5.3501,5.3501,5.3518,5.3518,5.3518,5.3518,5.3518,5.3518,5.3518,5.3518,5.3518,5.3518,5.3518,5.3518,5.3518,5.3518,5.3518,5.3518,5.3518,5.3518,5.3518,5.3518,5.3518,5.3518,5.3518,5.3518,5.3518,5.3518,5.3518,5.3518,5.3518,5.3518,5.3518,5.3518,5.3518,5.3518,5.3518,5.3518,5.3518,5.3518,5.3518,5.3518,5.3518,5.3467,5.3382,5.3127,5.2764,5.2164,5.1492,5.0838,4.9963,4.9325,4.8687,4.8604,4.8604,4.8604,4.8604,4.8604,4.8604,4.8604,4.8604,4.8604,4.8563,4.8453,4.837,4.8286,6.36,6.36,6.36,6.36,6.36,6.36,6.36,6.3563,6.3363,6.3233,6.2881,6.1436,6.083,6.0486,5.9804,5.9167,5.9106,6.0459,6.0808,6.102,6.1573,6.2346,6.2746,6.3343,6.3153,6.242,6.1913,6.1344,6.0859,6.0064,5.9337,5.8927,5.8477,5.7909,5.7056,5.6642,5.5807,5.4941,5.4703,5.4838,5.4805,5.4483,5.4449,5.4686,5.3991,5.3534,5.3518,5.3518,5.3518,5.3518,5.3518,5.3518,5.3518,5.3518,5.3518,5.3518,5.3518,5.3518,5.3518,5.3518,5.3518,5.3518,5.3518,5.3518,5.3518,5.3518,5.3518,5.3518,5.3518,5.3518,5.3518,5.3518,5.3518,5.3518,5.3518,5.3518,5.3518,5.3518,5.3518,5.3518,5.3518,5.3518,5.3518,5.3518,5.3518,5.3518,5.3518,5.3518,5.3518,5.3518,5.3518,5.3518,5.3433,5.3348,5.2972,5.2572,5.1895,5.1194,5.0663,4.9963,4.9421,4.8934,4.8728,4.8646,4.8604,4.8604,4.8604,4.8604,4.8604,4.8604,4.8604,4.8604,4.8563,4.8521,4.8438,6.36,6.36,6.36,6.36,6.36,6.36,6.36,6.36,6.3563,6.3452,6.3179,6.2628,6.1712,6.0634,6.0065,5.9665,5.9242,5.984,6.0211,6.1104,6.1795,6.1561,6.1467,6.2028,6.2473,6.2024,6.1285,6.0997,6.0878,5.9667,5.8891,5.8545,5.7801,5.6981,5.6491,5.5843,5.5111,5.4856,5.4363,5.4364,5.4635,5.4245,5.4177,5.4534,5.3924,5.3534,5.3518,5.3518,5.3518,5.3518,5.3518,5.3518,5.3518,5.3518,5.3518,5.3518,5.3518,5.3518,5.3518,5.3518,5.3518,5.3518,5.3518,5.3518,5.3518,5.3518,5.3518,5.3518,5.3518,5.3518,5.3518,5.3518,5.3518,5.3518,5.3518,5.3518,5.3518,5.3518,5.3518,5.3518,5.3518,5.3518,5.3518,5.3518,5.3518,5.3518,5.3518,5.3518,5.3518,5.3518,5.3518,5.3518,5.3467,5.3348,5.2938,5.2572,5.2004,5.1417,5.0892,5.0354,4.9805,4.9275,4.9072,4.8811,4.8604,4.8604,4.8604,4.8604,4.8604,4.8604,4.8604,4.8604,4.8604,4.8604,4.8604,6.36,6.36,6.36,6.36,6.36,6.36,6.36,6.36,6.36,6.3526,6.3328,6.2884,6.2104,6.1169,6.0228,5.9522,5.9225,5.9132,5.9714,6.0507,6.0954,6.0565,6.0118,6.023,6.0616,6.0647,5.9806,5.9666,5.9509,5.9095,5.8332,5.8226,5.7584,5.7126,5.6538,5.5889,5.5618,5.545,5.5228,5.5124,5.5023,5.4769,5.416,5.4126,5.3721,5.3518,5.3518,5.3518,5.3518,5.3518,5.3518,5.3518,5.3518,5.3518,5.3518,5.3518,5.3518,5.3518,5.3518,5.3518,5.3518,5.3518,5.3518,5.3518,5.3518,5.3518,5.3518,5.3518,5.3518,5.3518,5.3518,5.3518,5.3518,5.3518,5.3518,5.3518,5.3518,5.3518,5.3518,5.3518,5.3518,5.3518,5.3518,5.3518,5.3518,5.3518,5.3518,5.3518,5.3518,5.3518,5.3518,5.3518,5.3518,5.3314,5.2938,5.2572,5.22,5.1786,5.1455,5.1005,5.0547,4.9979,4.9437,4.9113,4.8769,4.8604,4.8604,4.8604,4.8604,4.8604,4.8604,4.8604,4.8604,4.8604,4.8604,6.3255,6.3255,6.3255,6.3255,6.3238,6.3186,6.3151,6.3186,6.3238,6.3048,6.3097,6.2348,6.177,6.128,6.0052,5.9273,5.9008,5.8938,5.9417,6.0072,5.9896,5.9685,5.9402,5.9167,5.8942,5.8545,5.8311,5.8162,5.8145,5.7918,5.801,5.7918,5.7901,5.7529,5.7053,5.6782,5.641,5.6022,5.609,5.6021,5.5716,5.553,5.4938,5.4076,5.3822,5.3653,5.3568,5.3518,5.3518,5.3518,5.3518,5.3518,5.3518,5.3518,5.3518,5.3518,5.3518,5.3518,5.3518,5.3518,5.3518,5.3518,5.3518,5.3518,5.3518,5.3518,5.3518,5.3518,5.3518,5.3518,5.3518,5.3518,5.3518,5.3518,5.3518,5.3518,5.3518,5.3518,5.3518,5.3518,5.3518,5.3518,5.3518,5.3518,5.3518,5.3518,5.3518,5.3518,5.3518,5.3518,5.3518,5.3518,5.3518,5.3314,5.2938,5.2642,5.2236,5.2164,5.1895,5.1582,5.121,5.0663,5.0058,4.9316,4.899,4.8769,4.8604,4.8604,4.8604,4.8604,4.8604,4.8604,4.8604,4.8604,4.8604,6.1685,6.1668,6.1685,6.1685,6.1685,6.1703,6.1772,6.1685,6.1806,6.1703,6.1684,6.1349,6.1023,6.0454,5.9929,5.9347,5.908,5.8961,5.9165,5.9615,5.9466,5.9266,5.8841,5.8719,5.8439,5.8135,5.7918,5.7918,5.7881,5.7881,5.7881,5.7881,5.7881,5.7729,5.7526,5.7171,5.6867,5.6596,5.6427,5.6105,5.6004,5.5801,5.5412,5.4515,5.4414,5.4177,5.3704,5.3568,5.3518,5.3518,5.3518,5.3518,5.3518,5.3518,5.3518,5.3518,5.3518,5.3518,5.3518,5.3518,5.3518,5.3518,5.3518,5.3518,5.3518,5.3518,5.3518,5.3518,5.3518,5.3518,5.3518,5.3518,5.3518,5.3518,5.3518,5.3518,5.3518,5.3518,5.3518,5.3518,5.3518,5.3518,5.3518,5.3518,5.3518,5.3518,5.3518,5.3518,5.3518,5.3518,5.3518,5.3518,5.3518,5.3246,5.2938,5.2642,5.2378,5.2414,5.2272,5.2073,5.1655,5.1285,5.0663,4.9741,4.9113,4.8769,4.8646,4.8604,4.8604,4.8604,4.8604,4.8604,4.8604,4.8604,4.8604,6.1306,6.1306,6.1306,6.1306,6.1306,6.1306,6.1306,6.1306,6.1306,6.1306,6.127,6.1182,6.0955,6.0524,5.9988,5.9545,5.9185,5.8823,5.9012,5.9267,5.9098,5.8806,5.8491,5.8456,5.8226,5.7991,5.7918,5.7881,5.7881,5.7881,5.7881,5.7881,5.7881,5.7881,5.7831,5.7577,5.7357,5.7239,5.6985,5.6799,5.6748,5.6511,5.5886,5.5378,5.5175,5.4989,5.4702,5.4194,5.4093,5.4008,5.3704,5.3551,5.3534,5.3551,5.3534,5.3534,5.3518,5.3518,5.3518,5.3518,5.3518,5.3518,5.3518,5.3518,5.3518,5.3518,5.3518,5.3518,5.3518,5.3518,5.3518,5.3551,5.3518,5.3518,5.3551,5.3568,5.3534,5.3534,5.3585,5.3619,5.3619,5.3619,5.3518,5.3518,5.3518,5.3518,5.3534,5.3568,5.3585,5.3721,5.3822,5.3788,5.3839,5.372,5.3514,5.3341,5.3079,5.3029,5.2909,5.2696,5.2234,5.1859,5.0922,4.9876,4.934,4.9248,4.8646,4.862,4.8604,4.8604,4.8646,4.8661,4.8604,4.8604,4.8604,6.084,6.084,6.084,6.084,6.0858,6.084,6.0806,6.084,6.0806,6.0754,6.084,6.0789,6.0648,6.0474,6.008,5.9599,5.9285,5.8823,5.8927,5.8944,5.8771,5.8402,5.8295,5.8188,5.8152,5.8027,5.7918,5.7881,5.7881,5.7881,5.7881,5.7881,5.7881,5.7881,5.7848,5.7797,5.7881,5.7881,5.7881,5.7881,5.7712,5.7323,5.6681,5.6038,5.5936,5.5833,5.5497,5.5091,5.4854,5.4685,5.4363,5.3923,5.3805,5.3873,5.3873,5.3737,5.3602,5.3518,5.3518,5.3518,5.3518,5.3518,5.3518,5.3518,5.3518,5.3518,5.3518,5.3518,5.3721,5.3788,5.3856,5.3923,5.3907,5.3839,5.3923,5.394,5.3923,5.3957,5.4076,5.4025,5.3873,5.3907,5.3991,5.3568,5.3568,5.3974,5.4008,5.3974,5.4042,5.4313,5.4397,5.4262,5.4245,5.4245,5.4227,5.4294,5.4189,5.417,5.3997,5.3803,5.3172,5.2528,5.1587,5.0913,5.0635,5.0454,4.9573,4.8718,4.8826,4.8867,4.8785,4.8785,4.8867,4.8728,4.8604,5.9288,5.9288,5.9306,5.9271,5.934,5.9357,5.9323,5.9357,5.9409,5.9271,5.9478,5.9375,5.9426,5.9461,5.9647,5.9524,5.9336,5.9217,5.8995,5.8788,5.8596,5.849,5.8419,5.826,5.8188,5.808,5.7954,5.7918,5.7881,5.7881,5.7881,5.7881,5.7881,5.7881,5.7881,5.7881,5.7881,5.7881,5.7881,5.7881,5.7865,5.7746,5.7289,5.6867,5.663,5.6461,5.6038,5.5716,5.5581,5.5564,5.548,5.5091,5.4718,5.5124,5.4989,5.4515,5.394,5.3518,5.367,5.3771,5.3771,5.3822,5.3721,5.3568,5.3721,5.367,5.3636,5.3534,5.4008,5.4329,5.4448,5.4989,5.4955,5.4888,5.4854,5.4786,5.4685,5.4651,5.4735,5.4735,5.4668,5.4685,5.4735,5.4143,5.3704,5.4126,5.4465,5.4465,5.4532,5.482,5.4989,5.4888,5.4802,5.4854,5.482,5.4905,5.4989,5.5124,5.4968,5.474,5.4073,5.3408,5.3177,5.2552,5.2197,5.1277,5.008,4.9476,4.9293,4.9428,4.9667,4.948,4.925,4.9021,4.9073,5.9012,5.9012,5.9012,5.9012,5.9012,5.9012,5.9012,5.9012,5.9012,5.9012,5.9047,5.925,5.9418,5.9551,5.9668,5.9553,5.9469,5.9436,5.9234,5.8806,5.8701,5.8596,5.849,5.8295,5.8152,5.808,5.7954,5.7918,5.7881,5.7881,5.7881,5.7881,5.7881,5.7881,5.7881,5.7881,5.7881,5.7881,5.7881,5.7881,5.7881,5.7865,5.7746,5.7425,5.7391,5.7171,5.6917,5.6494,5.6342,5.6258,5.6021,5.5598,5.5344,5.5497,5.5513,5.531,5.4972,5.4803,5.4786,5.4735,5.4668,5.4718,5.4718,5.4837,5.465,5.4363,5.4126,5.4143,5.438,5.46,5.4786,5.5277,5.5412,5.548,5.5666,5.553,5.5412,5.5497,5.5513,5.5497,5.5497,5.553,5.5564,5.5277,5.4871,5.4972,5.5243,5.5277,5.526,5.5344,5.548,5.553,5.5478,5.553,5.5463,5.5463,5.5497,5.5581,5.5564,5.5265,5.489,5.4411,5.4202,5.3558,5.2804,5.1764,5.0687,5.0434,5.0516,5.0605,5.0652,5.0545,5.0486,5.0721,5.0689,5.9012,5.9012,5.9012,5.9012,5.9012,5.9012,5.9012,5.9012,5.9012,5.9012,5.9081,5.9318,5.9668,5.9928,5.9766,5.9602,5.9602,5.9602,5.9369,5.9081,5.8892,5.8771,5.8666,5.8438,5.826,5.8044,5.8044,5.7954,5.7918,5.7881,5.7881,5.7881,5.7881,5.7881,5.7881,5.7881,5.7881,5.7881,5.7881,5.7881,5.7881,5.7881,5.7881,5.7848,5.7881,5.7881,5.7797,5.7425,5.7087,5.6968,5.6697,5.6359,5.6072,5.6275,5.6258,5.6156,5.6055,5.6258,5.6072,5.5902,5.5784,5.5681,5.5681,5.5478,5.5495,5.5141,5.4871,5.4888,5.5209,5.5226,5.531,5.5902,5.6122,5.6241,5.6258,5.6122,5.6072,5.6275,5.6308,5.6207,5.6258,5.6427,5.6444,5.641,5.6224,5.5986,5.6021,5.6055,5.6122,5.6156,5.6292,5.6444,5.6494,5.6494,5.6461,5.6342,5.6258,5.6139,5.6122,5.6046,5.5819,5.5592,5.5367,5.454,5.3716,5.3734,5.3519,5.2633,5.1763,5.1676,5.1641,5.1846,5.191,5.2141,5.2043,5.9012,5.9012,5.9012,5.9012,5.9012,5.9012,5.9012,5.9012,5.9012,5.9012,5.9047,5.9081,5.9485,5.9864,5.9766,5.9602,5.9602,5.9602,5.9369,5.9115,5.8978,5.8927,5.8823,5.8701,5.8596,5.8402,5.8224,5.8044,5.7935,5.7935,5.7918,5.7881,5.7881,5.7881,5.7881,5.7881,5.7881,5.7881,5.7881,5.7881,5.7881,5.7881,5.7881,5.7881,5.7881,5.7881,5.7881,5.7746,5.7679,5.7645,5.7492,5.7239,5.6884,5.7137,5.7103,5.6917,5.7154,5.7323,5.7222,5.6562,5.5867,5.5732,5.5852,5.6038,5.6089,5.5818,5.5649,5.5683,5.5987,5.6325,5.6664,5.7154,5.7087,5.6985,5.6934,5.6951,5.6985,5.7222,5.7222,5.7002,5.6985,5.7103,5.7137,5.707,5.6985,5.6765,5.6748,5.6799,5.712,5.7222,5.7374,5.7509,5.756,5.7594,5.7628,5.7459,5.7137,5.707,5.7087,5.7091,5.7036,5.6775,5.6283,5.6122,5.5495,5.5924,5.5967,5.4565,5.3415,5.2853,5.2692,5.2954,5.2993,5.305,5.2815,5.9012,5.9012,5.9012,5.9012,5.9012,5.9012,5.9012,5.9012,5.9012,5.9149,5.9351,5.9149,5.9418,5.9814,5.9766,5.9602,5.9602,5.9602,5.9335,5.9098,5.8944,5.8875,5.8823,5.8736,5.8561,5.849,5.8295,5.8188,5.8116,5.7971,5.7918,5.7881,5.7881,5.7881,5.7881,5.7881,5.7881,5.7881,5.7881,5.7881,5.7881,5.7881,5.7881,5.7881,5.7881,5.7881,5.7881,5.7881,5.7881,5.7881,5.7881,5.7662,5.7476,5.7763,5.7679,5.7442,5.7763,5.7848,5.7881,5.734,5.7087,5.7036,5.707,5.7002,5.685,5.6647,5.6444,5.6494,5.663,5.6884,5.69,5.7408,5.7695,5.7611,5.7577,5.7594,5.7662,5.7797,5.778,5.7408,5.7492,5.7645,5.7662,5.7679,5.7594,5.7509,5.7509,5.7526,5.7746,5.7881,5.7881,5.7881,5.7881,5.7881,5.7881,5.7881,5.7881,5.7881,5.7881,5.7735,5.7534,5.7331,5.6922,5.6992,5.6911,5.6713,5.6338,5.5764,5.51,5.4428,5.4164,5.4168,5.4136,5.405,5.3922,5.9012,5.9012,5.9012,5.9012,5.9012,5.9012,5.9012,5.9012,5.9012,5.9217,5.9569,5.9217,5.9351,5.9733,5.9569,5.9402,5.9402,5.9369,5.9234,5.9064,5.8927,5.8875,5.8806,5.8771,5.8701,5.8561,5.8455,5.8384,5.8188,5.8044,5.7954,5.7918,5.7881,5.7881,5.7881,5.7881,5.7881,5.7881,5.7881,5.7881,5.7881,5.7881,5.7881,5.7881,5.7881,5.7881,5.7881,5.7881,5.7881,5.7881,5.7881,5.7881,5.7865,5.7881,5.7881,5.7881,5.7881,5.7881,5.7881,5.7881,5.7881,5.7695,5.7729,5.7763,5.7729,5.7408,5.7154,5.712,5.7154,5.712,5.712,5.7628,5.7881,5.7746,5.7746,5.778,5.778,5.7865,5.7865,5.7763,5.7865,5.7865,5.7848,5.7814,5.778,5.7729,5.7712,5.7695,5.778,5.7881,5.7881,5.7881,5.7881,5.7881,5.7881,5.7881,5.7881,5.7881,5.7881,5.7881,5.7735,5.7551,5.746,5.7439,5.7327,5.7139,5.687,5.6557,5.631,5.5995,5.5603,5.5126,5.5288,5.5214,5.5488,5.9012,5.9012,5.9012,5.9012,5.9012,5.9012,5.9012,5.9012,5.9012,5.9183,5.9469,5.9149,5.92,5.9451,5.9217,5.9115,5.9115,5.9081,5.9047,5.9012,5.8978,5.8978,5.8944,5.8927,5.8806,5.8823,5.8683,5.8455,5.8188,5.8152,5.8063,5.7918,5.7881,5.7881,5.7881,5.7881,5.7881,5.7881,5.7881,5.7881,5.7881,5.7881,5.7881,5.7881,5.7881,5.7881,5.7881,5.7881,5.7881,5.7881,5.7881,5.7881,5.7881,5.7881,5.7881,5.7881,5.7881,5.7881,5.7881,5.7881,5.7881,5.7881,5.7881,5.7881,5.7881,5.7797,5.7712,5.7577,5.7679,5.7746,5.7814,5.7865,5.7865,5.7881,5.7881,5.7881,5.7881,5.7881,5.7881,5.7881,5.7881,5.7881,5.7881,5.7865,5.7865,5.7848,5.7865,5.7881,5.7881,5.7881,5.7881,5.7881,5.7881,5.7881,5.7881,5.7881,5.7881,5.7881,5.7881,5.7881,5.7881,5.7772,5.7772,5.7808,5.7698,5.7514,5.7514,5.748,5.7025,5.6525,5.6267,5.5981,5.6188,5.6284,5.633,5.9012,5.9012,5.9012,5.9012,5.9012,5.9012,5.9012,5.9012,5.9012,5.9081,5.9149,5.9047,5.9047,5.9098,5.9098,5.9012,5.9012,5.9012,5.9012,5.9012,5.8978,5.9012,5.8978,5.8892,5.884,5.8788,5.8683,5.849,5.8188,5.8188,5.8063,5.7918,5.7881,5.7881,5.7881,5.7881,5.7881,5.7881,5.7881,5.7881,5.7881,5.7881,5.7881,5.7881,5.7881,5.7881,5.7881,5.7881,5.7881,5.7881,5.7881,5.7881,5.7881,5.7881,5.7881,5.7881,5.7881,5.7881,5.7881,5.7881,5.7881,5.7881,5.7881,5.7881,5.7881,5.7881,5.7881,5.7881,5.7881,5.7881,5.7865,5.7865,5.7881,5.7881,5.7881,5.7881,5.7881,5.7881,5.7881,5.7881,5.7881,5.7881,5.7881,5.7881,5.7881,5.7881,5.7881,5.7881,5.7881,5.7881,5.7881,5.7881,5.7881,5.7881,5.7881,5.7881,5.7881,5.7881,5.7881,5.7881,5.7881,5.7881,5.7881,5.7845,5.7881,5.7881,5.7772,5.7641,5.7327,5.6987,5.6757,5.6541,5.6541,5.6619,5.6719,5.9012,5.9012,5.9012,5.9012,5.9012,5.9012,5.9012,5.9012,5.9012,5.9012,5.9012,5.9012,5.9012,5.9012,5.9012,5.9012,5.9012,5.9012,5.9012,5.8978,5.8927,5.8927,5.8875,5.8771,5.8701,5.8648,5.8561,5.8402,5.8224,5.8188,5.808,5.7954,5.7881,5.7881,5.7881,5.7881,5.7881,5.7881,5.7881,5.7881,5.7881,5.7881,5.7881,5.7881,5.7881,5.7881,5.7881,5.7881,5.7881,5.7881,5.7881,5.7881,5.7881,5.7881,5.7881,5.7881,5.7881,5.7881,5.7881,5.7881,5.7881,5.7881,5.7881,5.7881,5.7881,5.7881,5.7881,5.7881,5.7881,5.7881,5.7881,5.7881,5.7881,5.7881,5.7881,5.7881,5.7881,5.7881,5.7881,5.7881,5.7881,5.7881,5.7881,5.7881,5.7881,5.7881,5.7881,5.7881,5.7881,5.7881,5.7881,5.7881,5.7881,5.7881,5.7881,5.7881,5.7881,5.7881,5.7881,5.7881,5.7881,5.7881,5.7881,5.7881,5.7881,5.7881,5.7862,5.7715,5.7514,5.7439,5.7327,5.7139,5.6949,5.7025,5.7122,5.8978,5.8978,5.9012,5.9012,5.8978,5.8978,5.8978,5.8978,5.9012,5.9012,5.9012,5.9012,5.9012,5.9012,5.9012,5.9012,5.9012,5.9012,5.8978,5.8961,5.8875,5.8806,5.8718,5.8613,5.8525,5.849,5.8455,5.8331,5.8188,5.8152,5.8044,5.7954,5.7881,5.7881,5.7881,5.7881,5.7881,5.7881,5.7881,5.7881,5.7881,5.7881,5.7881,5.7881,5.7881,5.7881,5.7881,5.7881,5.7881,5.7881,5.7881,5.7881,5.7881,5.7881,5.7881,5.7881,5.7881,5.7881,5.7881,5.7881,5.7881,5.7881,5.7881,5.7881,5.7881,5.7881,5.7881,5.7881,5.7881,5.7881,5.7881,5.7881,5.7881,5.7881,5.7881,5.7881,5.7881,5.7881,5.7881,5.7881,5.7881,5.7881,5.7881,5.7881,5.7881,5.7881,5.7881,5.7881,5.7881,5.7881,5.7881,5.7881,5.7881,5.7881,5.7881,5.7881,5.7881,5.7881,5.7881,5.7881,5.7881,5.7881,5.7881,5.7881,5.7881,5.7881,5.7845,5.7845,5.7845,5.7772,5.7662,5.7551,5.7327,5.7514,5.7645,5.8875,5.8858,5.8961,5.8961,5.8875,5.8875,5.8892,5.8978,5.9012,5.9012,5.9012,5.9012,5.8978,5.9012,5.9012,5.8978,5.8978,5.8978,5.8927,5.8875,5.8771,5.8666,5.8561,5.8419,5.8312,5.8295,5.826,5.8188,5.8027,5.7991,5.7991,5.7918,5.7881,5.7881,5.7881,5.7881,5.7881,5.7881,5.7881,5.7881,5.7881,5.7881,5.7881,5.7881,5.7881,5.7881,5.7881,5.7881,5.7881,5.7881,5.7881,5.7881,5.7881,5.7881,5.7881,5.7881,5.7881,5.7881,5.7881,5.7881,5.7881,5.7881,5.7881,5.7881,5.7881,5.7881,5.7881,5.7881,5.7881,5.7881,5.7881,5.7881,5.7881,5.7881,5.7881,5.7881,5.7881,5.7881,5.7881,5.7881,5.7881,5.7881,5.7881,5.7881,5.7881,5.7881,5.7881,5.7881,5.7881,5.7881,5.7881,5.7881,5.7881,5.7881,5.7881,5.7881,5.7881,5.7881,5.7881,5.7881,5.7881,5.7881,5.7881,5.7881,5.7881,5.7881,5.7881,5.7881,5.7881,5.7881,5.7808,5.7772,5.7772,5.7845,5.7881,5.8683,5.8701,5.8771,5.8771,5.8683,5.8666,5.8719,5.8806,5.8961,5.8978,5.8927,5.8978,5.8995,5.8944,5.8892,5.8858,5.8771,5.8736,5.8719,5.8701,5.8596,5.849,5.8331,5.8188,5.8116,5.8063,5.8063,5.8044,5.7918,5.7881,5.7881,5.7881,5.7881,5.7881,5.7881,5.7881,5.7881,5.7881,5.7881,5.7881,5.7881,5.7881,5.7881,5.7881,5.7881,5.7881,5.7881,5.7881,5.7881,5.7881,5.7881,5.7881,5.7881,5.7881,5.7881,5.7881,5.7881,5.7881,5.7881,5.7881,5.7881,5.7881,5.7881,5.7881,5.7881,5.7881,5.7881,5.7881,5.7881,5.7881,5.7881,5.7881,5.7881,5.7881,5.7881,5.7881,5.7881,5.7881,5.7881,5.7881,5.7881,5.7881,5.7881,5.7881,5.7881,5.7881,5.7881,5.7881,5.7881,5.7881,5.7881,5.7881,5.7881,5.7881,5.7881,5.7881,5.7881,5.7881,5.7881,5.7881,5.7881,5.7881,5.7881,5.7881,5.7881,5.7881,5.7881,5.7881,5.7881,5.7881,5.7881,5.7845,5.7845,5.7881,5.7881,5.849,5.8473,5.849,5.849,5.849,5.849,5.8455,5.8473,5.8771,5.8892,5.8823,5.8892,5.8858,5.8771,5.8736,5.8666,5.8631,5.8596,5.8544,5.849,5.8367,5.826,5.8152,5.8007,5.7954,5.7918,5.7918,5.7954,5.7918,5.7881,5.7881,5.7881,5.7881,5.7881,5.7881,5.7881,5.7881,5.7881,5.7881,5.7881,5.7881,5.7881,5.7881,5.7881,5.7881,5.7881,5.7881,5.7881,5.7881,5.7881,5.7881,5.7881,5.7881,5.7881,5.7881,5.7881,5.7881,5.7881,5.7881,5.7881,5.7881,5.7881,5.7881,5.7881,5.7881,5.7881,5.7881,5.7881,5.7881,5.7881,5.7881,5.7881,5.7881,5.7881,5.7881,5.7881,5.7881,5.7881,5.7881,5.7881,5.7881,5.7881,5.7881,5.7881,5.7881,5.7881,5.7881,5.7881,5.7881,5.7881,5.7881,5.7881,5.7881,5.7881,5.7881,5.7881,5.7881,5.7881,5.7881,5.7881,5.7881,5.7881,5.7881,5.7881,5.7881,5.7881,5.7881,5.7881,5.7881,5.7881,5.7881,5.7881,5.7881,5.7881,5.7881,5.826,5.8277,5.826,5.826,5.8277,5.8277,5.8188,5.808,5.8438,5.8579,5.8596,5.8596,5.8631,5.8596,5.8561,5.8525,5.849,5.8419,5.8384,5.8312,5.8188,5.8116,5.8007,5.7918,5.7881,5.7881,5.7881,5.7881,5.7881,5.7881,5.7881,5.7881,5.7881,5.7881,5.7881,5.7881,5.7881,5.7881,5.7881,5.7881,5.7881,5.7881,5.7881,5.7881,5.7881,5.7881,5.7881,5.7881,5.7881,5.7881,5.7881,5.7881,5.7881,5.7881,5.7881,5.7881,5.7881,5.7881,5.7881,5.7881,5.7881,5.7881,5.7881,5.7881,5.7881,5.7881,5.7881,5.7881,5.7881,5.7881,5.7881,5.7881,5.7881,5.7881,5.7881,5.7881,5.7881,5.7881,5.7881,5.7881,5.7881,5.7881,5.7881,5.7881,5.7881,5.7881,5.7881,5.7881,5.7881,5.7881,5.7881,5.7881,5.7881,5.7881,5.7881,5.7881,5.7881,5.7881,5.7881,5.7881,5.7881,5.7881,5.7881,5.7881,5.7881,5.7881,5.7881,5.7881,5.7881,5.7881,5.7881,5.7881,5.7881,5.7881,5.7881,5.808,5.8063,5.808,5.808,5.808,5.8063,5.7991,5.7954,5.8152,5.8224,5.826,5.8384,5.8455,5.8367,5.8367,5.8295,5.826,5.8224,5.8152,5.808,5.808,5.7991,5.7918,5.7881,5.7881,5.7881,5.7881,5.7881,5.7881,5.7881,5.7881,5.7881,5.7881,5.7881,5.7881,5.7881,5.7881,5.7881,5.7881,5.7881,5.7881,5.7881,5.7881,5.7881,5.7881,5.7881,5.7881,5.7881,5.7881,5.7881,5.7881,5.7881,5.7881,5.7881,5.7881,5.7881,5.7881,5.7881,5.7881,5.7881,5.7881,5.7881,5.7881,5.7881,5.7881,5.7881,5.7881,5.7881,5.7881,5.7881,5.7881,5.7881,5.7881,5.7881,5.7881,5.7881,5.7881,5.7881,5.7881,5.7881,5.7881,5.7881,5.7881,5.7881,5.7881,5.7881,5.7881,5.7881,5.7881,5.7881,5.7881,5.7881,5.7881,5.7881,5.7881,5.7881,5.7881,5.7881,5.7881,5.7881,5.7881,5.7881,5.7881,5.7881,5.7881,5.7881,5.7881,5.7881,5.7881,5.7881,5.7881,5.7881,5.7881,5.7881,5.7881,5.7918,5.7881,5.7918,5.7918,5.7881,5.7918,5.7918,5.7918,5.7918,5.7918,5.7954,5.826,5.8295,5.8224,5.8152,5.8027,5.7954,5.7991,5.7918,5.7918,5.7918,5.7918,5.7918,5.7881,5.7881,5.7881,5.7881,5.7881,5.7881,5.7881,5.7881,5.7881,5.7881,5.7881,5.7881,5.7881,5.7881,5.7881,5.7881,5.7881,5.7881,5.7881,5.7881,5.7881,5.7881,5.7881,5.7881,5.7881,5.7881,5.7881,5.7881,5.7881,5.7881,5.7881,5.7881,5.7881,5.7881,5.7881,5.7881,5.7881,5.7881,5.7881,5.7881,5.7881,5.7881,5.7881,5.7881,5.7881,5.7881,5.7881,5.7881,5.7881,5.7881,5.7881,5.7881,5.7881,5.7881,5.7881,5.7881,5.7881,5.7881,5.7881,5.7881,5.7881,5.7881,5.7881,5.7881,5.7881,5.7881,5.7881,5.7881,5.7881,5.7881,5.7881,5.7881,5.7881,5.7881,5.7881,5.7881,5.7881,5.7881,5.7881,5.7881,5.7881,5.7881,5.7881,5.7881,5.7881,5.7881,5.7881,5.7881,5.7881,5.7881,5.7881,5.7881,5.7881,5.7881,5.7881,5.7881,5.7881,5.7881,5.7881,5.7881,5.7881,5.7881,5.7918,5.7918,5.7954,5.7954,5.7954,5.7918,5.7918,5.7881,5.7881,5.7918,5.7881,5.7881,5.7881,5.7881,5.7881,5.7881,5.7881,5.7881,5.7881,5.7881,5.7881,5.7881,5.7881,5.7881,5.7881,5.7881,5.7881,5.7881,5.7881,5.7881,5.7881,5.7881,5.7881,5.7881,5.7881,5.7881,5.7881,5.7881,5.7881,5.7881,5.7881,5.7881,5.7881,5.7881,5.7881,5.7881,5.7881,5.7881,5.7881,5.7881,5.7881,5.7881,5.7881,5.7881,5.7881,5.7881,5.7881,5.7881,5.7881,5.7881,5.7881,5.7881,5.7881,5.7881,5.7881,5.7881,5.7881,5.7881,5.7881,5.7881,5.7881,5.7881,5.7881,5.7881,5.7881,5.7881,5.7881,5.7881,5.7881,5.7881,5.7881,5.7881,5.7881,5.7881,5.7881,5.7881,5.7881,5.7881,5.7881,5.7881,5.7881,5.7881,5.7881,5.7881,5.7881,5.7881,5.7881,5.7881,5.7881,5.7881,5.7881,5.7881,5.7881,5.7881,5.7881]}]]